[[{"header":{"parameterUnit":"m.s-1","parameterCategory":1,"la1":31.0,"la2":29.5877,"lo1":-88.7671,"lo2":-86.6584,"dy":0.0162,"dx":0.0185,"nx":115,"ny":88,"refTime":"2026-04-29T12:00:00:Z","depth":0,"parameterNumber":2,"parameterNumberName":"U-component_of_WINDS"},"data":[0.0,0.0,0.0,0.0,0.0,0.0,0.0,0.0,0.0,0.0,0.0,0.0,0.0,0.0,0.0,0.0,0.0,0.0,0.0,0.0,0.0,0.0,0.0,0.0,0.0,0.0,0.0,0.0,0.0,0.0,0.0,0.0,0.0,0.0,0.0,0.0,0.0,0.0,0.0,0.0,0.0,0.0,0.0,0.0,0.0,0.0,0.0,0.0,0.0,0.0,0.0,0.0,0.0,0.0,0.0,0.0,0.0,0.0,0.0,0.0,0.0,0.0,0.0,0.0,0.0,0.0,0.0,0.0,0.0,0.0,0.0,0.0,0.0,0.0,0.0,0.0,0.0,0.0,0.0,0.0,0.0,0.0,0.0,0.0,0.0,0.0,0.0,0.0,0.0,0.0,0.0,0.0,0.0,0.0,0.0,0.0,0.0,0.0,0.0,0.0,0.0,0.0,0.0,0.0,0.0,0.0,0.0,0.0,0.0,0.0,0.0,0.0,0.0,0.0,0.0,0.0,0.0,0.0,0.0,0.0,0.0,0.0,0.0,0.0,0.0,0.0,0.0,0.0,0.0,0.0,0.0,0.0,0.0,0.0,0.0,0.0,0.0,0.0,0.0,0.0,0.0,0.0,0.0,0.0,0.0,0.0,0.0,0.0,0.0,0.0,0.0,0.0,0.0,0.0,0.0,0.0,0.0,0.0,0.0,0.0,0.0,0.0,0.0,0.0,0.0,0.0,0.0,0.0,0.0,0.0,0.0,0.0,0.0,0.0,0.0,0.0,0.0,0.0,0.0,0.0,0.0,0.0,0.0,0.0,0.0,0.0,0.0,0.0,0.0,0.0,0.0,0.0,0.0,0.0,0.0,0.0,0.0,0.0,0.0,0.0,0.0,0.0,0.0,0.0,0.0,0.0,0.0,0.0,0.0,0.0,0.0,0.0,0.0,0.0,0.0,0.0,0.0,0.0,0.0,0.0,0.0,0.0,0.0,0.0,0.0,0.0,0.0,0.0,0.0,0.0,0.0,0.0,0.0,0.0,0.0,0.0,0.0,0.0,0.0,0.0,0.0,0.0,0.0,0.0,0.0,0.0,0.0,0.0,0.0,0.0,0.0,0.0,0.0,0.0,0.0,0.0,0.0,0.0,0.0,0.0,0.0,0.0,0.0,0.0,0.0,0.0,0.0,0.0,0.0,0.0,0.0,0.0,0.0,0.0,0.0,0.0,0.0,0.0,0.0,0.0,0.0,0.0,0.0,0.0,0.0,0.0,0.0,0.0,0.0,0.0,0.0,0.0,0.0,0.0,0.0,0.0,0.0,0.0,0.0,0.0,0.0,0.0,0.0,0.0,0.0,0.0,0.0,0.0,0.0,0.0,0.0,0.0,0.0,0.0,0.0,0.0,0.0,0.0,0.0,0.0,0.0,0.0,0.0,0.0,0.0,0.0,0.0,0.0,0.0,0.0,0.0,0.0,0.0,0.0,0.0,0.0,0.0,0.0,0.0,0.0,0.0,0.0,0.0,0.0,0.0,0.0,0.0,0.0,0.0,0.0,0.0,0.0,0.0,0.0,0.0,0.0,0.0,0.0,0.0,0.0,0.0,0.0,0.0,0.0,0.0,0.0,0.0,0.0,0.0,0.0,0.0,0.0,0.0,0.0,0.0,0.0,0.0,0.0,0.0,0.0,0.0,0.0,0.0,0.0,0.0,0.0,0.0,0.0,0.0,0.0,0.0,0.0,0.0,0.0,0.0,0.0,0.0,0.0,0.0,0.0,0.0,0.0,0.0,0.0,0.0,0.0,0.0,0.0,0.0,0.0,0.0,0.0,0.0,0.0,0.0,0.0,0.0,0.0,0.0,0.0,0.0,0.0,0.0,0.0,0.0,0.0,0.0,0.0,0.0,0.0,0.0,0.0,0.0,0.0,0.0,0.0,0.0,0.0,0.0,0.0,0.0,0.0,0.0,0.0,0.0,0.0,0.0,0.0,0.0,0.0,0.0,0.0,0.0,0.0,0.0,0.0,0.0,0.0,0.0,0.0,0.0,0.0,0.0,0.0,0.0,0.0,0.0,0.0,0.0,0.0,0.0,0.0,0.0,0.0,0.0,0.0,0.0,0.0,0.0,0.0,0.0,0.0,0.0,0.0,0.0,0.0,0.0,0.0,0.0,0.0,0.0,0.0,0.0,0.0,0.0,0.0,0.0,0.0,0.0,0.0,0.0,0.0,0.0,0.0,0.0,0.0,0.0,0.0,0.0,0.0,0.0,0.0,0.0,0.0,0.0,0.0,0.0,0.0,0.0,0.0,0.0,0.0,0.0,0.0,0.0,0.0,0.0,0.0,0.0,0.0,0.0,0.0,0.0,0.0,0.0,0.0,0.0,0.0,0.0,0.0,0.0,0.0,0.0,0.0,0.0,0.0,0.0,0.0,0.0,0.0,0.0,0.0,0.0,0.0,0.0,0.0,0.0,0.0,0.0,0.0,0.0,0.0,0.0,0.0,0.0,0.0,0.0,0.0,0.0,0.0,0.0,0.0,0.0,0.0,0.0,0.0,0.0,0.0,0.0,0.0,0.0,0.0,0.0,0.0,0.0,0.0,0.0,0.0,0.0,0.0,0.0,0.0,0.0,0.0,0.0,0.0,0.0,0.0,0.0,0.0,0.0,0.0,0.0,0.0,0.0,0.0,0.0,0.0,0.0,0.0,0.0,0.0,0.0,0.0,0.0,0.0,0.0,0.0,0.0,0.0,0.0,0.0,0.0,0.0,0.0,0.0,0.0,0.0,0.0,0.0,0.0,0.0,0.0,0.0,0.0,0.0,0.0,0.0,0.0,0.0,0.0,0.0,0.0,0.0,0.0,0.0,0.0,0.0,0.0,0.0,0.0,0.0,0.0,0.0,0.0,0.0,0.0,0.0,0.0,0.0,0.0,0.0,0.0,0.0,0.0,0.0,0.0,0.0,0.0,0.0,0.0,0.0,0.0,0.0,0.0,0.0,0.0,0.0,0.0,0.0,0.0,0.0,0.0,0.0,0.0,0.0,0.0,0.0,0.0,0.0,0.0,0.0,0.0,0.0,0.0,0.0,0.0,0.0,0.0,0.0,0.0,0.0,0.0,0.0,0.0,0.0,0.0,0.0,0.0,0.0,0.0,0.0,0.0,0.0,0.0,0.0,0.0,0.0,0.0,0.0,0.0,0.0,0.0,0.0,0.0,0.0,0.0,0.0,0.0,0.0,0.0,0.0,0.0,0.0,0.0,0.0,0.0,0.0,0.0,0.0,0.0,0.0,0.0,0.0,0.0,0.0,0.0,0.0,0.0,0.0,0.0,0.0,0.0,0.0,0.0,0.0,0.0,0.0,0.0,0.0,0.0,0.0,0.0,0.0,0.0,0.0,0.0,0.0,0.0,0.0,0.0,0.0,0.0,0.0,0.0,0.0,0.0,0.0,0.0,0.0,0.0,0.0,0.0,0.0,0.0,0.0,0.0,0.0,0.0,0.0,0.0,0.0,0.0,0.0,0.0,0.0,0.0,0.0,0.0,0.0,0.0,0.0,0.0,0.0,0.0,0.0,0.0,0.0,0.0,0.0,0.0,0.0,0.0,0.0,0.0,0.0,0.0,0.0,0.0,0.0,0.0,0.0,0.0,0.0,0.0,0.0,0.0,0.0,0.0,0.0,0.0,0.0,0.0,0.0,0.0,0.0,0.0,0.0,0.0,0.0,0.0,0.0,0.0,0.0,0.0,0.0,0.0,0.0,0.0,0.0,0.0,0.0,0.0,0.0,0.0,0.0,0.0,0.0,0.0,0.0,0.0,0.0,0.0,0.0,0.0,0.0,0.0,0.0,0.0,0.0,0.0,0.0,0.0,0.0,0.0,0.0,0.0,0.0,0.0,0.0,0.0,0.0,0.0,0.0,0.0,0.0,0.0,0.0,0.0,0.0,0.0,0.0,0.0,0.0,0.0,0.0,0.0,0.0,0.0,0.0,0.0,0.0,0.0,0.0,0.0,0.0,0.0,0.0,0.0,0.0,0.0,0.0,0.0,0.0,0.0,0.0,0.0,0.0,0.0,0.0,0.0,0.0,0.0,0.0,0.0,0.0,0.0,0.0,0.0,0.0,0.0,0.0,0.0,0.0,0.0,0.0,0.0,0.0,0.0,0.0,0.0,0.0,0.0,0.0,0.0,0.0,0.0,0.0,0.0,0.0,0.0,0.0,0.0,0.0,0.0,0.0,0.0,0.0,0.0,0.0,0.0,0.0,0.0,0.0,0.0,0.0,2.1862,0.0,0.0,0.0,0.0,0.0,0.0,0.0,0.0,0.0,0.0,0.0,0.0,0.0,0.0,0.0,0.0,0.0,0.0,0.0,0.0,0.0,0.0,0.0,0.0,0.0,0.0,0.0,0.0,0.0,0.0,0.0,0.0,0.0,0.0,0.0,0.0,0.0,0.0,0.0,0.0,0.0,0.0,0.0,0.0,0.0,0.0,0.0,0.0,0.0,0.0,0.0,0.0,0.0,0.0,0.0,0.0,0.0,0.0,0.0,0.0,0.0,0.0,0.0,0.0,0.0,0.0,0.0,0.0,0.0,0.0,0.0,0.0,0.0,0.0,0.0,0.0,0.0,0.0,0.0,0.0,0.0,0.0,0.0,0.0,0.0,0.0,0.0,0.0,0.0,0.0,0.0,0.0,0.0,0.0,0.0,0.0,0.0,0.0,0.0,0.0,0.0,0.0,0.0,0.0,0.0,0.0,0.0,0.0,0.0,0.0,2.419,2.419,2.419,2.3455,2.1862,0.0,0.0,0.0,0.0,0.0,0.0,0.0,0.0,0.0,0.0,0.0,0.0,0.0,0.0,0.0,0.0,0.0,0.0,0.0,0.0,0.0,0.0,0.0,0.0,0.0,0.0,0.0,0.0,0.0,0.0,0.0,0.0,0.0,0.0,0.0,0.0,0.0,0.0,0.0,0.0,0.0,0.0,0.0,0.0,0.0,0.0,0.0,0.0,0.0,0.0,0.0,0.0,0.0,0.0,0.0,0.0,0.0,0.0,0.0,0.0,0.0,0.0,0.0,0.0,0.0,0.0,0.0,0.0,0.0,0.0,0.0,0.0,0.0,0.0,0.0,0.0,0.0,0.0,0.0,0.0,0.0,0.0,0.0,0.0,0.0,0.0,0.0,0.0,0.0,0.0,0.0,0.0,0.0,0.0,0.0,0.0,0.0,0.0,0.0,0.0,0.0,0.0,0.0,0.0,0.0,0.0,0.0,0.0,0.0,0.0,0.0,0.0,2.4724,2.3989,2.2409,0.0,0.0,0.0,0.0,0.0,0.0,0.0,0.0,0.0,0.0,0.0,0.0,0.0,0.0,0.0,0.0,0.0,0.0,0.0,0.0,0.0,0.0,0.0,0.0,0.0,0.0,0.0,0.0,0.0,0.0,0.0,0.0,0.0,0.0,0.0,0.0,0.0,0.0,0.0,0.0,0.0,0.0,0.0,0.0,0.0,0.0,0.0,0.0,0.0,0.0,0.0,0.0,0.0,0.0,0.0,0.0,0.0,0.0,0.0,0.0,0.0,0.0,0.0,0.0,0.0,0.0,0.0,0.0,0.0,0.0,0.0,0.0,0.0,0.0,0.0,0.0,0.0,0.0,0.0,0.0,0.0,0.0,0.0,0.0,0.0,0.0,0.0,0.0,0.0,0.0,0.0,0.0,0.0,0.0,0.0,0.0,0.0,0.0,0.0,0.0,0.0,0.0,0.0,0.0,0.0,0.0,0.0,0.0,0.0,0.0,2.4887,2.6319,2.6371,0.0,2.4109,0.0,0.0,0.0,0.0,0.0,0.0,0.0,0.0,0.0,0.0,0.0,0.0,0.0,0.0,0.0,0.0,0.0,0.0,0.0,0.0,0.0,0.0,0.0,0.0,0.0,0.0,0.0,0.0,0.0,0.0,0.0,0.0,0.0,0.0,0.0,0.0,0.0,0.0,0.0,0.0,0.0,0.0,0.0,0.0,0.0,0.0,0.0,0.0,0.0,0.0,0.0,0.0,0.0,0.0,0.0,0.0,0.0,0.0,0.0,0.0,0.0,0.0,0.0,0.0,0.0,0.0,0.0,0.0,0.0,0.0,0.0,0.0,0.0,0.0,0.0,0.0,0.0,0.0,0.0,0.0,0.0,0.0,0.0,0.0,0.0,0.0,0.0,0.0,0.0,0.0,0.0,0.0,0.0,0.0,0.0,0.0,0.0,0.0,0.0,0.0,0.0,0.0,0.0,0.0,0.0,0.0,0.0,0.0,0.0,0.0,0.0,2.6576,2.5663,2.5171,0.0,0.0,0.0,0.0,0.0,0.0,0.0,0.0,0.0,0.0,0.0,0.0,0.0,0.0,0.0,0.0,0.0,0.0,0.0,0.0,0.0,0.0,0.0,0.0,0.0,0.0,0.0,0.0,0.0,0.0,0.0,0.0,0.0,0.0,0.0,0.0,0.0,0.0,0.0,0.0,0.0,0.0,0.0,0.0,0.0,0.0,0.0,0.0,0.0,0.0,0.0,0.0,0.0,0.0,0.0,0.0,0.0,0.0,0.0,0.0,0.0,0.0,0.0,0.0,0.0,0.0,0.0,0.0,0.0,0.0,0.0,0.0,0.0,0.0,0.0,0.0,0.0,0.0,0.0,0.0,0.0,0.0,0.0,0.0,0.0,0.0,0.0,0.0,0.0,0.0,0.0,0.0,0.0,0.0,0.0,0.0,0.0,0.0,0.0,0.0,0.0,0.0,0.0,0.0,0.0,0.0,0.0,0.0,0.0,0.0,2.6096,0.0,2.6878,2.5807,2.5261,2.5356,0.0,0.0,0.0,0.0,0.0,0.0,0.0,0.0,0.0,0.0,0.0,0.0,0.0,0.0,0.0,0.0,0.0,0.0,0.0,0.0,0.0,0.0,0.0,0.0,0.0,0.0,0.0,0.0,0.0,0.0,0.0,0.0,0.0,0.0,0.0,0.0,0.0,0.0,0.0,0.0,0.0,0.0,0.0,0.0,0.0,0.0,0.0,0.0,0.0,0.0,0.0,0.0,0.0,0.0,0.0,0.0,0.0,0.0,0.0,0.0,0.0,0.0,0.0,0.0,0.0,0.0,0.0,0.0,0.0,0.0,0.0,0.0,0.0,0.0,0.0,0.0,0.0,0.0,0.0,0.0,0.0,0.0,0.0,0.0,0.0,0.0,0.0,0.0,0.0,0.0,0.0,0.0,0.0,0.0,0.0,0.0,0.0,0.0,0.0,0.0,0.0,0.0,0.0,0.0,0.0,0.0,0.0,0.0,0.0,2.6805,2.6969,2.774,2.7672,2.6594,0.0,0.0,0.0,0.0,0.0,0.0,0.0,0.0,0.0,0.0,0.0,0.0,0.0,0.0,0.0,0.0,0.0,0.0,0.0,0.0,0.0,0.0,0.0,0.0,0.0,0.0,0.0,0.0,0.0,0.0,0.0,0.0,0.0,0.0,0.0,0.0,0.0,0.0,0.0,0.0,0.0,0.0,0.0,0.0,0.0,0.0,0.0,0.0,0.0,0.0,0.0,0.0,0.0,0.0,0.0,0.0,0.0,0.0,0.0,0.0,0.0,0.0,0.0,0.0,0.0,0.0,0.0,0.0,0.0,0.0,0.0,0.0,0.0,0.0,0.0,0.0,0.0,0.0,0.0,0.0,0.0,0.0,0.0,0.0,0.0,0.0,0.0,0.0,0.0,0.0,0.0,0.0,0.0,0.0,0.0,0.0,0.0,0.0,0.0,0.0,0.0,0.0,0.0,0.0,0.0,0.0,0.0,0.0,0.0,2.534,2.6169,2.7478,2.914,2.6854,2.539,0.0,0.0,0.0,0.0,0.0,0.0,0.0,0.0,0.0,0.0,0.0,0.0,0.0,0.0,0.0,0.0,0.0,0.0,0.0,0.0,0.0,0.0,0.0,0.0,0.0,0.0,0.0,0.0,0.0,0.0,0.0,0.0,0.0,0.0,0.0,0.0,0.0,0.0,0.0,0.0,0.0,0.0,0.0,0.0,0.0,0.0,0.0,0.0,0.0,0.0,0.0,0.0,0.0,0.0,0.0,0.0,0.0,0.0,0.0,0.0,0.0,0.0,0.0,0.0,0.0,0.0,0.0,0.0,0.0,0.0,0.0,0.0,0.0,0.0,0.0,0.0,0.0,0.0,0.0,0.0,0.0,0.0,0.0,0.0,0.0,0.0,0.0,0.0,0.0,0.0,0.0,0.0,0.0,0.0,0.0,0.0,0.0,0.0,0.0,0.0,0.0,0.0,0.0,0.0,0.0,0.0,0.0,0.0,0.0,2.5383,0.0,2.8191,0.0,2.6153,2.4301,0.0,0.0,0.0,0.0,0.0,0.0,0.0,0.0,0.0,0.0,0.0,0.0,0.0,0.0,0.0,0.0,0.0,0.0,0.0,0.0,0.0,0.0,0.0,0.0,0.0,0.0,0.0,0.0,0.0,0.0,0.0,0.0,0.0,0.0,0.0,0.0,0.0,0.0,0.0,0.0,0.0,0.0,0.0,0.0,0.0,0.0,0.0,0.0,0.0,0.0,0.0,0.0,0.0,0.0,0.0,0.0,0.0,0.0,0.0,0.0,0.0,0.0,0.0,0.0,0.0,0.0,0.0,0.0,0.0,0.0,0.0,0.0,0.0,0.0,0.0,0.0,0.0,0.0,0.0,0.0,0.0,0.0,0.0,0.0,0.0,0.0,0.0,0.0,0.0,0.0,0.0,0.0,0.0,0.0,0.0,0.0,0.0,0.0,0.0,0.0,0.0,0.0,0.0,0.0,0.0,0.0,0.0,0.0,2.5419,2.764,2.9219,2.8943,2.6759,2.5807,2.3473,0.0,0.0,0.0,0.0,0.0,0.0,0.0,0.0,0.0,0.0,0.0,0.0,0.0,0.0,0.0,0.0,0.0,0.0,0.0,0.0,0.0,0.0,0.0,0.0,0.0,0.0,0.0,0.0,0.0,0.0,0.0,0.0,0.0,0.0,0.0,0.0,0.0,0.0,0.0,0.0,0.0,0.0,0.0,0.0,0.0,0.0,0.0,0.0,0.0,0.0,0.0,0.0,0.0,0.0,0.0,0.0,0.0,0.0,0.0,0.0,0.0,0.0,0.0,0.0,0.0,0.0,0.0,0.0,0.0,0.0,0.0,0.0,0.0,0.0,0.0,0.0,0.0,0.0,0.0,0.0,0.0,0.0,0.0,0.0,0.0,0.0,0.0,0.0,0.0,0.0,0.0,0.0,0.0,0.0,0.0,0.0,0.0,0.0,0.0,0.0,0.0,0.0,0.0,0.0,0.0,0.0,0.0,0.0,0.0,2.6229,2.7714,2.8466,2.815,2.5328,2.3419,0.0,0.0,0.0,0.0,0.0,0.0,0.0,0.0,0.0,0.0,0.0,0.0,0.0,0.0,0.0,0.0,0.0,0.0,0.0,0.0,0.0,0.0,0.0,0.0,0.0,0.0,0.0,0.0,0.0,0.0,0.0,0.0,0.0,0.0,0.0,0.0,0.0,0.0,0.0,0.0,0.0,0.0,0.0,0.0,0.0,0.0,0.0,0.0,0.0,0.0,0.0,0.0,0.0,0.0,0.0,0.0,0.0,0.0,0.0,0.0,0.0,0.0,0.0,0.0,0.0,0.0,0.0,0.0,0.0,0.0,0.0,0.0,0.0,0.0,0.0,0.0,0.0,0.0,0.0,0.0,0.0,0.0,0.0,0.0,0.0,0.0,0.0,0.0,0.0,0.0,0.0,0.0,0.0,0.0,0.0,0.0,0.0,0.0,0.0,0.0,0.0,0.0,0.0,0.0,0.0,0.0,0.0,0.0,0.0,2.7368,2.876,2.9531,2.9457,2.6135,2.4171,2.3694,0.0,0.0,0.0,0.0,0.0,0.0,0.0,0.0,0.0,0.0,0.0,0.0,0.0,0.0,0.0,0.0,0.0,0.0,0.0,0.0,0.0,0.0,0.0,0.0,0.0,0.0,0.0,0.0,0.0,0.0,0.0,0.0,0.0,0.0,0.0,0.0,0.0,0.0,0.0,0.0,0.0,0.0,0.0,0.0,0.0,0.0,0.0,0.0,0.0,0.0,0.0,0.0,0.0,0.0,0.0,0.0,0.0,0.0,0.0,0.0,0.0,0.0,0.0,0.0,0.0,0.0,0.0,0.0,0.0,0.0,0.0,0.0,0.0,0.0,0.0,0.0,0.0,0.0,0.0,0.0,0.0,0.0,0.0,0.0,0.0,0.0,0.0,0.0,0.0,0.0,0.0,0.0,0.0,0.0,0.0,0.0,0.0,0.0,0.0,0.0,0.0,0.0,0.0,0.0,0.0,0.0,0.0,0.0,3.0246,3.1935,3.2027,3.0448,2.797,2.5585,0.0,0.0,0.0,0.0,0.0,0.0,0.0,0.0,0.0,0.0,0.0,0.0,0.0,0.0,0.0,0.0,0.0,0.0,0.0,0.0,0.0,0.0,0.0,0.0,0.0,0.0,0.0,0.0,0.0,0.0,0.0,0.0,0.0,0.0,0.0,0.0,0.0,0.0,0.0,0.0,0.0,0.0,0.0,0.0,0.0,0.0,0.0,0.0,0.0,0.0,0.0,0.0,0.0,0.0,0.0,0.0,0.0,0.0,0.0,0.0,0.0,0.0,0.0,0.0,0.0,0.0,0.0,0.0,0.0,0.0,0.0,0.0,0.0,0.0,0.0,0.0,0.0,0.0,0.0,0.0,0.0,0.0,0.0,0.0,0.0,0.0,0.0,0.0,0.0,0.0,0.0,0.0,0.0,0.0,0.0,0.0,0.0,0.0,0.0,0.0,0.0,0.0,0.0,0.0,0.0,0.0,0.0,0.0,0.0,3.1146,3.3862,3.4541,3.2852,2.9365,2.6924,0.0,0.0,0.0,0.0,0.0,0.0,0.0,0.0,0.0,0.0,0.0,0.0,0.0,0.0,0.0,0.0,0.0,0.0,0.0,0.0,0.0,0.0,0.0,0.0,0.0,0.0,0.0,0.0,0.0,0.0,0.0,0.0,0.0,0.0,0.0,0.0,0.0,0.0,0.0,0.0,0.0,0.0,0.0,0.0,0.0,0.0,0.0,0.0,0.0,0.0,0.0,0.0,0.0,0.0,0.0,0.0,0.0,0.0,0.0,0.0,0.0,0.0,0.0,0.0,0.0,0.0,0.0,0.0,0.0,0.0,0.0,0.0,0.0,0.0,0.0,0.0,0.0,0.0,0.0,0.0,0.0,0.0,0.0,0.0,0.0,0.0,0.0,0.0,0.0,0.0,0.0,0.0,0.0,0.0,0.0,0.0,0.0,0.0,0.0,0.0,0.0,0.0,0.0,0.0,0.0,0.0,0.0,0.0,3.1421,3.2908,3.5807,3.6523,3.489,3.1586,2.8796,0.0,0.0,0.0,0.0,0.0,0.0,0.0,0.0,0.0,0.0,0.0,0.0,0.0,0.0,0.0,0.0,0.0,0.0,0.0,0.0,0.0,0.0,0.0,0.0,0.0,0.0,0.0,0.0,0.0,0.0,0.0,0.0,0.0,0.0,0.0,0.0,0.0,0.0,0.0,0.0,0.0,0.0,0.0,0.0,0.0,0.0,0.0,0.0,0.0,0.0,0.0,0.0,0.0,0.0,0.0,0.0,0.0,0.0,0.0,0.0,0.0,0.0,0.0,0.0,0.0,0.0,0.0,0.0,0.0,0.0,0.0,0.0,0.0,0.0,0.0,0.0,0.0,0.0,0.0,0.0,0.0,0.0,0.0,0.0,0.0,0.0,0.0,0.0,0.0,0.0,0.0,0.0,0.0,0.0,0.0,0.0,0.0,0.0,0.0,0.0,0.0,0.0,0.0,0.0,0.0,0.0,0.0,0.0,3.2614,3.4825,3.7386,3.7918,3.6303,3.3899,3.076,0.0,0.0,0.0,0.0,0.0,0.0,0.0,0.0,0.0,0.0,0.0,0.0,0.0,0.0,0.0,0.0,0.0,0.0,0.0,0.0,0.0,0.0,0.0,0.0,0.0,0.0,0.0,0.0,0.0,0.0,0.0,0.0,0.0,0.0,0.0,0.0,0.0,0.0,0.0,0.0,0.0,0.0,0.0,0.0,0.0,0.0,0.0,0.0,0.0,0.0,0.0,0.0,0.0,0.0,0.0,0.0,0.0,0.0,0.0,0.0,0.0,0.0,0.0,0.0,0.0,0.0,0.0,0.0,0.0,0.0,0.0,0.0,0.0,0.0,0.0,0.0,0.0,0.0,0.0,0.0,0.0,0.0,0.0,0.0,0.0,0.0,0.0,0.0,0.0,0.0,0.0,0.0,0.0,0.0,0.0,0.0,0.0,0.0,0.0,0.0,0.0,0.0,0.0,0.0,0.0,0.0,0.0,0.0,3.2908,3.4064,3.711,3.7936,3.6321,3.3899,3.1035,0.0,0.0,0.0,0.0,0.0,0.0,0.0,0.0,0.0,0.0,0.0,0.0,0.0,0.0,0.0,0.0,0.0,0.0,0.0,0.0,0.0,0.0,0.0,0.0,0.0,0.0,0.0,0.0,0.0,0.0,0.0,0.0,0.0,0.0,0.0,0.0,0.0,0.0,0.0,0.0,0.0,0.0,0.0,0.0,0.0,0.0,0.0,0.0,1.8127,0.0,0.0,0.0,0.0,0.0,0.0,0.0,0.0,0.0,0.0,0.0,0.0,0.0,0.0,0.0,0.0,0.0,0.0,0.0,0.0,0.0,0.0,0.0,0.0,0.0,0.0,0.0,0.0,0.0,0.0,0.0,0.0,0.0,0.0,0.0,0.0,0.0,0.0,0.0,0.0,0.0,0.0,0.0,0.0,0.0,0.0,0.0,0.0,0.0,0.0,0.0,0.0,0.0,0.0,0.0,0.0,0.0,0.0,0.0,3.355,3.5495,3.7606,3.7936,3.6321,3.4266,3.1659,0.0,0.0,0.0,0.0,0.0,0.0,0.0,0.0,0.0,0.0,0.0,0.0,0.0,0.0,0.0,0.0,0.0,0.0,0.0,0.0,0.0,0.0,0.0,0.0,0.0,0.0,0.0,0.0,0.0,0.0,0.0,0.0,0.0,0.0,0.0,0.0,0.0,0.0,0.0,0.0,0.0,0.0,0.0,0.0,0.0,0.0,0.0,0.0,0.0,0.0,0.0,0.0,0.0,0.0,0.0,0.0,0.0,0.0,0.0,0.0,0.0,0.0,0.0,0.0,0.0,0.0,0.0,0.0,0.0,0.0,0.0,0.0,0.0,0.0,0.0,0.0,0.0,0.0,0.0,0.0,0.0,0.0,0.0,0.0,0.0,0.0,0.0,0.0,0.0,0.0,0.0,0.0,0.0,0.0,0.0,0.0,0.0,0.0,0.0,0.0,0.0,0.0,0.0,0.0,0.0,0.0,0.0,3.2988,3.4192,3.7349,3.8267,3.7936,3.634,3.4669,3.2302,2.9085,0.0,0.0,0.0,0.0,0.0,0.0,0.0,0.0,0.0,0.0,0.0,0.0,0.0,0.0,0.0,0.0,0.0,0.0,0.0,0.0,0.0,0.0,0.0,0.0,0.0,0.0,0.0,0.0,0.0,0.0,0.0,0.0,0.0,0.0,0.0,0.0,0.0,0.0,1.8702,1.9932,0.0,0.0,0.0,0.0,0.0,0.0,0.0,0.0,1.8455,0.0,0.0,0.0,0.0,0.0,0.0,0.0,0.0,0.0,0.0,0.0,0.0,0.0,0.0,0.0,0.0,0.0,0.0,0.0,0.0,0.0,0.0,0.0,0.0,0.0,0.0,0.0,0.0,0.0,0.0,0.0,0.0,0.0,0.0,0.0,0.0,0.0,0.0,0.0,0.0,0.0,0.0,0.0,0.0,0.0,0.0,0.0,0.0,0.0,0.0,0.0,0.0,0.0,0.0,0.0,0.0,3.3691,3.3011,3.4192,3.7434,3.8285,3.7936,3.6321,3.4688,3.2284,2.9127,0.0,0.0,0.0,0.0,0.0,0.0,0.0,0.0,0.0,0.0,0.0,0.0,0.0,0.0,0.0,0.0,0.0,0.0,0.0,0.0,0.0,0.0,0.0,0.0,0.0,0.0,0.0,0.0,0.0,0.0,0.0,0.0,0.0,0.0,0.0,0.0,0.0,0.0,0.0,2.184,2.2079,0.0,0.0,0.0,0.0,0.0,0.0,0.0,0.0,1.9363,0.0,0.0,0.0,0.0,0.0,0.0,0.0,0.0,0.0,0.0,0.0,0.0,0.0,0.0,0.0,0.0,0.0,0.0,0.0,0.0,0.0,0.0,0.0,0.0,0.0,0.0,0.0,0.0,0.0,0.0,0.0,0.0,0.0,0.0,0.0,0.0,0.0,0.0,0.0,0.0,0.0,0.0,0.0,0.0,0.0,0.0,0.0,0.0,0.0,0.0,0.0,0.0,0.0,0.0,0.0,3.2674,3.3132,3.4596,3.7415,3.8267,3.7936,3.6321,3.4266,3.1861,0.0,0.0,0.0,0.0,0.0,0.0,0.0,0.0,0.0,0.0,0.0,0.0,0.0,0.0,0.0,0.0,0.0,0.0,0.0,0.0,0.0,0.0,0.0,0.0,0.0,0.0,0.0,0.0,0.0,0.0,0.0,0.0,0.0,0.0,0.0,0.0,0.0,0.0,0.0,0.0,2.2758,2.3309,2.4098,0.0,0.0,0.0,0.0,0.0,0.0,2.0403,1.9433,0.0,0.0,0.0,0.0,0.0,0.0,0.0,0.0,0.0,0.0,0.0,0.0,0.0,0.0,0.0,0.0,0.0,0.0,0.0,0.0,0.0,0.0,0.0,0.0,0.0,0.0,0.0,0.0,0.0,0.0,0.0,0.0,0.0,0.0,0.0,0.0,0.0,0.0,0.0,0.0,0.0,0.0,0.0,0.0,0.0,0.0,0.0,0.0,0.0,0.0,0.0,0.0,0.0,0.0,0.0,3.2083,3.3096,3.4835,3.7367,3.812,3.7771,3.6303,3.3899,3.1403,0.0,0.0,0.0,0.0,0.0,0.0,0.0,0.0,0.0,0.0,0.0,0.0,0.0,0.0,0.0,0.0,0.0,0.0,0.0,0.0,0.0,0.0,0.0,0.0,0.0,0.0,0.0,0.0,0.0,0.0,0.0,0.0,0.0,0.0,0.0,0.0,0.0,0.0,0.0,0.0,0.0,2.4428,2.4428,2.3197,0.0,0.0,0.0,0.0,2.2259,2.1133,0.0,0.0,0.0,0.0,0.0,0.0,0.0,0.0,0.0,0.0,0.0,0.0,0.0,0.0,0.0,0.0,0.0,0.0,0.0,0.0,0.0,0.0,0.0,0.0,0.0,0.0,0.0,0.0,0.0,0.0,0.0,0.0,0.0,0.0,0.0,0.0,0.0,0.0,0.0,0.0,0.0,0.0,0.0,0.0,0.0,0.0,0.0,0.0,0.0,0.0,0.0,0.0,0.0,0.0,0.0,0.0,3.1991,3.2562,3.4284,3.7294,3.7569,3.7202,3.6303,3.3899,3.1146,0.0,0.0,0.0,0.0,0.0,0.0,0.0,0.0,0.0,0.0,0.0,0.0,0.0,0.0,0.0,0.0,0.0,0.0,0.0,0.0,0.0,0.0,0.0,0.0,0.0,0.0,0.0,0.0,0.0,0.0,0.0,0.0,0.0,0.0,0.0,0.0,0.0,0.0,0.0,0.0,0.0,2.5274,2.5256,2.4509,2.3923,0.0,0.0,2.3139,2.4732,2.3616,0.0,0.0,0.0,0.0,0.0,0.0,0.0,0.0,0.0,0.0,0.0,0.0,0.0,0.0,0.0,0.0,0.0,0.0,0.0,0.0,0.0,0.0,0.0,0.0,0.0,0.0,0.0,0.0,0.0,0.0,0.0,0.0,0.0,0.0,0.0,0.0,0.0,0.0,0.0,0.0,0.0,0.0,0.0,0.0,0.0,0.0,0.0,0.0,0.0,0.0,0.0,0.0,0.0,0.0,0.0,2.5871,2.9605,3.1769,3.3963,3.6276,3.6813,3.6424,3.5129,3.2587,2.9953,0.0,0.0,0.0,0.0,0.0,0.0,0.0,0.0,0.0,0.0,0.0,0.0,0.0,0.0,0.0,0.0,0.0,0.0,0.0,0.0,0.0,0.0,0.0,0.0,0.0,0.0,0.0,0.0,0.0,0.0,0.0,0.0,0.0,0.0,0.0,0.0,0.0,0.0,0.0,0.0,0.0,0.0,2.5349,2.4805,0.0,0.0,0.0,2.3557,2.4709,0.0,0.0,0.0,0.0,0.0,0.0,0.0,0.0,0.0,0.0,0.0,0.0,0.0,0.0,0.0,0.0,0.0,0.0,0.0,0.0,0.0,0.0,0.0,0.0,0.0,0.0,0.0,0.0,0.0,0.0,0.0,0.0,0.0,0.0,0.0,0.0,0.0,0.0,0.0,0.0,0.0,0.0,0.0,0.0,0.0,0.0,0.0,0.0,0.0,0.0,0.0,0.0,0.0,0.0,0.0,0.0,0.0,2.7787,3.1236,3.3808,3.5448,3.6093,3.5702,3.4237,3.1592,0.0,0.0,0.0,0.0,0.0,0.0,0.0,0.0,0.0,0.0,0.0,0.0,0.0,0.0,0.0,0.0,0.0,0.0,0.0,0.0,0.0,0.0,0.0,0.0,0.0,0.0,0.0,1.0584,0.0,0.0,0.0,0.0,0.0,0.0,0.0,0.0,0.0,0.0,0.0,0.0,0.0,0.0,2.4684,2.5171,2.5035,2.5034,0.0,0.0,2.4024,2.5032,2.4514,2.3397,0.0,0.0,0.0,0.0,0.0,0.0,0.0,0.0,0.0,0.0,0.0,0.0,0.0,0.0,0.0,0.0,0.0,0.0,0.0,0.0,0.0,0.0,0.0,0.0,0.0,0.0,0.0,0.0,0.0,0.0,0.0,0.0,0.0,0.0,0.0,0.0,0.0,0.0,0.0,0.0,0.0,0.0,0.0,0.0,0.0,0.0,0.0,0.0,0.0,0.0,0.0,0.0,0.0,0.0,0.0,2.7769,3.1236,3.379,3.5429,3.5541,3.515,3.42,3.1592,2.8723,0.0,0.0,0.0,0.0,0.0,0.0,0.0,0.0,0.0,0.0,0.0,0.0,0.0,0.0,0.0,0.0,0.0,0.0,0.0,0.0,0.0,0.0,0.0,0.0,0.0,0.0,0.0,0.0,0.0,0.0,0.0,0.0,0.0,0.0,0.0,0.0,0.0,0.0,0.0,0.0,0.0,2.4578,2.4806,2.5449,2.5904,0.0,0.0,2.5242,2.6755,2.6321,2.5216,2.3416,0.0,0.0,0.0,0.0,0.0,0.0,0.0,0.0,0.0,0.0,0.0,0.0,0.0,0.0,0.0,0.0,0.0,0.0,0.0,0.0,0.0,0.0,0.0,0.0,0.0,0.0,0.0,0.0,0.0,0.0,0.0,0.0,0.0,0.0,0.0,0.0,0.0,0.0,0.0,0.0,0.0,0.0,0.0,0.0,0.0,0.0,0.0,0.0,0.0,0.0,0.0,0.0,0.0,2.3513,2.7034,3.0669,3.3308,3.494,3.4996,3.4339,3.3009,3.0691,2.8172,0.0,0.0,0.0,0.0,0.0,0.0,0.0,0.0,0.0,0.0,0.0,0.0,0.0,0.0,0.0,0.0,0.0,0.0,0.0,0.0,0.0,0.0,0.0,0.0,0.0,0.0,0.0,0.0,1.358,1.4142,1.4338,0.0,0.0,0.0,0.0,0.0,0.0,0.0,0.0,0.0,0.0,2.408,2.4608,2.5098,0.0,0.0,2.5171,2.5272,2.5868,2.5677,2.4872,2.3201,2.2184,0.0,0.0,0.0,0.0,0.0,0.0,0.0,0.0,0.0,0.0,0.0,0.0,0.0,0.0,0.0,0.0,0.0,0.0,0.0,0.0,0.0,0.0,0.0,0.0,0.0,0.0,0.0,0.0,0.0,0.0,0.0,0.0,0.0,0.0,0.0,0.0,0.0,0.0,0.0,0.0,0.0,0.0,0.0,0.0,0.0,0.0,0.0,0.0,0.0,0.0,0.0,0.0,2.2872,2.6209,3.0092,3.2786,3.4175,3.4175,3.3518,3.209,2.9906,2.7601,0.0,0.0,0.0,0.0,0.0,0.0,0.0,0.0,0.0,0.0,0.0,0.0,0.0,0.0,0.0,0.0,0.0,0.0,0.0,0.0,0.0,0.0,0.0,0.0,0.0,0.0,0.0,0.0,1.4363,1.4738,1.4359,0.0,0.0,0.0,0.0,0.0,0.0,0.0,0.0,0.0,0.0,2.3712,2.4603,2.4998,2.5148,2.5023,2.5158,2.535,2.5572,2.5569,2.5081,2.3639,0.0,0.0,0.0,0.0,0.0,0.0,0.0,0.0,0.0,0.0,0.0,0.0,0.0,0.0,0.0,0.0,0.0,0.0,0.0,0.0,0.0,0.0,0.0,0.0,0.0,0.0,0.0,0.0,0.0,0.0,1.3684,0.0,0.0,0.0,0.0,0.0,0.0,0.0,0.0,0.0,0.0,0.0,0.0,0.0,0.0,0.0,0.0,0.0,0.0,0.0,0.0,0.0,0.0,2.2618,2.5439,2.9628,3.2213,3.2993,3.3049,3.2639,3.1766,2.9411,2.6953,2.4462,0.0,0.0,0.0,0.0,0.0,0.0,0.0,0.0,0.0,0.0,0.0,0.0,0.0,0.0,0.0,0.0,0.0,0.0,0.0,0.0,0.0,0.0,0.0,0.0,0.0,0.0,1.4288,1.4024,1.3648,0.0,0.0,0.0,0.0,0.0,0.0,0.0,0.0,0.0,0.0,2.2467,2.3585,2.4784,2.5197,2.5342,2.5289,2.5351,2.5655,2.6387,2.6522,2.6226,0.0,0.0,0.0,0.0,0.0,0.0,0.0,0.0,0.0,0.0,0.0,0.0,0.0,0.0,0.0,0.0,0.0,0.0,0.0,0.0,0.0,0.0,0.0,0.0,0.0,0.0,0.0,1.8701,1.7794,0.0,0.0,0.0,0.0,0.0,0.0,0.0,0.0,0.0,0.0,0.0,2.1731,2.1748,0.0,0.0,0.0,0.0,0.0,0.0,0.0,0.0,0.0,0.0,0.0,0.0,2.2689,2.567,2.9177,3.1411,3.2173,3.2191,3.1818,3.1019,2.9133,2.6244,2.2337,0.0,0.0,0.0,0.0,0.0,0.0,0.0,0.0,0.0,0.0,0.0,0.0,0.0,0.0,0.0,0.0,0.0,0.0,0.0,0.0,0.0,0.0,0.0,0.0,0.0,1.5759,0.0,0.0,0.0,0.0,0.0,0.0,0.0,0.0,0.0,0.0,0.0,1.9784,2.1022,2.265,2.3901,2.4511,2.4995,2.524,0.0,0.0,0.0,0.0,0.0,0.0,0.0,0.0,0.0,0.0,0.0,0.0,0.0,0.0,2.0127,1.8482,1.7526,1.6925,1.6756,0.0,0.0,0.0,0.0,0.0,0.0,0.0,0.0,0.0,0.0,0.0,0.0,0.0,0.0,2.0534,0.0,1.9299,0.0,0.0,0.0,0.0,0.0,0.0,0.0,0.0,2.2988,2.3533,2.2997,2.2997,2.2536,0.0,2.0462,1.8929,0.0,0.0,0.0,0.0,0.0,0.0,0.0,0.0,2.2744,2.5516,2.8631,3.0508,3.1006,3.1172,3.0976,3.0442,2.8425,2.5702,2.2243,2.151,2.0619,0.0,0.0,0.0,0.0,0.0,0.0,0.0,0.0,0.0,0.0,0.0,0.0,0.0,0.0,0.0,0.0,0.0,0.0,0.0,0.0,0.0,0.0,0.0,1.5772,0.0,0.0,0.0,0.0,0.0,0.0,0.0,0.0,0.0,1.6041,1.784,1.9525,2.0732,2.2195,2.3383,2.395,0.0,0.0,0.0,0.0,0.0,0.0,0.0,2.3424,2.2481,2.2008,2.1353,2.0047,2.0205,2.0308,1.9666,0.0,0.0,1.9577,1.8962,1.85,1.8663,1.9231,1.9753,1.9881,2.0576,2.1185,0.0,0.0,0.0,0.0,0.0,0.0,0.0,0.0,2.2502,2.2496,0.0,2.1667,0.0,0.0,0.0,0.0,0.0,0.0,0.0,0.0,2.5364,2.5596,2.3802,2.3719,2.2929,2.154,2.2036,2.1421,1.9713,1.8141,0.0,0.0,0.0,0.0,0.0,0.0,2.2755,2.508,2.8021,2.9521,2.9565,2.9929,3.0118,3.0018,2.7382,2.5348,2.4091,2.2354,2.1387,2.134,1.7981,0.0,0.0,0.0,0.0,0.0,0.0,0.0,0.0,0.0,0.0,0.0,0.0,0.0,0.0,0.0,0.0,0.0,0.0,0.0,0.0,1.5277,0.0,0.0,0.0,0.0,0.0,0.0,0.0,0.0,0.0,0.0,1.6804,1.7285,1.8262,2.0321,0.0,0.0,0.0,0.0,2.5054,2.5898,2.5486,2.4797,2.4109,2.358,2.2878,2.1832,0.0,0.0,1.8923,1.9244,1.9236,1.7922,1.7682,1.8397,2.0327,2.0305,2.0317,2.0643,2.1036,2.159,2.1919,2.2359,2.3046,2.7588,0.0,0.0,0.0,0.0,2.5118,2.5558,2.6251,2.6218,2.561,2.4644,2.4441,0.0,0.0,0.0,0.0,0.0,0.0,2.1708,2.4213,2.518,2.5127,2.4232,2.4178,2.3529,2.2338,2.2033,2.1628,2.1111,2.052,1.9002,1.6763,0.0,0.0,0.0,0.0,2.2268,2.601,2.7285,2.8059,2.8574,2.8809,2.8644,2.8083,2.6686,2.5375,2.4139,2.3573,2.2681,2.1368,1.969,0.0,0.0,0.0,0.0,0.0,0.0,0.0,0.0,0.0,0.0,0.0,0.0,0.0,0.0,0.0,0.0,0.0,0.0,0.0,1.5599,1.6114,1.6316,0.0,0.0,0.0,0.0,0.0,0.0,0.0,0.0,0.0,1.57,1.6936,1.7953,0.0,0.0,2.0336,2.1984,2.3328,2.4651,2.6026,0.0,0.0,0.0,2.0512,1.9183,1.9335,1.7826,1.6032,1.4424,1.4293,1.4425,1.4446,1.4525,1.5077,1.6589,1.7759,1.8616,1.9542,2.0348,2.1016,2.151,2.2251,2.2823,3.1275,2.9228,2.7757,2.7148,2.7131,2.7148,2.7588,2.8281,2.8281,2.7943,2.735,2.684,2.5698,2.4143,2.3056,0.0,0.0,0.0,2.2765,2.4506,2.4567,2.4515,2.4415,2.4405,2.3649,2.2331,2.1872,2.1566,2.1338,2.1212,2.0269,1.8589,0.0,0.0,1.7868,1.8861,2.1622,2.59,2.6642,2.7158,2.7592,2.7835,2.7556,2.673,2.6247,2.5541,2.462,2.3938,2.2958,2.1627,2.0484,1.9054,0.0,0.0,0.0,0.0,0.0,0.0,0.0,0.0,0.0,0.0,0.0,1.1744,1.0575,0.0,0.0,0.0,1.4214,1.584,1.7384,1.7887,0.0,0.0,0.0,0.0,0.0,0.0,0.0,1.6259,1.5346,1.481,1.5391,1.5617,1.5976,1.6566,1.6994,1.7904,1.9816,0.0,2.2923,2.5001,2.3707,2.2524,2.2471,1.8186,1.4348,1.2798,1.1622,1.0664,1.0084,1.0184,1.0538,1.083,1.1183,1.1877,1.324,1.4439,1.6046,1.8224,1.928,1.992,2.0493,2.1014,2.1385,3.4047,3.3102,2.9635,2.8138,2.8091,2.8144,2.8516,2.909,2.9107,2.9479,2.9909,2.8688,2.7744,2.6939,2.4482,0.0,0.0,2.4154,2.4377,2.4169,2.3809,2.3873,2.4333,2.4307,2.3404,2.1697,2.1697,2.1376,2.0818,2.0826,2.0771,2.0711,2.1151,2.1272,2.0921,1.9786,2.1135,2.5003,2.5992,2.6506,2.6639,2.6904,2.6695,2.5943,2.5906,2.5682,2.5197,2.3735,2.2677,2.2169,2.0745,1.9828,1.9538,0.0,0.0,0.0,0.0,0.0,0.0,0.0,0.0,0.0,0.0,0.0,0.0,0.0,0.0,0.0,1.7477,0.0,1.9578,1.9954,0.0,0.0,0.0,1.662,1.7055,1.6709,1.6703,1.7269,0.0,0.0,1.5764,0.0,1.313,1.4462,1.4339,1.4887,1.6913,1.8622,2.0525,2.3025,2.1731,2.1026,2.1427,1.485,0.7888,0.4157,0.3725,0.4421,0.53,0.6417,0.698,0.7078,0.7741,0.8888,1.0295,1.1193,1.2698,1.6462,1.7751,1.8438,1.9067,1.9271,1.9337,3.4167,3.3346,3.1971,3.1083,3.0593,3.1032,3.0751,3.0021,3.0004,2.9788,2.9367,2.8598,2.7837,2.7121,2.6502,2.6197,2.6165,2.514,2.4813,2.501,2.4045,2.3662,2.3779,2.3794,2.3054,2.1744,2.1697,2.1376,2.0845,2.0811,2.0806,2.0854,2.2279,2.1709,1.9248,2.1296,2.2943,2.3946,2.421,2.4912,2.6038,2.5963,2.5628,2.5013,2.5039,2.4892,2.4466,2.4081,2.3802,2.3648,2.1989,2.0604,1.9638,1.7145,0.0,0.0,0.0,0.0,0.0,0.0,0.0,0.0,0.0,1.489,1.2258,0.0,1.6526,0.0,1.8155,1.8939,1.8798,1.9068,0.0,0.0,1.9345,1.9147,2.0299,1.8912,1.8298,1.933,1.8072,1.6824,1.6069,1.4212,1.2799,1.2485,1.1564,1.184,1.4234,1.7421,1.9611,2.0378,2.2211,2.1353,1.4134,0.5397,-0.1074,-0.2673,-0.3273,-0.293,-0.0889,0.0565,0.2022,0.3705,0.4868,0.6342,0.8697,0.9349,1.0277,1.2683,1.4786,1.651,1.7518,1.7731,1.7863,3.3909,3.3519,3.3157,3.2255,3.105,3.1347,3.0865,2.9908,2.9892,2.9664,2.9231,2.8331,2.7556,2.69,2.6605,2.6466,2.6388,2.5346,2.4897,2.4981,2.4043,2.3613,2.3595,2.3595,2.2935,2.1697,2.1697,2.1232,2.0383,2.0646,2.0833,2.0847,2.2094,2.1805,2.0016,2.1255,2.2479,2.3593,2.3427,2.4107,2.5623,2.5235,2.4901,2.4757,2.4783,2.4772,2.4687,2.4369,2.3918,2.3274,2.2417,2.128,1.9895,1.8388,1.7015,0.0,0.0,0.0,0.0,0.0,0.0,0.0,0.0,0.0,0.0,0.0,1.7477,0.0,1.9264,2.0125,2.0156,2.0838,2.1387,2.158,2.09,2.0711,2.1446,2.0414,1.9935,2.0684,1.9801,1.8787,1.7857,1.5923,1.4164,1.2976,1.1722,1.1477,1.3223,1.6026,1.814,1.8811,2.017,1.7248,0.6147,-0.239,-0.787,-0.8421,-0.863,-0.7903,-0.5766,-0.3861,-0.1801,0.099,0.3119,0.4941,0.6538,0.7664,0.8717,1.014,1.1999,1.3843,1.5325,1.6013,1.6435,3.3495,3.3495,3.3375,3.2222,3.0463,3.0383,2.991,2.9271,2.9164,2.9057,2.8825,2.772,2.6922,2.6416,2.5916,2.5711,2.5682,2.5272,2.4927,2.4672,2.3954,2.3595,2.3595,2.3595,2.2935,2.1697,2.1697,2.1086,1.994,2.051,2.0858,2.0944,2.1251,2.1518,2.1669,2.0733,2.1437,2.3763,2.3403,2.39,2.5358,2.468,2.4386,2.4588,2.4733,2.4911,2.5081,2.4639,2.3793,2.2611,2.2711,2.2095,2.0518,2.0058,1.9098,0.0,1.6709,0.0,0.0,0.0,0.0,0.0,0.0,0.0,0.0,1.8,1.848,1.8896,2.0699,2.1953,2.2218,2.3405,2.378,2.2772,2.2202,2.1871,2.1815,2.1644,2.1563,2.168,2.1735,2.1266,1.9783,1.793,1.6139,1.474,1.3412,1.304,1.3882,1.5654,1.7194,1.7922,1.6118,1.0766,0.0499,-0.6959,-1.1138,-1.205,-1.1722,-1.0909,-0.8898,-0.6527,-0.3931,-0.0841,0.2347,0.4522,0.4604,0.6157,0.7494,0.8351,0.974,1.1342,1.3052,1.4137,1.4729,3.2788,3.2734,3.216,3.1082,2.9818,2.9735,2.9322,2.8638,2.8033,2.7157,2.6144,2.5898,2.5748,2.564,2.6141,2.6307,2.6286,2.5734,2.545,2.539,2.4163,2.3595,2.3595,2.3595,2.2935,2.1744,2.1697,2.1342,2.0597,2.0746,2.1028,2.1506,2.0596,2.0643,2.1669,0.0,0.0,0.0,2.4428,2.4426,2.4821,2.448,2.406,2.3545,2.4343,0.0,2.4217,2.4851,2.512,2.4774,2.4263,0.0,0.0,0.0,0.0,0.0,0.0,0.0,0.0,0.0,0.0,0.0,1.8403,1.785,1.691,1.9601,2.1247,2.0906,2.2508,2.3324,2.2604,2.3088,2.3364,2.3073,2.3279,2.3437,2.3369,2.3215,2.3041,2.2737,2.2036,2.0988,1.9535,1.8132,1.6995,1.6172,1.5022,1.5233,1.7555,1.8083,1.7817,1.6194,1.1992,0.5608,-0.0941,-0.5146,-0.8144,-1.0294,-1.1211,-1.0472,-0.8645,-0.566,-0.2898,-0.0494,0.2297,0.4734,0.5207,0.5635,0.6223,0.6853,0.8435,1.0174,1.1715,1.2248,1.2567,3.2064,0.0,3.1321,3.0208,0.0,2.8704,2.7983,2.696,2.696,2.6385,2.5398,2.5398,2.5398,2.5467,2.6176,2.6337,2.5977,2.5697,2.5435,2.5076,2.4073,2.3595,2.3595,2.3595,2.3128,2.2193,2.2207,2.1866,2.1245,2.1259,2.139,2.1697,2.105,2.1205,2.2193,2.3496,2.4491,2.5203,2.5053,2.5023,2.507,2.4375,2.3958,2.3849,0.0,0.0,0.0,0.0,0.0,0.0,0.0,0.0,0.0,0.0,0.0,1.8937,1.8505,1.8298,1.8362,1.8143,1.8572,1.9838,2.0186,1.9983,1.9107,2.1054,2.2208,2.2005,2.3276,2.3861,2.3305,2.3796,2.4125,2.3961,2.3983,2.3897,2.3562,2.3143,2.2578,2.1862,2.0923,1.9871,1.874,1.7435,1.6435,1.5868,1.5489,1.5941,1.8113,1.9125,1.9011,1.7962,1.3431,0.8435,0.4752,0.1556,-0.1502,-0.3806,-0.5246,-0.562,-0.5227,-0.3299,-0.1166,0.0855,0.3746,0.5939,0.5695,0.5857,0.606,0.6173,0.709,0.8321,0.9526,1.0707,1.1713,3.1467,3.1465,3.0791,2.9699,2.8352,2.7761,2.6635,2.5231,0.0,0.0,0.0,2.5007,2.5007,2.5077,2.5892,2.5983,2.5492,2.556,2.5315,2.4716,2.3969,2.3595,2.3595,2.3595,2.329,2.2709,2.2709,2.2406,2.1899,2.1899,2.1979,2.2151,2.2225,2.2457,2.2908,2.4184,2.495,2.5078,2.5246,2.5298,2.5244,2.428,2.3964,2.4495,2.4024,2.384,2.3995,2.3438,2.2813,2.2183,2.2062,2.1589,2.0704,2.0614,2.0534,2.0331,2.0323,2.0388,2.0531,2.0363,2.05,2.1069,2.168,2.1974,2.1832,2.2262,2.2652,2.2849,2.3765,2.4274,2.407,2.4656,2.4966,2.4677,2.4096,2.3496,2.2882,2.1931,2.0889,1.9977,1.9208,1.8494,1.751,1.5489,1.4571,1.4635,1.4593,1.5714,1.744,1.9056,2.0099,1.9796,1.6513,1.357,1.1394,0.8713,0.6342,0.3445,0.1644,0.0456,0.006,0.0545,0.1872,0.3732,0.5918,0.6558,0.6239,0.6289,0.6385,0.5828,0.6308,0.6928,0.7572,0.9449,1.0915,3.1467,3.148,3.0791,2.9699,2.8338,2.7761,2.6357,2.4523,2.4567,2.4176,2.3424,2.3424,2.3424,2.3531,2.4894,2.5508,2.5409,2.5555,2.5555,0.0,2.4178,2.3595,2.3595,2.3595,2.329,2.2754,2.2709,2.2663,2.2558,2.2543,2.3054,2.3918,2.4177,2.401,2.3623,2.4858,2.5252,2.4599,2.4561,2.4545,2.4459,2.4136,2.4137,2.4476,2.469,2.4815,2.482,2.4283,2.3936,2.3773,2.3642,2.2955,2.162,2.168,2.1419,2.0493,2.0377,2.0709,2.1436,2.1323,2.176,2.2954,2.3243,2.2983,2.2238,2.304,2.3681,2.39,2.4668,2.5183,2.5098,2.5051,2.4726,2.4012,2.2958,2.1976,2.1128,1.9489,1.8026,1.7002,1.7459,1.7007,1.5004,1.1504,1.0187,1.2881,1.2316,1.2626,1.6027,1.8782,2.0159,2.0192,1.8251,1.6214,1.5158,1.292,1.119,0.9507,0.6749,0.4874,0.4373,0.6041,0.7554,0.836,0.7621,0.6851,0.6572,0.6553,0.6539,0.6421,0.6907,0.7344,0.7239,0.8564,0.9618,3.1258,3.0896,3.0268,2.8961,2.7216,2.5748,2.4575,2.359,2.3148,2.304,2.3078,2.2641,2.2689,2.3245,2.4711,2.5218,2.4886,2.5374,2.542,2.5016,2.4059,2.3595,2.3595,2.3595,2.3465,2.3187,2.3187,2.3348,2.3593,2.3621,2.4044,2.4776,2.4918,2.5073,2.5297,2.5403,2.533,2.5048,2.4837,2.459,2.43,2.4269,2.4336,2.4495,2.442,2.4331,2.4331,2.3784,2.3284,2.2824,2.2726,2.221,2.1138,2.1111,2.0901,2.0422,2.037,2.0744,2.1655,2.2404,2.314,2.3868,2.4234,2.4281,2.3969,2.4312,2.4613,2.4801,2.5195,2.5269,2.4941,2.4414,2.364,2.2646,2.1039,1.9448,1.8059,1.6368,1.4955,1.4063,1.2467,1.0478,0.7844,0.5349,0.4431,0.6817,0.7672,1.0212,1.3709,1.569,1.7797,1.9927,1.9797,1.9795,2.0038,1.9844,1.8508,1.6978,1.4429,1.1964,1.0282,1.0612,1.0279,0.9649,0.8777,0.8086,0.7406,0.7191,0.702,0.6696,0.6804,0.7116,0.7577,0.8602,0.9445,3.1135,3.0447,2.9834,2.8283,2.6018,2.3948,2.3125,2.3005,2.2261,2.2384,2.2944,2.2261,2.2261,2.2932,2.4425,2.4778,2.431,2.4968,2.4993,2.4401,2.3865,2.3595,2.3595,2.3595,2.3595,2.3595,2.3595,2.3879,2.4364,2.4405,2.4736,2.5319,2.548,2.5944,2.6671,2.5862,2.5373,2.5216,2.5051,2.4693,2.4182,2.4431,2.4559,2.4554,2.4283,2.4129,2.4102,2.3516,2.2994,2.2589,2.2114,2.1591,2.1134,2.1108,2.1072,2.0998,2.0935,2.1289,2.2206,2.3524,2.4361,2.4509,2.4865,2.5148,2.5208,2.5123,2.5102,2.5197,2.5154,2.4868,2.4118,2.3286,2.2184,2.0686,1.8572,1.6592,1.4869,1.3082,1.1551,1.0431,0.7209,0.3669,0.073,-0.0681,-0.0467,0.0922,0.3977,0.7663,1.0166,1.1978,1.4773,1.7769,1.9943,2.1393,2.3474,2.4231,2.3773,2.2664,2.0589,1.7774,1.5195,1.3383,1.1739,1.0415,0.9792,0.9189,0.8224,0.7972,0.7729,0.7348,0.7399,0.7648,0.8492,0.8847,0.9411,3.112,3.0447,2.9804,2.8035,2.5424,2.378,2.3125,2.3005,2.2249,2.2322,2.2884,2.2261,2.1939,2.2249,2.3741,2.412,2.3632,2.4301,2.4298,2.3865,2.3674,2.3595,2.3595,2.3595,2.3595,2.3595,2.3595,2.3921,2.443,2.4471,2.4934,2.5892,2.6336,2.659,2.665,2.6156,2.5355,2.4366,2.4646,2.4464,2.3837,2.4424,2.4775,2.4775,2.5027,2.5168,2.5091,2.4476,2.4447,2.4997,2.3283,2.2433,2.2802,2.3283,2.3309,2.2744,2.2721,2.3095,2.3816,2.474,2.5194,2.52,2.5097,2.5001,2.4791,2.4638,2.4567,2.4554,2.4509,2.3913,2.2739,2.1868,2.0423,1.8152,1.5698,1.3463,1.2014,1.0233,0.808,0.5265,0.2654,-0.0334,-0.2657,-0.4285,-0.4408,-0.2212,0.1435,0.464,0.6634,0.9029,1.1409,1.382,1.6675,2.0013,2.2222,2.3692,2.3805,2.3962,2.2586,2.0104,1.7804,1.5477,1.3402,1.1387,1.0325,0.952,0.893,0.8699,0.8612,0.8476,0.8574,0.9084,0.9577,0.9094,0.8655,3.0537,2.9909,2.9265,2.7617,2.5342,2.3754,2.3125,2.3005,2.2249,2.1815,2.1616,2.1302,2.169,2.2689,2.3813,2.3962,2.3466,2.3799,2.3858,2.3663,2.3271,2.3231,2.3551,2.3595,2.3595,2.3638,2.3921,2.4348,2.4894,2.547,2.6125,2.6673,2.6708,2.6987,2.7461,2.6739,2.5933,2.5169,2.4693,2.4348,2.4248,2.4588,2.4804,2.4832,2.5126,2.5313,2.5293,2.5053,2.491,2.4759,2.3952,2.3397,2.3112,2.3285,2.3188,2.2819,2.3155,2.3492,2.3832,2.4649,2.5103,2.508,2.4822,2.4657,2.4501,2.3939,2.3386,2.2941,2.3086,2.2661,2.1139,1.9937,1.8238,1.5818,1.3408,1.1434,0.9986,0.7332,0.4532,0.1858,-0.069,-0.308,-0.5128,-0.6182,-0.625,-0.4857,-0.1588,0.2242,0.4954,0.7066,0.8972,1.1135,1.3401,1.6058,1.9271,2.0705,2.1415,2.179,2.1156,1.9669,1.8096,1.6014,1.3662,1.2059,1.0643,0.9537,0.8917,0.8521,0.8385,0.8692,0.9416,0.9787,1.008,0.9413,0.8845,3.0298,2.9451,2.8281,2.6697,2.5007,2.3695,2.3125,2.3017,2.2445,2.1753,2.0974,2.0974,2.1491,2.2408,2.3115,2.3058,2.2605,2.2871,2.3095,2.3136,2.2804,2.3009,2.3551,2.3595,2.3681,2.3879,2.4199,2.4752,2.5465,2.6399,2.694,2.7103,2.7065,2.7397,2.794,2.7114,2.6336,2.5746,2.473,2.4303,2.4495,2.47,2.4799,2.4883,2.5149,2.5313,2.5351,2.5447,2.5252,2.4639,2.4706,2.4451,2.3813,2.364,2.3484,2.3284,2.3651,2.3947,2.4025,2.4544,2.4826,2.4705,2.4463,2.4145,2.3806,2.3125,2.2203,2.1218,2.1177,2.0556,1.9375,1.7762,1.584,1.3531,1.1455,0.9724,0.8105,0.4739,0.166,-0.0543,-0.2881,-0.503,-0.6412,-0.6762,-0.6802,-0.6366,-0.3377,0.0924,0.4394,0.6063,0.7149,0.9082,1.0095,1.2458,1.6285,1.7984,1.8549,1.8958,1.8781,1.7871,1.6708,1.4712,1.2825,1.0781,0.9874,0.9051,0.8196,0.783,0.7801,0.8525,0.9085,0.9395,0.9308,0.8948,0.8361,3.0746,2.9268,2.6676,2.516,2.4279,2.3484,2.3125,2.3078,2.3017,2.2567,2.1815,2.1753,2.1365,2.0737,2.1014,2.0878,2.0595,2.1347,2.177,2.193,2.2434,2.3009,2.3551,2.3595,2.3837,2.4241,2.4389,2.4989,2.5941,2.6808,2.7058,2.6795,2.7423,2.7843,2.7864,2.7068,2.6329,2.5832,2.4794,2.4303,2.4512,2.4716,2.4883,2.5018,2.5192,2.537,2.5466,2.5495,2.5505,2.5611,2.5583,2.5514,2.5337,2.5071,2.4809,2.4648,2.4657,2.4695,2.4666,2.4674,2.461,2.4335,2.4042,2.3562,2.2735,2.2233,2.1294,1.9847,1.8746,1.7849,1.709,1.5545,1.3609,1.1464,0.9814,0.8205,0.6465,0.2712,-0.0298,-0.1954,-0.4329,-0.5964,-0.6253,-0.6737,-0.6346,-0.5512,-0.3738,-0.0713,0.3593,0.5137,0.6063,0.6876,0.8032,0.9799,1.3996,1.5148,1.6032,1.6364,1.5796,1.5426,1.4136,1.2724,1.0957,0.9555,0.8685,0.7952,0.7265,0.7057,0.7161,0.7566,0.7843,0.8095,0.8604,0.7516,0.7099,2.9218,2.7496,2.6034,2.4964,2.4234,2.3424,2.3125,2.3125,2.3125,2.231,2.1227,2.1037,2.0268,1.8936,1.8932,1.9388,2.0179,2.0294,2.0785,2.1643,2.1946,2.2606,2.3551,2.3595,2.3681,2.3964,2.4576,2.5433,2.64,2.7013,2.7272,2.728,2.7672,2.8134,2.8306,2.7281,2.6565,2.6392,2.5134,2.4543,2.479,2.4885,2.5018,2.5192,2.5264,2.5351,2.5428,2.5472,2.5526,2.563,2.5693,2.5649,2.5481,2.5111,2.4808,2.4607,2.4301,2.4081,2.4062,2.389,2.3728,2.3566,2.3066,2.2685,2.211,2.1166,1.994,1.8507,1.6697,1.5477,1.4565,1.3456,1.1959,1.0221,0.8872,0.735,0.5047,0.1961,-0.1129,-0.3526,-0.5145,-0.5769,-0.6237,-0.6161,-0.5267,-0.3926,-0.3119,-0.1256,0.1332,0.3744,0.5365,0.5903,0.663,0.7892,0.987,1.1142,1.1842,1.2329,1.2291,1.22,1.1344,1.0593,0.9092,0.8747,0.785,0.7104,0.6611,0.6214,0.6384,0.64,0.6715,0.7378,0.7947,0.703,0.6694,2.8341,2.6517,2.599,2.4993,2.393,2.3603,2.3305,2.3125,2.3065,2.2175,2.0846,2.059,1.9553,1.7962,1.7533,1.8062,1.9193,1.9277,1.9942,2.1024,2.1493,2.2271,2.3172,2.3508,2.3681,2.4006,2.495,2.5908,2.6674,2.7233,2.7538,2.7646,2.8031,2.8481,2.8677,2.7521,2.6856,2.6619,2.5402,2.4723,2.4974,2.4991,2.5118,2.5283,2.5332,2.5351,2.5428,2.5488,2.5554,2.5617,2.5652,2.5514,2.5206,2.4929,2.4685,2.4392,2.3961,2.371,2.3671,2.3392,2.3097,2.2854,2.2389,2.1953,2.1316,2.0233,1.8964,1.7384,1.5684,1.4046,1.267,1.1436,1.0361,0.9428,0.8371,0.6885,0.4784,0.0829,-0.2544,-0.4635,-0.5148,-0.5531,-0.6009,-0.5559,-0.4537,-0.2928,-0.2262,-0.1259,0.0134,0.1877,0.4306,0.5169,0.5852,0.6461,0.747,0.8205,0.9107,0.9572,0.9879,0.9547,0.9187,0.8448,0.7935,0.7709,0.7224,0.6531,0.5964,0.5549,0.5396,0.5245,0.5855,0.6567,0.6728,0.6588,0.631,2.8272,2.6385,2.6432,2.5161,2.3543,2.3943,2.3826,2.3245,2.3138,2.2175,2.0846,2.0719,1.9652,1.782,1.7252,1.7062,1.7648,1.8324,1.9121,1.9965,2.1059,2.2007,2.2799,2.3275,2.3879,2.443,2.5449,2.6191,2.6725,2.7436,2.7861,2.8014,2.8565,2.8934,2.8998,2.7783,2.7047,2.6691,2.5528,2.4888,2.4967,2.5041,2.5168,2.537,2.5409,2.5447,2.5486,2.5563,2.5609,2.5665,2.5634,2.5282,2.4822,2.4747,2.4623,2.4247,2.3896,2.371,2.3649,2.3323,2.2799,2.2299,2.2072,2.1356,2.0173,1.9546,1.8536,1.6715,1.508,1.3549,1.1569,0.9586,0.8634,0.9169,0.7724,0.6145,0.4185,-0.0868,-0.5329,-0.5286,-0.5226,-0.5203,-0.5319,-0.529,-0.4607,-0.3232,-0.1518,-0.0,-0.0,-0.0,-0.0,0.4038,0.4986,0.5122,0.5322,0.5572,0.6488,0.7322,0.7611,0.7606,0.7429,0.6875,0.6679,0.6428,0.5406,0.47,0.3403,0.3065,0.3551,0.3742,0.4686,0.5627,0.5892,0.5885,0.5752,2.6918,2.5135,2.555,2.5063,2.4002,2.4176,2.4118,2.3884,2.3365,2.2494,2.1616,2.1491,2.0574,1.9081,1.8072,1.7743,1.7969,1.8035,1.8596,1.9684,2.0657,2.1643,2.2558,2.2889,2.3679,2.4816,2.5259,2.5908,2.6725,2.7521,2.7895,2.8032,2.8651,2.9144,2.9323,2.7584,2.6709,2.7078,2.5792,2.5107,2.525,2.531,2.5388,2.5457,2.5505,2.5563,2.5563,2.5582,2.5601,2.5631,2.5653,2.5376,2.4879,2.4766,2.4607,2.4209,2.3671,2.3369,2.33,2.2883,2.2373,2.1851,2.1512,2.0797,1.9649,1.8563,1.7384,1.5758,1.3906,1.2182,1.1303,0.9054,0.7694,0.7565,0.5531,0.4177,0.3351,0.0402,-0.2589,-0.4922,-0.5328,-0.526,-0.508,-0.4931,-0.4733,-0.427,-0.0,-0.0,-0.0,-0.0,-0.0,0.1547,0.2423,0.3569,0.3629,0.4428,0.5832,0.6338,0.6382,0.6442,0.6154,0.597,0.5754,0.5125,0.4062,0.2729,0.1384,-0.0,-0.0,-0.0,0.3411,0.4287,0.51,0.5369,0.5369,2.6007,2.4421,2.5077,2.4781,2.3943,2.4176,2.4118,2.3826,2.3318,2.2628,2.2013,2.1889,2.1074,1.9817,1.8801,1.8408,1.8351,1.81,1.8484,1.9443,2.0408,2.1272,2.2035,2.2512,2.3578,2.4934,2.5221,2.5709,2.6708,2.7465,2.7944,2.8124,2.8687,2.9189,2.9394,2.7531,2.6749,2.721,2.6009,2.529,2.5412,2.5484,2.552,2.5544,2.5563,2.5599,2.5597,2.5598,2.5599,2.558,2.5596,2.5322,2.4861,2.479,2.4607,2.4191,2.3628,2.3189,2.3141,2.266,2.2034,2.1453,2.0972,2.0073,1.8854,1.7518,1.6368,1.4831,1.312,1.1722,1.0956,0.9252,0.7578,0.6746,0.5071,0.3149,0.2078,0.0736,-0.0666,-0.2821,-0.3831,-0.4153,-0.4113,-0.4484,-0.473,-0.4764,-0.0,-0.0,-0.0,-0.0,-0.0,-0.0,0.0944,0.1682,0.1879,0.3278,0.5147,0.5522,0.5636,0.5614,0.5456,0.5546,0.5473,0.4582,0.3544,0.1768,-0.0,-0.0,-0.0,-0.0,-0.0,0.3147,0.409,0.5176,0.5379,2.5453,2.4363,2.5007,2.4496,2.3424,2.3989,2.3943,2.3318,2.3138,2.275,2.2249,2.2237,2.1556,2.0346,1.9887,1.939,1.8811,1.872,1.8766,1.9253,2.0066,2.0845,2.1259,2.2221,2.3563,2.4973,2.5221,2.5746,2.6708,2.7422,2.7994,2.8195,2.8648,2.9175,2.9134,2.7601,2.6978,2.7352,2.617,2.5445,2.5493,2.5498,2.5549,2.5614,2.5619,2.5622,2.5609,2.5577,2.5578,2.5563,2.5467,2.522,2.4869,2.4804,2.4607,2.4228,2.3584,2.3259,2.3087,2.2537,2.189,2.1108,2.0462,1.934,1.7712,1.6796,1.5628,1.4018,1.2698,1.1637,1.0576,0.9366,0.8188,0.7001,0.5752,0.3885,0.1004,0.0401,-0.0,-0.0,-0.1569,-0.2533,-0.2518,-0.3338,-0.4032,-0.3949,-0.0,-0.0,-0.0,-0.0,-0.0,-0.0,-0.0,-0.0,-0.0,0.1675,0.3609,0.5229,0.515,0.4823,0.5029,0.5311,0.5369,0.4469,0.3319,0.1393,-0.0,-0.0,-0.0,-0.0,-0.0,-0.0,0.2948,0.3892,0.4637,2.4308,2.3543,2.4279,2.4337,2.4002,2.4221,2.4189,2.3884,2.3305,2.3292,2.3518,2.3682,2.345,2.3152,2.2069,2.1371,2.0661,1.9818,1.9465,1.9531,1.9851,2.067,2.1438,2.23,2.3563,2.5028,2.5221,2.5709,2.6657,2.7261,2.7726,2.8184,2.8478,2.9021,2.9364,2.7932,2.7395,2.7532,2.6285,2.5479,2.5517,2.5601,2.5654,2.5668,2.567,2.5651,2.5601,2.5505,2.5486,2.5505,2.539,2.5099,2.4738,2.4718,2.4575,2.4172,2.3566,2.3189,2.3003,2.2324,2.1576,2.1016,2.0206,1.9,1.7376,1.6269,1.4914,1.3342,1.2146,1.1291,1.0571,0.9543,0.8471,0.7653,0.6416,0.5036,0.3689,-0.0,-0.0,-0.0,-0.0,-0.0659,-0.0985,-0.0,-0.0,-0.0,-0.0,-0.0,-0.0,-0.0,-0.0,-0.0,-0.0,-0.0,-0.0,-0.0,0.2144,0.4509,0.4706,0.4015,0.459,0.5289,0.5382,0.5106,0.3946,0.2268,-0.0,-0.0,-0.0,-0.0,-0.0,-0.0,-0.0,0.2008,0.2882,2.3531,2.3138,2.3603,2.3826,2.3767,2.3767,2.3767,2.3767,2.3721,2.3826,2.4292,2.4624,2.4803,2.475,2.346,2.2444,2.1575,2.0273,1.9503,1.931,2.0016,2.0845,2.1677,2.2392,2.3578,2.5067,2.5221,2.5783,2.6641,2.724,2.7727,2.8096,2.8468,2.9052,2.9624,2.815,2.7462,2.755,2.637,2.5523,2.5554,2.566,2.5691,2.5687,2.5669,2.5611,2.5524,2.5339,2.5269,2.5269,2.522,2.4998,2.4622,2.4482,2.4317,2.3996,2.3369,2.2947,2.2635,2.2,2.1256,2.0477,1.9676,1.8345,1.6738,1.5425,1.4037,1.2745,1.1672,1.1058,1.0726,0.9723,0.8954,0.8388,0.6994,0.5826,0.5502,0.3504,-0.0,0.1377,0.1117,0.0794,0.0196,-0.0,-0.0,-0.0,-0.0,-0.0,-0.0,-0.0,-0.0,-0.0,-0.0,-0.0,-0.0,-0.0,-0.0,0.3301,0.3773,0.309,0.3625,0.4573,0.5189,0.5055,0.4239,-0.0,-0.0,-0.0,-0.0,-0.0,-0.0,-0.0,-0.0,-0.0067,0.087,2.3125,2.3125,2.3125,2.3125,2.3125,2.3125,2.3245,2.3424,2.3943,2.4439,2.4867,2.537,2.5767,2.5617,2.4297,2.288,2.1584,2.0091,1.918,1.921,2.0105,2.1256,2.171,2.2392,2.3606,2.4973,2.5221,2.5783,2.659,2.7413,2.7771,2.8,2.8525,2.9148,2.9288,2.8058,2.7571,2.7585,2.6343,2.5575,2.5595,2.5664,2.5702,2.5677,2.559,2.5504,2.5348,2.5157,2.4986,2.4886,2.4943,2.4785,2.4491,2.4155,2.3832,2.353,2.2979,2.2478,2.2023,2.1576,2.0879,1.9813,1.9057,1.7768,1.596,1.4699,1.3541,1.2146,1.1319,1.1,1.0816,1.0007,0.9545,0.9139,0.7892,0.658,0.5832,0.5363,0.4567,0.3261,0.2948,0.2166,0.1128,-0.0,-0.0,-0.0,-0.0,-0.0,-0.0,-0.0,-0.0,-0.0,-0.0,-0.0,-0.0,-0.0,-0.0,0.2023,0.2225,0.202,0.2216,0.3157,0.4445,0.4788,0.4584,-0.0,-0.0,-0.0,-0.0,-0.0,-0.0,-0.0,-0.0674,-0.1546,-0.1342,2.3125,2.3125,2.3125,2.3125,2.3125,2.3125,2.3484,2.406,2.4221,2.5273,2.6471,2.6902,2.7187,2.7545,2.5085,2.3562,2.1781,1.9817,1.8727,1.891,2.0347,2.1242,2.1738,2.2346,2.3606,2.4816,2.5182,2.5746,2.6556,2.6939,2.7286,2.7897,2.8183,2.8669,2.9269,2.8058,2.7452,2.7612,2.6332,2.5578,2.5581,2.5637,2.5654,2.561,2.5514,2.5346,2.5187,2.5037,2.4761,2.446,2.4511,2.4463,2.41,2.3969,2.3551,2.2898,2.2443,2.2023,2.1526,2.067,1.9924,1.9468,1.8351,1.7023,1.5736,1.4857,1.3353,1.1826,1.1325,1.1125,1.0766,1.0494,1.0231,0.9843,0.8737,0.7567,0.7237,0.6175,0.5051,0.4674,0.4538,0.4613,0.4025,0.1473,-0.0,-0.0,-0.0,-0.0,-0.0,-0.0,-0.0,-0.0,-0.0,-0.0,-0.0,-0.0,-0.0,-0.0,0.0337,0.0067,0.0269,0.114,0.2213,0.3768,0.5276,-0.0,-0.0,-0.0,-0.0,-0.0,-0.0,-0.0,-0.2085,-0.2963,-0.3437,2.3125,2.3125,2.3125,2.3305,2.3662,2.3649,2.4105,2.4881,2.5494,2.6366,2.7208,2.741,2.743,2.7101,2.4305,2.2001,2.022,1.8191,1.7477,1.827,1.9709,2.0733,2.1253,2.2025,2.3098,2.4585,2.5105,2.5672,2.6245,2.6791,2.7317,2.7851,2.8047,2.8443,2.8857,2.7851,2.7367,2.7217,2.6216,2.5493,2.5558,2.5579,2.5505,2.5403,2.5291,2.5163,2.4966,2.4637,2.436,2.4063,2.3857,2.3662,2.3365,2.3186,2.2783,2.2187,2.1507,2.1036,2.044,1.9793,1.9045,1.8593,1.7712,1.6604,1.5413,1.4609,1.3282,1.1686,1.1091,1.0996,1.0649,1.0555,1.0618,1.0295,0.9058,0.8086,0.7687,0.6404,0.5298,0.519,0.5163,0.5252,0.4397,0.2876,-0.0,-0.0,-0.0,-0.0,-0.0,-0.0,-0.0,-0.0,-0.0,-0.0,-0.0,-0.0,-0.0,-0.0,-0.1751,-0.2357,-0.2893,-0.1676,-0.0268,0.1408,0.3029,0.2424,-0.0,-0.0,-0.2085,-0.0,-0.0,-0.0,-0.3226,-0.3766,-0.4175,2.3125,2.3125,2.3245,2.3649,2.4292,2.454,2.5092,2.5835,2.699,2.753,2.7579,2.753,2.6834,2.5364,2.2321,1.9598,1.7385,1.6506,1.6265,1.7181,1.8172,1.9304,2.0126,2.1054,2.2168,2.3914,2.4505,2.515,2.6035,2.6723,2.7206,2.7805,2.8201,2.8535,2.8408,2.7824,2.7495,2.742,2.6193,2.54,2.5428,2.5415,2.5293,2.5018,2.4934,2.4776,2.4507,2.417,2.3855,2.3694,2.2952,2.2505,2.2231,2.2156,2.172,2.1269,2.0556,2.0035,1.9403,1.874,1.8023,1.7286,1.6927,1.6245,1.4946,1.411,1.2905,1.1735,1.086,1.0601,1.0586,1.0618,1.0618,1.0295,0.9058,0.8151,0.7668,0.6322,0.5397,0.5315,0.5311,0.5315,0.5348,0.4498,0.2813,-0.0,-0.0,-0.0,-0.0,-0.0,-0.0,-0.0,-0.0,-0.0,-0.0,-0.0,-0.0,-0.0,-0.3029,-0.3979,-0.4864,-0.3837,-0.2348,-0.1141,-0.0202,-0.0471,-0.0807,-0.1947,-0.3226,-0.4651,-0.4785,-0.4169,-0.4167,-0.4503,-0.4843,2.3125,2.3125,2.3826,2.4176,2.4439,2.5493,2.6352,2.7077,2.7859,2.8498,2.8701,2.7583,2.6002,2.4041,2.0822,1.7296,1.4656,1.4392,1.5235,1.5672,1.6348,1.725,1.8863,1.9813,2.0846,2.2034,2.3214,2.4458,2.5672,2.6193,2.6967,2.7712,2.8156,2.858,2.8876,2.8566,2.7967,2.7584,2.6331,2.5446,2.5214,2.5158,2.4956,2.4572,2.4451,2.4219,2.3861,2.3628,2.3236,2.2514,2.2265,2.1645,2.1115,2.1238,2.091,2.0206,1.9703,1.9141,1.8363,1.7437,1.7136,1.6876,1.6107,1.5317,1.4608,1.4068,1.2926,1.1427,1.0457,1.0098,1.0544,1.0491,1.0561,1.0168,0.9064,0.7957,0.7623,0.6498,0.5377,0.5345,0.5394,0.538,0.5352,0.5176,0.3825,0.2012,-0.0,-0.0,-0.0,-0.0,-0.0,-0.0,-0.0,-0.0,-0.0,-0.0,-0.0,-0.0,-0.3563,-0.4584,-0.5199,-0.5202,-0.4314,-0.2889,-0.2285,-0.229,-0.2758,-0.3357,-0.3961,-0.4982,-0.4982,-0.4843,-0.4906,-0.4967,-0.5233,2.2702,2.3173,2.3515,2.4165,2.5022,2.6285,2.728,2.8,2.8576,2.8576,2.7524,2.5566,2.3279,2.0723,1.6957,1.3556,1.2107,1.2312,1.3271,1.3915,1.4993,1.6011,1.7598,1.8602,1.9634,2.0762,2.1941,2.3658,2.547,2.6108,2.6819,2.7741,2.8286,2.8713,2.8837,2.8449,2.7819,2.7174,2.6089,2.5293,2.4926,2.4817,2.4431,2.4062,2.3879,2.3757,2.35,2.2935,2.2609,2.2101,2.1505,2.0766,2.0252,1.9928,1.9863,1.9229,1.8722,1.8076,1.73,1.6421,1.6046,1.5816,1.5052,1.4575,1.4297,1.3803,1.2895,1.155,1.0287,0.9927,1.0488,1.0161,0.9977,0.9658,0.8415,0.7502,0.7051,0.6079,0.5624,0.5428,0.5418,0.5411,0.5418,0.5033,0.4367,0.2954,0.1143,-0.0,-0.0,-0.0,-0.0,-0.0,-0.0,-0.0,-0.4453,-0.3572,-0.1882,-0.295,-0.3959,-0.4982,-0.5389,-0.5389,-0.5179,-0.4359,-0.4097,-0.3775,-0.4175,-0.4567,-0.4906,-0.5109,-0.5106,-0.5169,-0.5302,-0.5432,-0.5627,1.999,2.0848,2.1822,2.3232,2.5024,2.648,2.7445,2.8082,2.8372,2.7491,2.5632,2.2244,1.9121,1.6159,1.2758,0.9869,0.9097,0.9982,1.1253,1.2849,1.4255,1.5428,1.6486,1.7731,1.9036,2.0317,2.1274,2.2863,2.476,2.5848,2.6897,2.785,2.8567,2.8886,2.8789,2.8931,2.7492,2.6457,2.5439,2.5103,2.4568,2.4129,2.3671,2.3169,2.3097,2.3038,2.2829,2.2124,2.1635,2.1197,2.0565,1.9768,1.928,1.8722,1.843,1.8274,1.7558,1.6899,1.6262,1.5564,1.4982,1.4699,1.4279,1.3829,1.3385,1.2851,1.2341,1.1462,1.0229,0.9622,0.9989,0.9524,0.9134,0.8742,0.7762,0.6719,0.6588,0.6071,0.5557,0.5428,0.5432,0.5369,0.5372,0.5379,0.4779,0.3565,-0.0,-0.0,-0.0,-0.0,-0.0,-0.0,-0.0,-0.0,-0.4108,-0.5199,-0.3966,-0.3818,-0.4495,-0.5246,-0.5376,-0.5372,-0.5163,-0.5027,-0.5043,-0.4852,-0.5319,-0.5379,-0.5306,-0.5299,-0.5362,-0.5428,-0.5428,-0.5756,-0.6075,1.2011,1.3282,1.7277,2.0644,2.2725,2.4472,2.6021,2.5905,2.5589,2.4875,2.1587,1.7672,1.3761,1.0535,0.7806,0.7057,0.7885,0.8821,1.0238,1.2143,1.3639,1.4896,1.5716,1.6991,1.8749,2.0003,2.1081,2.2626,2.4025,2.5185,2.6713,2.7951,2.8695,2.927,2.9608,2.9735,2.9334,2.7734,2.5785,2.4234,2.3449,2.2881,2.2237,2.18,2.1613,2.1592,2.1376,2.0714,2.0125,1.9612,1.9243,1.8731,1.8182,1.7246,1.6802,1.6676,1.6519,1.6262,1.5508,1.4562,1.3867,1.3402,1.278,1.2223,1.1715,1.1048,1.0568,1.0823,0.9479,0.8908,0.9144,0.8608,0.8285,0.7827,0.7177,0.6645,0.6449,0.5943,0.5491,0.5372,0.5376,0.5379,0.5382,0.5389,0.5192,0.3907,-0.0,-0.0,-0.0,-0.0,-0.3576,-0.3228,-0.2889,-0.3699,-0.4169,-0.5192,-0.5183,-0.4688,-0.496,-0.5376,-0.5369,-0.5432,-0.5428,-0.5299,-0.5382,-0.5386,-0.5376,-0.5432,-0.5428,-0.5428,-0.5428,-0.5428,-0.5428,-0.5815,-0.6268,-0.2055,0.2734,0.7151,0.8668,0.8514,0.9936,1.2414,1.529,1.7059,1.6667,1.3987,0.9297,0.5446,0.2779,0.1657,0.3186,0.5562,0.7494,0.9781,1.2226,1.385,1.5293,1.6634,1.7654,1.8919,1.948,2.0217,2.0868,2.2512,2.4537,2.6599,2.7852,2.8629,2.9289,2.9144,3.012,3.0072,2.8092,2.4629,2.1537,2.1145,2.0521,1.9733,1.9302,1.9269,1.9355,1.9317,1.8815,1.7897,1.7314,1.713,1.714,1.6587,1.5818,1.5236,1.4824,1.4049,1.3782,1.3825,1.309,1.2551,1.1978,1.1187,1.0521,1.0045,0.9368,0.8929,0.9375,0.8549,0.8202,0.8324,0.7757,0.7442,0.7051,0.6527,0.6264,0.6001,0.5745,0.5428,0.5376,0.5389,0.5393,0.5052,0.4167,0.3763,0.2887,0.0537,-0.0,-0.0,-0.0,-0.41,-0.4903,-0.4634,-0.464,-0.4843,-0.5386,-0.5379,-0.5093,-0.509,-0.5432,-0.5432,-0.5428,-0.5428,-0.5428,-0.5435,-0.5435,-0.5428,-0.5428,-0.5428,-0.5428,-0.5428,-0.5428,-0.5428,-0.5491,-0.5873,-1.5555,-1.0467,-0.3925,-0.2105,-0.3358,-0.2733,0.0039,0.3771,0.5817,0.5806,0.3191,-0.1316,-0.4836,-0.5235,-0.4076,-0.122,0.2679,0.621,0.9517,1.214,1.4182,1.5796,1.7092,1.8186,1.8732,1.8838,1.8931,1.9246,1.9956,2.1427,2.3268,2.6539,2.701,2.6225,2.6529,2.8481,2.9763,2.7063,2.2166,1.9276,1.8253,1.7331,1.666,1.631,1.6266,1.6421,1.661,1.5902,1.4896,1.4141,1.4292,1.4429,1.426,1.3495,1.2899,1.2388,1.1648,1.1282,1.1522,1.1273,1.0772,1.0132,0.9563,0.8877,0.8395,0.7903,0.781,0.821,0.766,0.7487,0.7459,0.6929,0.6531,0.6207,0.5881,0.5557,0.5359,0.5226,0.5302,0.5386,0.5399,0.541,0.4657,0.3023,0.2147,0.1609,-0.1072,-0.4657,-0.4788,-0.3964,-0.4428,-0.5369,-0.5236,-0.504,-0.5239,-0.5372,-0.5432,-0.5432,-0.5428,-0.5428,-0.5428,-0.5428,-0.5428,-0.5428,-0.5428,-0.5428,-0.5428,-0.5428,-0.5428,-0.5428,-0.5428,-0.5428,-0.5428,-0.5491,-0.5675,-2.6015,-2.7198,-1.4405,-0.8001,-0.5835,-0.4913,-0.5196,-0.564,-0.584,-0.6958,-0.9142,-1.3499,-1.4956,-1.4122,-1.01,-0.6024,-0.1434,0.5137,0.8213,1.0744,1.3244,1.5021,1.6575,1.7662,1.8307,1.8436,1.7379,1.6585,1.6354,1.5174,1.8298,2.1839,2.3665,2.015,1.9378,2.2393,2.2502,2.0159,1.6478,1.5759,1.443,1.3504,1.3128,1.2638,1.2534,1.2564,1.268,1.2283,1.1771,1.0842,1.1515,1.17,1.1879,1.1126,1.0556,1.0295,0.9071,0.86,0.843,0.9165,0.9106,0.8246,0.7591,0.7178,0.641,0.6905,0.7091,0.6786,0.624,0.6587,0.6506,0.6296,0.5826,0.5693,0.5564,0.5498,0.5229,0.4957,0.4967,0.5259,0.541,0.5423,0.3163,0.1275,-0.0938,-0.1676,-0.1941,-0.5403,-0.5393,-0.4837,-0.4967,-0.5365,-0.5362,-0.5362,-0.5362,-0.5428,-0.5428,-0.5428,-0.5428,-0.5428,-0.5428,-0.5428,-0.5428,-0.5428,-0.5428,-0.5428,-0.5428,-0.5428,-0.5428,-0.5428,-0.5428,-0.5428,-0.5491,-0.5686,-0.5928,-2.6698,-2.8734,-2.5158,-2.2747,-2.0824,-1.8686,-1.7742,-1.7424,-1.6281,-1.6922,-1.9016,-2.0607,-2.0456,-1.847,-1.6547,-1.2769,-0.8291,-0.1721,0.2668,0.687,1.0012,1.3292,1.5078,1.5285,1.5731,1.4637,1.3411,1.2068,1.076,0.9833,0.9271,1.2491,1.7702,1.5789,1.4476,1.152,0.8946,0.4962,0.506,0.6246,0.8793,0.9108,0.9286,0.9111,0.9849,0.9972,1.0103,0.9884,0.9487,0.9429,0.9941,0.9949,0.9606,0.9003,0.86,0.8208,0.661,0.5131,0.4985,0.6284,0.7427,0.702,0.6151,0.5038,0.4027,0.4008,0.4222,0.4215,0.4262,0.4429,0.562,0.5582,0.5449,0.5382,0.5239,0.503,0.4964,0.4486,0.4161,0.4247,0.4944,0.5373,0.2424,-0.0738,-0.3027,-0.4998,-0.5262,-0.5389,-0.5446,-0.5505,-0.5498,-0.5561,-0.5557,-0.5425,-0.5425,-0.5425,-0.5428,-0.5428,-0.5428,-0.5428,-0.5428,-0.5428,-0.5428,-0.5428,-0.5428,-0.5428,-0.5428,-0.5428,-0.5428,-0.5428,-0.5428,-0.5428,-0.5557,-0.5749,-0.5932,-2.6051,-2.9368,-3.1566,-3.2108,-3.1196,-2.9016,-2.8079,-2.7759,-2.5947,-2.5571,-2.6847,-2.6419,-2.4902,-2.2736,-2.0162,-1.7416,-1.2684,-0.72,-0.3168,0.2063,0.7679,1.05,1.0545,0.9966,0.9339,0.8977,0.8514,0.7384,0.5805,0.4646,0.3128,0.4118,0.7534,0.5687,0.1931,-0.2842,-0.7321,-1.0386,-0.8153,-0.2962,0.0884,0.2773,0.4006,0.4217,0.5137,0.5479,0.547,0.5369,0.611,0.6501,0.7147,0.7564,0.7186,0.6704,0.6225,0.5159,0.3776,0.1531,0.1312,0.2579,0.4522,0.3923,0.3468,0.2203,0.1186,0.0703,0.0836,0.0992,0.1199,0.1938,0.3416,0.3008,0.3137,0.2867,0.2935,0.2933,0.3678,0.3613,0.3226,0.3036,0.2902,0.1412,0.0201,-0.2956,-0.3761,-0.5463,-0.5386,-0.5442,-0.5502,-0.5561,-0.5752,-0.5752,-0.5752,-0.562,-0.5491,-0.5425,-0.5428,-0.5428,-0.5428,-0.5428,-0.5428,-0.5428,-0.5428,-0.5428,-0.5428,-0.5428,-0.5428,-0.5428,-0.5428,-0.5428,-0.5428,-0.5428,-0.5425,-0.5557,-0.5491,-2.5116,-3.0351,-3.1775,-3.2478,-3.2768,-3.3138,-3.3586,-3.3752,-3.3596,-3.2947,-3.191,-3.1448,-2.9584,-2.6564,-2.3036,-2.0127,-1.6631,-1.1219,-0.7673,-0.4408,0.1673,0.4981,0.3155,0.0962,0.1627,0.405,0.364,0.2266,0.1025,-0.0259,-0.2736,-0.4495,-0.2865,-0.5479,-1.1168,-1.9731,-2.0947,-1.5813,-1.2139,-0.8317,-0.5817,-0.3386,-0.1998,-0.0713,-0.0054,0.0381,0.0598,0.0763,0.1583,0.2513,0.2914,0.3526,0.4255,0.1926,0.0883,0.0442,0.0276,-0.0937,-0.2307,-0.0715,-0.0055,0.0056,-0.0345,-0.1339,-0.2328,-0.2621,-0.2402,-0.2062,-0.1799,-0.1599,-0.1065,-0.0598,-0.0133,0.0066,0.0133,0.0266,0.0867,0.1806,0.1276,0.0941,-0.2214,-0.4849,-0.4782,-0.5189,-0.5106,-0.5512,-0.5435,-0.5432,-0.5557,-0.5815,-0.6075,-0.6071,-0.6075,-0.6009,-0.5877,-0.5491,-0.5428,-0.5428,-0.5428,-0.5428,-0.5428,-0.5428,-0.5428,-0.5428,-0.5428,-0.5428,-0.5428,-0.5428,-0.5428,-0.5428,-0.5428,-0.5428,-0.5428,-0.5428,-0.5428,-2.6514,-3.0152,-3.3129,-3.4377,-3.4361,-3.4301,-3.4626,-3.498,-3.4565,-3.3832,-3.29,-3.1856,-3.0164,-2.7719,-2.6143,-2.3802,-2.1749,-1.806,-1.5029,-1.3617,-0.8417,-0.7518,-0.8094,-0.7625,-0.7036,-0.5104,-0.4204,-0.3458,-0.4833,-0.4903,-0.5257,-0.6766,-0.744,-1.359,-1.9494,-2.493,-2.3431,-1.9987,-1.5142,-1.0579,-0.9576,-0.7338,-0.5307,-0.3907,-0.3981,-0.3729,-0.3277,-0.2839,-0.2107,-0.1216,-0.0833,0.0778,0.1055,-0.1169,-0.2681,-0.2847,-0.2901,-0.344,-0.4401,-0.3971,-0.3789,-0.3786,-0.4284,-0.5078,-0.612,-0.6209,-0.5632,-0.4788,-0.4262,-0.4135,-0.3951,-0.3818,-0.3547,-0.3616,-0.3551,-0.3551,-0.2948,-0.1745,-0.1346,-0.1476,-0.3487,-0.477,-0.5246,-0.5911,-0.6102,-0.609,-0.6083,-0.5756,-0.5756,-0.6207,-0.6527,-0.6523,-0.6457,-0.6461,-0.6264,-0.5749,-0.5425,-0.5428,-0.5428,-0.5428,-0.5428,-0.5428,-0.5428,-0.5428,-0.5428,-0.5428,-0.5557,-0.5686,-0.5491,-0.5428,-0.5686,-0.5686,-0.562,-0.5491,-0.5428,-2.8268,-3.1023,-3.4,-3.5245,-3.5176,-3.5036,-3.4988,-3.4812,-3.4013,-3.3176,-3.2278,-3.0972,-2.943,-2.8054,-2.7224,-2.6555,-2.55,-2.3055,-2.1628,-2.1366,-2.1541,-1.8695,-1.6635,-1.5372,-1.4092,-1.2579,-1.0435,-0.9232,-0.9193,-0.7896,-0.6053,-0.4611,-0.531,-0.7626,-1.4796,-1.9207,-2.3769,-1.9644,-1.4181,-1.1671,-1.0501,-0.8921,-0.711,-0.651,-0.6233,-0.5918,-0.5386,-0.4912,-0.449,-0.3869,-0.2796,-0.1228,-0.1786,-0.2796,-0.4386,-0.4494,-0.4812,-0.4871,-0.5054,-0.6492,-0.601,-0.5358,-0.7113,-0.7834,-0.7945,-0.7593,-0.7163,-0.6584,-0.6322,-0.6268,-0.6222,-0.6234,-0.623,-0.623,-0.6226,-0.609,-0.5586,-0.4236,-0.3692,-0.3813,-0.4082,-0.4957,-0.5557,-0.6152,-0.6745,-0.6736,-0.6728,-0.647,-0.6276,-0.6859,-0.7242,-0.7111,-0.6981,-0.6915,-0.6527,-0.5815,-0.5557,-0.5428,-0.5425,-0.5491,-0.5428,-0.5428,-0.5428,-0.5428,-0.5491,-0.5624,-0.5947,-0.6013,-0.6272,-0.6404,-0.6601,-0.6404,-0.5947,-0.5954,-0.6094,-3.0149,-3.2886,-3.4237,-3.495,-3.519,-3.5337,-3.516,-3.4619,-3.345,-3.2491,-3.1636,-3.0253,-2.9005,-2.7682,-2.6916,-2.6265,-2.5692,-2.5168,-2.5267,-2.5731,-2.57,-2.4426,-2.3163,-2.138,-1.9674,-1.7845,-1.5659,-1.3294,-1.2703,-0.7202,-0.3286,-0.1014,-0.0181,-0.0488,-0.4838,-0.9938,-1.504,-1.1343,-1.0503,-0.8883,-0.8446,-0.8138,-0.7832,-0.7591,-0.7201,-0.6395,-0.5747,-0.5265,-0.4696,-0.4386,-0.4262,-0.3408,-0.3294,-0.3744,-0.4193,-0.4639,-0.5069,-0.5065,-0.5339,-0.7011,-0.7565,-0.6832,-0.7532,-0.7913,-0.8175,-0.8431,-0.8398,-0.8205,-0.8066,-0.7941,-0.7892,-0.7952,-0.7952,-0.7952,-0.8016,-0.7727,-0.7259,-0.6651,-0.623,-0.6156,-0.6366,-0.6766,-0.6666,-0.712,-0.7652,-0.7907,-0.8027,-0.8221,-0.8091,-0.8161,-0.842,-0.7967,-0.7832,-0.7507,-0.6924,-0.6276,-0.569,-0.5491,-0.5686,-0.5749,-0.5554,-0.5561,-0.576,-0.5826,-0.569,-0.5885,-0.6531,-0.7116,-0.7572,-0.7637,-0.7517,-0.7377,-0.6999,-0.7433,-0.7649,-3.1533,-3.2965,-3.3961,-3.4694,-3.5155,-3.5267,-3.5116,-3.4697,-3.3474,-3.2626,-3.2126,-3.0704,-2.9488,-2.8653,-2.7629,-2.6784,-2.6376,-2.6199,-2.6557,-2.6978,-2.7202,-2.7238,-2.6277,-2.4615,-2.3561,-2.2332,-2.0224,-1.6858,-1.2319,-0.6249,-0.1025,0.0826,0.3865,0.6665,0.7568,0.5532,0.2696,-0.0065,-0.1357,-0.3758,-0.5299,-0.5404,-0.6585,-0.7588,-0.711,-0.6241,-0.5522,-0.5204,-0.4737,-0.473,-0.458,-0.4086,-0.4138,-0.4307,-0.4477,-0.4484,-0.4826,-0.5052,-0.5644,-0.7016,-0.7951,-0.8257,-0.8997,-0.9188,-0.9295,-0.9382,-0.9748,-0.9736,-0.9724,-0.966,-0.9521,-0.9521,-0.9521,-0.9464,-0.9527,-0.943,-0.904,-0.8798,-0.8301,-0.7678,-0.7892,-0.7611,-0.7572,-0.8091,-0.8619,-0.8941,-0.9262,-0.9454,-0.9582,-0.9524,-0.9396,-0.9011,-0.8231,-0.7767,-0.7451,-0.6872,-0.6148,-0.5624,-0.5752,-0.5947,-0.5947,-0.5954,-0.6226,-0.642,-0.6662,-0.7051,-0.7502,-0.8086,-0.8549,-0.8425,-0.8247,-0.8199,-0.8266,-0.8684,-0.8931,-3.144,-3.2216,-3.3249,-3.4191,-3.4948,-3.5134,-3.5088,-3.4672,-3.3469,-3.2834,-3.2598,-3.1038,-3.0126,-2.974,-2.8746,-2.7856,-2.7259,-2.7339,-2.744,-2.7225,-2.7056,-2.7342,-2.6989,-2.6376,-2.5759,-2.5041,-2.3399,-2.0045,-1.3187,-0.3324,0.3328,0.7485,0.9017,1.2653,1.5669,1.6655,1.6641,1.2922,0.9074,0.4157,0.0588,-0.231,-0.4951,-0.6637,-0.6245,-0.601,-0.546,-0.5236,-0.5173,-0.5186,-0.5046,-0.5179,-0.5309,-0.5456,-0.5566,-0.5655,-0.5895,-0.6208,-0.6744,-0.7572,-0.8409,-0.9058,-1.0011,-1.0338,-1.0573,-1.0705,-1.1114,-1.137,-1.1363,-1.1356,-1.1217,-1.1078,-1.0954,-1.0836,-1.1037,-1.1169,-1.1024,-1.0814,-1.0053,-0.9081,-0.8659,-0.8339,-0.8484,-0.9069,-0.953,-0.9786,-0.9977,-1.0104,-1.0168,-1.0104,-1.0047,-0.9849,-0.8812,-0.7902,-0.7652,-0.7269,-0.6539,-0.5947,-0.5752,-0.5881,-0.6145,-0.647,-0.6741,-0.7316,-0.7887,-0.821,-0.8538,-0.9005,-0.9338,-0.9233,-0.9344,-0.9603,-0.9793,-0.9994,-1.0146,-3.0506,-3.1151,-3.2382,-3.3631,-3.4635,-3.4961,-3.5014,-3.4765,-3.3592,-3.3063,-3.2818,-3.1312,-3.0727,-3.066,-2.9848,-2.9071,-2.8481,-2.8255,-2.773,-2.7464,-2.6751,-2.6756,-2.6706,-2.6755,-2.5844,-2.6041,-2.4341,-2.0028,-1.2724,-0.2549,0.7926,1.5123,1.6147,1.8387,2.1335,2.3349,2.307,2.1464,1.5809,1.0003,0.4622,0.0854,-0.241,-0.4573,-0.557,-0.6295,-0.6137,-0.6009,-0.5818,-0.587,-0.6061,-0.6239,-0.6678,-0.6992,-0.7079,-0.7119,-0.7198,-0.7519,-0.7962,-0.8734,-0.9068,-0.9693,-1.027,-1.1128,-1.1596,-1.148,-1.175,-1.2618,-1.2663,-1.2663,-1.2586,-1.2821,-1.2821,-1.27,-1.2708,-1.2744,-1.2546,-1.2196,-1.1544,-1.0678,-0.9939,-0.9615,-0.9627,-1.0148,-0.9913,-1.0371,-1.0498,-1.0555,-1.0555,-1.0498,-1.0434,-1.0364,-0.9366,-0.8345,-0.7882,-0.7489,-0.6798,-0.6268,-0.6145,-0.647,-0.7116,-0.7246,-0.7246,-0.8151,-0.9052,-0.918,-0.9506,-0.9779,-1.0091,-1.0264,-1.0502,-1.1081,-1.1308,-1.1149,-1.1248,-3.1031,-3.1647,-3.2545,-3.3444,-3.4219,-3.4493,-3.471,-3.4759,-3.4064,-3.355,-3.31,-3.2382,-3.1773,-3.1425,-3.0836,-3.0035,-2.9239,-2.856,-2.7799,-2.688,-2.6155,-2.556,-2.5137,-2.5084,-2.4891,-2.4622,-2.2622,-1.8198,-0.9204,0.0691,0.8872,1.4884,1.7997,2.1719,2.4129,2.5968,2.6703,2.5665,2.0856,1.5114,1.025,0.5703,0.2143,-0.0787,-0.2829,-0.4872,-0.5335,-0.6195,-0.6207,-0.628,-0.6835,-0.7438,-0.8143,-0.8311,-0.8661,-0.8934,-0.8521,-0.8812,-0.94,-0.9982,-1.0203,-1.0688,-1.1304,-1.2166,-1.2496,-1.2074,-1.232,-1.3356,-1.3965,-1.3965,-1.4085,-1.4442,-1.4619,-1.4501,-1.4373,-1.4182,-1.3992,-1.3433,-1.2879,-1.2149,-1.1356,-1.1066,-1.0954,-1.0787,-1.0555,-1.0498,-1.0561,-1.0618,-1.0618,-1.0555,-1.0555,-1.0351,-0.9775,-0.8896,-0.8322,-0.7897,-0.7391,-0.7377,-0.7381,-0.7702,-0.8027,-0.8361,-0.8624,-0.9454,-1.0225,-1.0091,-1.0028,-1.0295,-1.0564,-1.0782,-1.0942,-1.1202,-1.1525,-1.1487,-1.1817,-3.0824,-3.1253,-3.2206,-3.3049,-3.3674,-3.4198,-3.4576,-3.4707,-3.4492,-3.4083,-3.3524,-3.2867,-3.2332,-3.2057,-3.1519,-3.049,-2.9484,-2.8701,-2.767,-2.6614,-2.5416,-2.4675,-2.4112,-2.3572,-2.3584,-2.3242,-2.0993,-1.5608,-0.7281,-0.2726,0.2971,1.1337,1.7388,2.2781,2.4819,2.687,2.6506,2.5597,2.1656,1.7784,1.3414,0.9047,0.4175,0.0991,-0.2394,-0.4331,-0.5734,-0.6808,-0.7341,-0.7793,-0.8504,-0.9279,-0.9964,-1.0357,-1.0704,-1.0857,-1.0685,-1.0472,-1.1185,-1.1478,-1.1399,-1.174,-1.2166,-1.287,-1.299,-1.2759,-1.352,-1.4501,-1.5196,-1.5313,-1.5535,-1.5833,-1.5833,-1.5708,-1.5545,-1.5332,-1.479,-1.4101,-1.3773,-1.3365,-1.2671,-1.2128,-1.195,-1.1524,-1.1288,-1.1045,-1.1045,-1.0681,-1.0681,-1.0618,-1.0618,-1.0478,-0.9844,-0.937,-0.8901,-0.8484,-0.8166,-0.8291,-0.8484,-0.8549,-0.8678,-0.9414,-1.0072,-1.0378,-1.0555,-1.0491,-1.0555,-1.0618,-1.0688,-1.0855,-1.0989,-1.1142,-1.1471,-1.1747,-1.1995,-3.0575,-3.0761,-3.1847,-3.2655,-3.3253,-3.4052,-3.4578,-3.4765,-3.4808,-3.4623,-3.4139,-3.3223,-3.2741,-3.2366,-3.2039,-3.074,-2.9626,-2.8715,-2.759,-2.5972,-2.4697,-2.3382,-2.2802,-2.2681,-2.2338,-2.1512,-1.9828,-1.6443,-1.1318,-0.7231,-0.1605,0.6362,1.4018,2.1936,2.321,2.2949,2.024,1.9082,1.6717,1.5165,1.2538,0.9936,0.4586,0.0131,-0.3381,-0.5716,-0.7164,-0.8175,-0.8983,-0.9752,-1.0488,-1.1259,-1.1731,-1.2165,-1.2647,-1.2764,-1.2421,-1.2583,-1.3132,-1.3064,-1.2676,-1.2583,-1.302,-1.3339,-1.3523,-1.4028,-1.4808,-1.5507,-1.6265,-1.6482,-1.6698,-1.6912,-1.6856,-1.6662,-1.6492,-1.6151,-1.538,-1.4732,-1.4554,-1.4332,-1.3786,-1.3243,-1.287,-1.2381,-1.202,-1.1772,-1.1406,-1.1045,-1.0737,-1.0618,-1.0618,-1.0485,-1.0129,-0.9717,-0.9273,-0.9221,-0.9,-0.8877,-0.9005,-0.9069,-0.9268,-0.9926,-1.0321,-1.0434,-1.0555,-1.0588,-1.0631,-1.0618,-1.0722,-1.0895,-1.0982,-1.1116,-1.145,-1.1717,-1.1971,-3.165,-3.2109,-3.2382,-3.2852,-3.3515,-3.396,-3.4332,-3.4705,-3.4947,-3.4875,-3.4501,-3.411,-3.3451,-3.2517,-3.2451,-3.1268,-2.9424,-2.8514,-2.6557,-2.4619,-2.3761,-2.2018,-2.0876,-2.1011,-2.0614,-2.0237,-1.929,-1.6157,-1.4288,-1.0937,-0.742,-0.2893,-0.1141,0.3369,0.4383,0.516,0.6869,0.8026,0.7978,0.534,0.4518,0.2625,0.2224,-0.1167,-0.4145,-0.7297,-0.9521,-1.0273,-1.0657,-1.1402,-1.2446,-1.3059,-1.3353,-1.3582,-1.3997,-1.4073,-1.3811,-1.3939,-1.4145,-1.4085,-1.3707,-1.3534,-1.4037,-1.4551,-1.4849,-1.5311,-1.6026,-1.6637,-1.7043,-1.6765,-1.6978,-1.7468,-1.7523,-1.7145,-1.6896,-1.6202,-1.5468,-1.5255,-1.5089,-1.4815,-1.4451,-1.4145,-1.3906,-1.3416,-1.2818,-1.2512,-1.2081,-1.1655,-1.1288,-1.0989,-1.0694,-1.0478,-1.0338,-0.9913,-0.9472,-1.0021,-0.9913,-0.9722,-0.9658,-0.9779,-0.9977,-1.0295,-1.0624,-1.0641,-1.0641,-1.0655,-1.0628,-1.0742,-1.0715,-1.0868,-1.0935,-1.1102,-1.1456,-1.1744,-1.1977]},{"header":{"parameterUnit":"m.s-1","parameterCategory":1,"la1":31.0,"la2":29.5877,"lo1":-88.7671,"lo2":-86.6584,"dy":0.0162,"dx":0.0185,"nx":115,"ny":88,"refTime":"2026-04-29T12:00:00:Z","depth":0,"parameterNumber":3,"parameterNumberName":"V-component_of_WINDS"},"data":[0.0,0.0,0.0,0.0,0.0,0.0,0.0,0.0,0.0,0.0,0.0,0.0,0.0,0.0,0.0,0.0,0.0,0.0,0.0,0.0,0.0,0.0,0.0,0.0,0.0,0.0,0.0,0.0,0.0,0.0,0.0,0.0,0.0,0.0,0.0,0.0,0.0,0.0,0.0,0.0,0.0,0.0,0.0,0.0,0.0,0.0,0.0,0.0,0.0,0.0,0.0,0.0,0.0,0.0,0.0,0.0,0.0,0.0,0.0,0.0,0.0,0.0,0.0,0.0,0.0,0.0,0.0,0.0,0.0,0.0,0.0,0.0,0.0,0.0,0.0,0.0,0.0,0.0,0.0,0.0,0.0,0.0,0.0,0.0,0.0,0.0,0.0,0.0,0.0,0.0,0.0,0.0,0.0,0.0,0.0,0.0,0.0,0.0,0.0,0.0,0.0,0.0,0.0,0.0,0.0,0.0,0.0,0.0,0.0,0.0,0.0,0.0,0.0,0.0,0.0,0.0,0.0,0.0,0.0,0.0,0.0,0.0,0.0,0.0,0.0,0.0,0.0,0.0,0.0,0.0,0.0,0.0,0.0,0.0,0.0,0.0,0.0,0.0,0.0,0.0,0.0,0.0,0.0,0.0,0.0,0.0,0.0,0.0,0.0,0.0,0.0,0.0,0.0,0.0,0.0,0.0,0.0,0.0,0.0,0.0,0.0,0.0,0.0,0.0,0.0,0.0,0.0,0.0,0.0,0.0,0.0,0.0,0.0,0.0,0.0,0.0,0.0,0.0,0.0,0.0,0.0,0.0,0.0,0.0,0.0,0.0,0.0,0.0,0.0,0.0,0.0,0.0,0.0,0.0,0.0,0.0,0.0,0.0,0.0,0.0,0.0,0.0,0.0,0.0,0.0,0.0,0.0,0.0,0.0,0.0,0.0,0.0,0.0,0.0,0.0,0.0,0.0,0.0,0.0,0.0,0.0,0.0,0.0,0.0,0.0,0.0,0.0,0.0,0.0,0.0,0.0,0.0,0.0,0.0,0.0,0.0,0.0,0.0,0.0,0.0,0.0,0.0,0.0,0.0,0.0,0.0,0.0,0.0,0.0,0.0,0.0,0.0,0.0,0.0,0.0,0.0,0.0,0.0,0.0,0.0,0.0,0.0,0.0,0.0,0.0,0.0,0.0,0.0,0.0,0.0,0.0,0.0,0.0,0.0,0.0,0.0,0.0,0.0,0.0,0.0,0.0,0.0,0.0,0.0,0.0,0.0,0.0,0.0,0.0,0.0,0.0,0.0,0.0,0.0,0.0,0.0,0.0,0.0,0.0,0.0,0.0,0.0,0.0,0.0,0.0,0.0,0.0,0.0,0.0,0.0,0.0,0.0,0.0,0.0,0.0,0.0,0.0,0.0,0.0,0.0,0.0,0.0,0.0,0.0,0.0,0.0,0.0,0.0,0.0,0.0,0.0,0.0,0.0,0.0,0.0,0.0,0.0,0.0,0.0,0.0,0.0,0.0,0.0,0.0,0.0,0.0,0.0,0.0,0.0,0.0,0.0,0.0,0.0,0.0,0.0,0.0,0.0,0.0,0.0,0.0,0.0,0.0,0.0,0.0,0.0,0.0,0.0,0.0,0.0,0.0,0.0,0.0,0.0,0.0,0.0,0.0,0.0,0.0,0.0,0.0,0.0,0.0,0.0,0.0,0.0,0.0,0.0,0.0,0.0,0.0,0.0,0.0,0.0,0.0,0.0,0.0,0.0,0.0,0.0,0.0,0.0,0.0,0.0,0.0,0.0,0.0,0.0,0.0,0.0,0.0,0.0,0.0,0.0,0.0,0.0,0.0,0.0,0.0,0.0,0.0,0.0,0.0,0.0,0.0,0.0,0.0,0.0,0.0,0.0,0.0,0.0,0.0,0.0,0.0,0.0,0.0,0.0,0.0,0.0,0.0,0.0,0.0,0.0,0.0,0.0,0.0,0.0,0.0,0.0,0.0,0.0,0.0,0.0,0.0,0.0,0.0,0.0,0.0,0.0,0.0,0.0,0.0,0.0,0.0,0.0,0.0,0.0,0.0,0.0,0.0,0.0,0.0,0.0,0.0,0.0,0.0,0.0,0.0,0.0,0.0,0.0,0.0,0.0,0.0,0.0,0.0,0.0,0.0,0.0,0.0,0.0,0.0,0.0,0.0,0.0,0.0,0.0,0.0,0.0,0.0,0.0,0.0,0.0,0.0,0.0,0.0,0.0,0.0,0.0,0.0,0.0,0.0,0.0,0.0,0.0,0.0,0.0,0.0,0.0,0.0,0.0,0.0,0.0,0.0,0.0,0.0,0.0,0.0,0.0,0.0,0.0,0.0,0.0,0.0,0.0,0.0,0.0,0.0,0.0,0.0,0.0,0.0,0.0,0.0,0.0,0.0,0.0,0.0,0.0,0.0,0.0,0.0,0.0,0.0,0.0,0.0,0.0,0.0,0.0,0.0,0.0,0.0,0.0,0.0,0.0,0.0,0.0,0.0,0.0,0.0,0.0,0.0,0.0,0.0,0.0,0.0,0.0,0.0,0.0,0.0,0.0,0.0,0.0,0.0,0.0,0.0,0.0,0.0,0.0,0.0,0.0,0.0,0.0,0.0,0.0,0.0,0.0,0.0,0.0,0.0,0.0,0.0,0.0,0.0,0.0,0.0,0.0,0.0,0.0,0.0,0.0,0.0,0.0,0.0,0.0,0.0,0.0,0.0,0.0,0.0,0.0,0.0,0.0,0.0,0.0,0.0,0.0,0.0,0.0,0.0,0.0,0.0,0.0,0.0,0.0,0.0,0.0,0.0,0.0,0.0,0.0,0.0,0.0,0.0,0.0,0.0,0.0,0.0,0.0,0.0,0.0,0.0,0.0,0.0,0.0,0.0,0.0,0.0,0.0,0.0,0.0,0.0,0.0,0.0,0.0,0.0,0.0,0.0,0.0,0.0,0.0,0.0,0.0,0.0,0.0,0.0,0.0,0.0,0.0,0.0,0.0,0.0,0.0,0.0,0.0,0.0,0.0,0.0,0.0,0.0,0.0,0.0,0.0,0.0,0.0,0.0,0.0,0.0,0.0,0.0,0.0,0.0,0.0,0.0,0.0,0.0,0.0,0.0,0.0,0.0,0.0,0.0,0.0,0.0,0.0,0.0,0.0,0.0,0.0,0.0,0.0,0.0,0.0,0.0,0.0,0.0,0.0,0.0,0.0,0.0,0.0,0.0,0.0,0.0,0.0,0.0,0.0,0.0,0.0,0.0,0.0,0.0,0.0,0.0,0.0,0.0,0.0,0.0,0.0,0.0,0.0,0.0,0.0,0.0,0.0,0.0,0.0,0.0,0.0,0.0,0.0,0.0,0.0,0.0,0.0,0.0,0.0,0.0,0.0,0.0,0.0,0.0,0.0,0.0,0.0,0.0,0.0,0.0,0.0,0.0,0.0,0.0,0.0,0.0,0.0,0.0,0.0,0.0,0.0,0.0,0.0,0.0,0.0,0.0,0.0,0.0,0.0,0.0,0.0,0.0,0.0,0.0,0.0,0.0,0.0,0.0,0.0,0.0,0.0,0.0,0.0,0.0,0.0,0.0,0.0,0.0,0.0,0.0,0.0,0.0,0.0,0.0,0.0,0.0,0.0,0.0,0.0,0.0,0.0,0.0,0.0,0.0,0.0,0.0,0.0,0.0,0.0,0.0,0.0,0.0,0.0,0.0,0.0,0.0,0.0,0.0,0.0,0.0,0.0,0.0,0.0,0.0,0.0,0.0,0.0,0.0,0.0,0.0,0.0,0.0,0.0,0.0,0.0,0.0,0.0,0.0,0.0,0.0,0.0,0.0,0.0,0.0,0.0,0.0,0.0,0.0,0.0,0.0,0.0,0.0,0.0,0.0,0.0,0.0,0.0,0.0,0.0,0.0,0.0,0.0,0.0,0.0,0.0,0.0,0.0,0.0,0.0,0.0,0.0,0.0,0.0,0.0,0.0,0.0,0.0,0.0,0.0,0.0,0.0,0.0,0.0,0.0,0.0,0.0,0.0,0.0,0.0,0.0,0.0,0.0,0.0,0.0,0.0,0.0,0.0,0.0,0.0,0.0,0.0,0.0,0.0,0.0,0.0,0.0,0.0,0.0,0.0,0.0,0.0,0.0,0.0,0.0,0.0,0.0,0.0,0.0,0.0,0.0,0.0,0.0,0.0,0.0,0.0,0.0,0.0,0.0,0.0,0.0,0.0,0.0,0.0,0.0,0.0,0.0,0.0,0.0,0.8228,0.0,0.0,0.0,0.0,0.0,0.0,0.0,0.0,0.0,0.0,0.0,0.0,0.0,0.0,0.0,0.0,0.0,0.0,0.0,0.0,0.0,0.0,0.0,0.0,0.0,0.0,0.0,0.0,0.0,0.0,0.0,0.0,0.0,0.0,0.0,0.0,0.0,0.0,0.0,0.0,0.0,0.0,0.0,0.0,0.0,0.0,0.0,0.0,0.0,0.0,0.0,0.0,0.0,0.0,0.0,0.0,0.0,0.0,0.0,0.0,0.0,0.0,0.0,0.0,0.0,0.0,0.0,0.0,0.0,0.0,0.0,0.0,0.0,0.0,0.0,0.0,0.0,0.0,0.0,0.0,0.0,0.0,0.0,0.0,0.0,0.0,0.0,0.0,0.0,0.0,0.0,0.0,0.0,0.0,0.0,0.0,0.0,0.0,0.0,0.0,0.0,0.0,0.0,0.0,0.0,0.0,0.0,0.0,0.0,0.0,0.8804,0.8804,0.8804,0.8595,0.8228,0.0,0.0,0.0,0.0,0.0,0.0,0.0,0.0,0.0,0.0,0.0,0.0,0.0,0.0,0.0,0.0,0.0,0.0,0.0,0.0,0.0,0.0,0.0,0.0,0.0,0.0,0.0,0.0,0.0,0.0,0.0,0.0,0.0,0.0,0.0,0.0,0.0,0.0,0.0,0.0,0.0,0.0,0.0,0.0,0.0,0.0,0.0,0.0,0.0,0.0,0.0,0.0,0.0,0.0,0.0,0.0,0.0,0.0,0.0,0.0,0.0,0.0,0.0,0.0,0.0,0.0,0.0,0.0,0.0,0.0,0.0,0.0,0.0,0.0,0.0,0.0,0.0,0.0,0.0,0.0,0.0,0.0,0.0,0.0,0.0,0.0,0.0,0.0,0.0,0.0,0.0,0.0,0.0,0.0,0.0,0.0,0.0,0.0,0.0,0.0,0.0,0.0,0.0,0.0,0.0,0.0,0.0,0.0,0.0,0.0,0.0,0.0,0.8877,0.8554,0.8101,0.0,0.0,0.0,0.0,0.0,0.0,0.0,0.0,0.0,0.0,0.0,0.0,0.0,0.0,0.0,0.0,0.0,0.0,0.0,0.0,0.0,0.0,0.0,0.0,0.0,0.0,0.0,0.0,0.0,0.0,0.0,0.0,0.0,0.0,0.0,0.0,0.0,0.0,0.0,0.0,0.0,0.0,0.0,0.0,0.0,0.0,0.0,0.0,0.0,0.0,0.0,0.0,0.0,0.0,0.0,0.0,0.0,0.0,0.0,0.0,0.0,0.0,0.0,0.0,0.0,0.0,0.0,0.0,0.0,0.0,0.0,0.0,0.0,0.0,0.0,0.0,0.0,0.0,0.0,0.0,0.0,0.0,0.0,0.0,0.0,0.0,0.0,0.0,0.0,0.0,0.0,0.0,0.0,0.0,0.0,0.0,0.0,0.0,0.0,0.0,0.0,0.0,0.0,0.0,0.0,0.0,0.0,0.0,0.0,0.0,0.9058,0.9579,0.908,0.0,0.7775,0.0,0.0,0.0,0.0,0.0,0.0,0.0,0.0,0.0,0.0,0.0,0.0,0.0,0.0,0.0,0.0,0.0,0.0,0.0,0.0,0.0,0.0,0.0,0.0,0.0,0.0,0.0,0.0,0.0,0.0,0.0,0.0,0.0,0.0,0.0,0.0,0.0,0.0,0.0,0.0,0.0,0.0,0.0,0.0,0.0,0.0,0.0,0.0,0.0,0.0,0.0,0.0,0.0,0.0,0.0,0.0,0.0,0.0,0.0,0.0,0.0,0.0,0.0,0.0,0.0,0.0,0.0,0.0,0.0,0.0,0.0,0.0,0.0,0.0,0.0,0.0,0.0,0.0,0.0,0.0,0.0,0.0,0.0,0.0,0.0,0.0,0.0,0.0,0.0,0.0,0.0,0.0,0.0,0.0,0.0,0.0,0.0,0.0,0.0,0.0,0.0,0.0,0.0,0.0,0.0,0.0,0.0,0.0,0.0,0.0,0.0,0.9673,0.9151,0.8667,0.0,0.0,0.0,0.0,0.0,0.0,0.0,0.0,0.0,0.0,0.0,0.0,0.0,0.0,0.0,0.0,0.0,0.0,0.0,0.0,0.0,0.0,0.0,0.0,0.0,0.0,0.0,0.0,0.0,0.0,0.0,0.0,0.0,0.0,0.0,0.0,0.0,0.0,0.0,0.0,0.0,0.0,0.0,0.0,0.0,0.0,0.0,0.0,0.0,0.0,0.0,0.0,0.0,0.0,0.0,0.0,0.0,0.0,0.0,0.0,0.0,0.0,0.0,0.0,0.0,0.0,0.0,0.0,0.0,0.0,0.0,0.0,0.0,0.0,0.0,0.0,0.0,0.0,0.0,0.0,0.0,0.0,0.0,0.0,0.0,0.0,0.0,0.0,0.0,0.0,0.0,0.0,0.0,0.0,0.0,0.0,0.0,0.0,0.0,0.0,0.0,0.0,0.0,0.0,0.0,0.0,0.0,0.0,0.0,0.0,0.9563,0.0,0.9584,0.9329,0.8883,0.83,0.0,0.0,0.0,0.0,0.0,0.0,0.0,0.0,0.0,0.0,0.0,0.0,0.0,0.0,0.0,0.0,0.0,0.0,0.0,0.0,0.0,0.0,0.0,0.0,0.0,0.0,0.0,0.0,0.0,0.0,0.0,0.0,0.0,0.0,0.0,0.0,0.0,0.0,0.0,0.0,0.0,0.0,0.0,0.0,0.0,0.0,0.0,0.0,0.0,0.0,0.0,0.0,0.0,0.0,0.0,0.0,0.0,0.0,0.0,0.0,0.0,0.0,0.0,0.0,0.0,0.0,0.0,0.0,0.0,0.0,0.0,0.0,0.0,0.0,0.0,0.0,0.0,0.0,0.0,0.0,0.0,0.0,0.0,0.0,0.0,0.0,0.0,0.0,0.0,0.0,0.0,0.0,0.0,0.0,0.0,0.0,0.0,0.0,0.0,0.0,0.0,0.0,0.0,0.0,0.0,0.0,0.0,0.0,0.0,0.9955,0.9617,0.9484,0.9799,0.9092,0.0,0.0,0.0,0.0,0.0,0.0,0.0,0.0,0.0,0.0,0.0,0.0,0.0,0.0,0.0,0.0,0.0,0.0,0.0,0.0,0.0,0.0,0.0,0.0,0.0,0.0,0.0,0.0,0.0,0.0,0.0,0.0,0.0,0.0,0.0,0.0,0.0,0.0,0.0,0.0,0.0,0.0,0.0,0.0,0.0,0.0,0.0,0.0,0.0,0.0,0.0,0.0,0.0,0.0,0.0,0.0,0.0,0.0,0.0,0.0,0.0,0.0,0.0,0.0,0.0,0.0,0.0,0.0,0.0,0.0,0.0,0.0,0.0,0.0,0.0,0.0,0.0,0.0,0.0,0.0,0.0,0.0,0.0,0.0,0.0,0.0,0.0,0.0,0.0,0.0,0.0,0.0,0.0,0.0,0.0,0.0,0.0,0.0,0.0,0.0,0.0,0.0,0.0,0.0,0.0,0.0,0.0,0.0,0.0,0.9411,0.959,0.9933,1.0391,0.9708,0.8929,0.0,0.0,0.0,0.0,0.0,0.0,0.0,0.0,0.0,0.0,0.0,0.0,0.0,0.0,0.0,0.0,0.0,0.0,0.0,0.0,0.0,0.0,0.0,0.0,0.0,0.0,0.0,0.0,0.0,0.0,0.0,0.0,0.0,0.0,0.0,0.0,0.0,0.0,0.0,0.0,0.0,0.0,0.0,0.0,0.0,0.0,0.0,0.0,0.0,0.0,0.0,0.0,0.0,0.0,0.0,0.0,0.0,0.0,0.0,0.0,0.0,0.0,0.0,0.0,0.0,0.0,0.0,0.0,0.0,0.0,0.0,0.0,0.0,0.0,0.0,0.0,0.0,0.0,0.0,0.0,0.0,0.0,0.0,0.0,0.0,0.0,0.0,0.0,0.0,0.0,0.0,0.0,0.0,0.0,0.0,0.0,0.0,0.0,0.0,0.0,0.0,0.0,0.0,0.0,0.0,0.0,0.0,0.0,0.0,0.9239,0.0,1.0261,0.0,0.9519,0.8785,0.0,0.0,0.0,0.0,0.0,0.0,0.0,0.0,0.0,0.0,0.0,0.0,0.0,0.0,0.0,0.0,0.0,0.0,0.0,0.0,0.0,0.0,0.0,0.0,0.0,0.0,0.0,0.0,0.0,0.0,0.0,0.0,0.0,0.0,0.0,0.0,0.0,0.0,0.0,0.0,0.0,0.0,0.0,0.0,0.0,0.0,0.0,0.0,0.0,0.0,0.0,0.0,0.0,0.0,0.0,0.0,0.0,0.0,0.0,0.0,0.0,0.0,0.0,0.0,0.0,0.0,0.0,0.0,0.0,0.0,0.0,0.0,0.0,0.0,0.0,0.0,0.0,0.0,0.0,0.0,0.0,0.0,0.0,0.0,0.0,0.0,0.0,0.0,0.0,0.0,0.0,0.0,0.0,0.0,0.0,0.0,0.0,0.0,0.0,0.0,0.0,0.0,0.0,0.0,0.0,0.0,0.0,0.0,0.9252,1.006,1.0635,1.0534,0.974,0.9329,0.866,0.0,0.0,0.0,0.0,0.0,0.0,0.0,0.0,0.0,0.0,0.0,0.0,0.0,0.0,0.0,0.0,0.0,0.0,0.0,0.0,0.0,0.0,0.0,0.0,0.0,0.0,0.0,0.0,0.0,0.0,0.0,0.0,0.0,0.0,0.0,0.0,0.0,0.0,0.0,0.0,0.0,0.0,0.0,0.0,0.0,0.0,0.0,0.0,0.0,0.0,0.0,0.0,0.0,0.0,0.0,0.0,0.0,0.0,0.0,0.0,0.0,0.0,0.0,0.0,0.0,0.0,0.0,0.0,0.0,0.0,0.0,0.0,0.0,0.0,0.0,0.0,0.0,0.0,0.0,0.0,0.0,0.0,0.0,0.0,0.0,0.0,0.0,0.0,0.0,0.0,0.0,0.0,0.0,0.0,0.0,0.0,0.0,0.0,0.0,0.0,0.0,0.0,0.0,0.0,0.0,0.0,0.0,0.0,0.0,0.9482,1.0087,1.0361,1.0315,0.9218,0.8582,0.0,0.0,0.0,0.0,0.0,0.0,0.0,0.0,0.0,0.0,0.0,0.0,0.0,0.0,0.0,0.0,0.0,0.0,0.0,0.0,0.0,0.0,0.0,0.0,0.0,0.0,0.0,0.0,0.0,0.0,0.0,0.0,0.0,0.0,0.0,0.0,0.0,0.0,0.0,0.0,0.0,0.0,0.0,0.0,0.0,0.0,0.0,0.0,0.0,0.0,0.0,0.0,0.0,0.0,0.0,0.0,0.0,0.0,0.0,0.0,0.0,0.0,0.0,0.0,0.0,0.0,0.0,0.0,0.0,0.0,0.0,0.0,0.0,0.0,0.0,0.0,0.0,0.0,0.0,0.0,0.0,0.0,0.0,0.0,0.0,0.0,0.0,0.0,0.0,0.0,0.0,0.0,0.0,0.0,0.0,0.0,0.0,0.0,0.0,0.0,0.0,0.0,0.0,0.0,0.0,0.0,0.0,0.0,0.0,0.9894,1.0468,1.0748,1.0722,0.9512,0.8798,0.8624,0.0,0.0,0.0,0.0,0.0,0.0,0.0,0.0,0.0,0.0,0.0,0.0,0.0,0.0,0.0,0.0,0.0,0.0,0.0,0.0,0.0,0.0,0.0,0.0,0.0,0.0,0.0,0.0,0.0,0.0,0.0,0.0,0.0,0.0,0.0,0.0,0.0,0.0,0.0,0.0,0.0,0.0,0.0,0.0,0.0,0.0,0.0,0.0,0.0,0.0,0.0,0.0,0.0,0.0,0.0,0.0,0.0,0.0,0.0,0.0,0.0,0.0,0.0,0.0,0.0,0.0,0.0,0.0,0.0,0.0,0.0,0.0,0.0,0.0,0.0,0.0,0.0,0.0,0.0,0.0,0.0,0.0,0.0,0.0,0.0,0.0,0.0,0.0,0.0,0.0,0.0,0.0,0.0,0.0,0.0,0.0,0.0,0.0,0.0,0.0,0.0,0.0,0.0,0.0,0.0,0.0,0.0,0.0,1.1009,1.1623,1.1657,1.1082,1.018,0.9312,0.0,0.0,0.0,0.0,0.0,0.0,0.0,0.0,0.0,0.0,0.0,0.0,0.0,0.0,0.0,0.0,0.0,0.0,0.0,0.0,0.0,0.0,0.0,0.0,0.0,0.0,0.0,0.0,0.0,0.0,0.0,0.0,0.0,0.0,0.0,0.0,0.0,0.0,0.0,0.0,0.0,0.0,0.0,0.0,0.0,0.0,0.0,0.0,0.0,0.0,0.0,0.0,0.0,0.0,0.0,0.0,0.0,0.0,0.0,0.0,0.0,0.0,0.0,0.0,0.0,0.0,0.0,0.0,0.0,0.0,0.0,0.0,0.0,0.0,0.0,0.0,0.0,0.0,0.0,0.0,0.0,0.0,0.0,0.0,0.0,0.0,0.0,0.0,0.0,0.0,0.0,0.0,0.0,0.0,0.0,0.0,0.0,0.0,0.0,0.0,0.0,0.0,0.0,0.0,0.0,0.0,0.0,0.0,0.0,1.1336,1.2325,1.2572,1.1957,1.0688,0.98,0.0,0.0,0.0,0.0,0.0,0.0,0.0,0.0,0.0,0.0,0.0,0.0,0.0,0.0,0.0,0.0,0.0,0.0,0.0,0.0,0.0,0.0,0.0,0.0,0.0,0.0,0.0,0.0,0.0,0.0,0.0,0.0,0.0,0.0,0.0,0.0,0.0,0.0,0.0,0.0,0.0,0.0,0.0,0.0,0.0,0.0,0.0,0.0,0.0,0.0,0.0,0.0,0.0,0.0,0.0,0.0,0.0,0.0,0.0,0.0,0.0,0.0,0.0,0.0,0.0,0.0,0.0,0.0,0.0,0.0,0.0,0.0,0.0,0.0,0.0,0.0,0.0,0.0,0.0,0.0,0.0,0.0,0.0,0.0,0.0,0.0,0.0,0.0,0.0,0.0,0.0,0.0,0.0,0.0,0.0,0.0,0.0,0.0,0.0,0.0,0.0,0.0,0.0,0.0,0.0,0.0,0.0,0.0,1.1436,1.1977,1.3033,1.3293,1.2699,1.1496,1.0481,0.0,0.0,0.0,0.0,0.0,0.0,0.0,0.0,0.0,0.0,0.0,0.0,0.0,0.0,0.0,0.0,0.0,0.0,0.0,0.0,0.0,0.0,0.0,0.0,0.0,0.0,0.0,0.0,0.0,0.0,0.0,0.0,0.0,0.0,0.0,0.0,0.0,0.0,0.0,0.0,0.0,0.0,0.0,0.0,0.0,0.0,0.0,0.0,0.0,0.0,0.0,0.0,0.0,0.0,0.0,0.0,0.0,0.0,0.0,0.0,0.0,0.0,0.0,0.0,0.0,0.0,0.0,0.0,0.0,0.0,0.0,0.0,0.0,0.0,0.0,0.0,0.0,0.0,0.0,0.0,0.0,0.0,0.0,0.0,0.0,0.0,0.0,0.0,0.0,0.0,0.0,0.0,0.0,0.0,0.0,0.0,0.0,0.0,0.0,0.0,0.0,0.0,0.0,0.0,0.0,0.0,0.0,0.0,1.187,1.2761,1.3607,1.3801,1.3213,1.2338,1.1196,0.0,0.0,0.0,0.0,0.0,0.0,0.0,0.0,0.0,0.0,0.0,0.0,0.0,0.0,0.0,0.0,0.0,0.0,0.0,0.0,0.0,0.0,0.0,0.0,0.0,0.0,0.0,0.0,0.0,0.0,0.0,0.0,0.0,0.0,0.0,0.0,0.0,0.0,0.0,0.0,0.0,0.0,0.0,0.0,0.0,0.0,0.0,0.0,0.0,0.0,0.0,0.0,0.0,0.0,0.0,0.0,0.0,0.0,0.0,0.0,0.0,0.0,0.0,0.0,0.0,0.0,0.0,0.0,0.0,0.0,0.0,0.0,0.0,0.0,0.0,0.0,0.0,0.0,0.0,0.0,0.0,0.0,0.0,0.0,0.0,0.0,0.0,0.0,0.0,0.0,0.0,0.0,0.0,0.0,0.0,0.0,0.0,0.0,0.0,0.0,0.0,0.0,0.0,0.0,0.0,0.0,0.0,0.0,1.1977,1.2398,1.3507,1.3808,1.322,1.2338,1.1296,0.0,0.0,0.0,0.0,0.0,0.0,0.0,0.0,0.0,0.0,0.0,0.0,0.0,0.0,0.0,0.0,0.0,0.0,0.0,0.0,0.0,0.0,0.0,0.0,0.0,0.0,0.0,0.0,0.0,0.0,0.0,0.0,0.0,0.0,0.0,0.0,0.0,0.0,0.0,0.0,0.0,0.0,0.0,0.0,0.0,0.0,0.0,0.0,0.7324,0.0,0.0,0.0,0.0,0.0,0.0,0.0,0.0,0.0,0.0,0.0,0.0,0.0,0.0,0.0,0.0,0.0,0.0,0.0,0.0,0.0,0.0,0.0,0.0,0.0,0.0,0.0,0.0,0.0,0.0,0.0,0.0,0.0,0.0,0.0,0.0,0.0,0.0,0.0,0.0,0.0,0.0,0.0,0.0,0.0,0.0,0.0,0.0,0.0,0.0,0.0,0.0,0.0,0.0,0.0,0.0,0.0,0.0,0.0,1.2211,1.2919,1.3687,1.3808,1.322,1.2472,1.1523,0.0,0.0,0.0,0.0,0.0,0.0,0.0,0.0,0.0,0.0,0.0,0.0,0.0,0.0,0.0,0.0,0.0,0.0,0.0,0.0,0.0,0.0,0.0,0.0,0.0,0.0,0.0,0.0,0.0,0.0,0.0,0.0,0.0,0.0,0.0,0.0,0.0,0.0,0.0,0.0,0.0,0.0,0.0,0.0,0.0,0.0,0.0,0.0,0.0,0.0,0.0,0.0,0.0,0.0,0.0,0.0,0.0,0.0,0.0,0.0,0.0,0.0,0.0,0.0,0.0,0.0,0.0,0.0,0.0,0.0,0.0,0.0,0.0,0.0,0.0,0.0,0.0,0.0,0.0,0.0,0.0,0.0,0.0,0.0,0.0,0.0,0.0,0.0,0.0,0.0,0.0,0.0,0.0,0.0,0.0,0.0,0.0,0.0,0.0,0.0,0.0,0.0,0.0,0.0,0.0,0.0,0.0,1.152,1.2445,1.3594,1.3928,1.3808,1.3227,1.2619,1.1757,1.0658,0.0,0.0,0.0,0.0,0.0,0.0,0.0,0.0,0.0,0.0,0.0,0.0,0.0,0.0,0.0,0.0,0.0,0.0,0.0,0.0,0.0,0.0,0.0,0.0,0.0,0.0,0.0,0.0,0.0,0.0,0.0,0.0,0.0,0.0,0.0,0.0,0.0,0.0,0.6807,0.7255,0.0,0.0,0.0,0.0,0.0,0.0,0.0,0.0,0.7131,0.0,0.0,0.0,0.0,0.0,0.0,0.0,0.0,0.0,0.0,0.0,0.0,0.0,0.0,0.0,0.0,0.0,0.0,0.0,0.0,0.0,0.0,0.0,0.0,0.0,0.0,0.0,0.0,0.0,0.0,0.0,0.0,0.0,0.0,0.0,0.0,0.0,0.0,0.0,0.0,0.0,0.0,0.0,0.0,0.0,0.0,0.0,0.0,0.0,0.0,0.0,0.0,0.0,0.0,0.0,0.0,1.1273,1.169,1.2445,1.3532,1.3935,1.3808,1.322,1.2625,1.175,1.0601,0.0,0.0,0.0,0.0,0.0,0.0,0.0,0.0,0.0,0.0,0.0,0.0,0.0,0.0,0.0,0.0,0.0,0.0,0.0,0.0,0.0,0.0,0.0,0.0,0.0,0.0,0.0,0.0,0.0,0.0,0.0,0.0,0.0,0.0,0.0,0.0,0.0,0.0,0.0,0.7949,0.8036,0.0,0.0,0.0,0.0,0.0,0.0,0.0,0.0,0.7047,0.0,0.0,0.0,0.0,0.0,0.0,0.0,0.0,0.0,0.0,0.0,0.0,0.0,0.0,0.0,0.0,0.0,0.0,0.0,0.0,0.0,0.0,0.0,0.0,0.0,0.0,0.0,0.0,0.0,0.0,0.0,0.0,0.0,0.0,0.0,0.0,0.0,0.0,0.0,0.0,0.0,0.0,0.0,0.0,0.0,0.0,0.0,0.0,0.0,0.0,0.0,0.0,0.0,0.0,0.0,1.1171,1.1814,1.2592,1.3526,1.3928,1.3808,1.322,1.2472,1.1597,0.0,0.0,0.0,0.0,0.0,0.0,0.0,0.0,0.0,0.0,0.0,0.0,0.0,0.0,0.0,0.0,0.0,0.0,0.0,0.0,0.0,0.0,0.0,0.0,0.0,0.0,0.0,0.0,0.0,0.0,0.0,0.0,0.0,0.0,0.0,0.0,0.0,0.0,0.0,0.0,0.8283,0.8484,0.8771,0.0,0.0,0.0,0.0,0.0,0.0,0.7781,0.7025,0.0,0.0,0.0,0.0,0.0,0.0,0.0,0.0,0.0,0.0,0.0,0.0,0.0,0.0,0.0,0.0,0.0,0.0,0.0,0.0,0.0,0.0,0.0,0.0,0.0,0.0,0.0,0.0,0.0,0.0,0.0,0.0,0.0,0.0,0.0,0.0,0.0,0.0,0.0,0.0,0.0,0.0,0.0,0.0,0.0,0.0,0.0,0.0,0.0,0.0,0.0,0.0,0.0,0.0,0.0,1.0969,1.1801,1.2679,1.3601,1.3874,1.3748,1.3213,1.2338,1.143,0.0,0.0,0.0,0.0,0.0,0.0,0.0,0.0,0.0,0.0,0.0,0.0,0.0,0.0,0.0,0.0,0.0,0.0,0.0,0.0,0.0,0.0,0.0,0.0,0.0,0.0,0.0,0.0,0.0,0.0,0.0,0.0,0.0,0.0,0.0,0.0,0.0,0.0,0.0,0.0,0.0,0.8891,0.8891,0.8673,0.0,0.0,0.0,0.0,0.888,0.8059,0.0,0.0,0.0,0.0,0.0,0.0,0.0,0.0,0.0,0.0,0.0,0.0,0.0,0.0,0.0,0.0,0.0,0.0,0.0,0.0,0.0,0.0,0.0,0.0,0.0,0.0,0.0,0.0,0.0,0.0,0.0,0.0,0.0,0.0,0.0,0.0,0.0,0.0,0.0,0.0,0.0,0.0,0.0,0.0,0.0,0.0,0.0,0.0,0.0,0.0,0.0,0.0,0.0,0.0,0.0,0.0,1.0937,1.1611,1.2478,1.3574,1.3674,1.354,1.3213,1.2338,1.1336,0.0,0.0,0.0,0.0,0.0,0.0,0.0,0.0,0.0,0.0,0.0,0.0,0.0,0.0,0.0,0.0,0.0,0.0,0.0,0.0,0.0,0.0,0.0,0.0,0.0,0.0,0.0,0.0,0.0,0.0,0.0,0.0,0.0,0.0,0.0,0.0,0.0,0.0,0.0,0.0,0.0,0.9137,0.913,0.9347,0.9183,0.0,0.0,0.8882,0.9742,0.8947,0.0,0.0,0.0,0.0,0.0,0.0,0.0,0.0,0.0,0.0,0.0,0.0,0.0,0.0,0.0,0.0,0.0,0.0,0.0,0.0,0.0,0.0,0.0,0.0,0.0,0.0,0.0,0.0,0.0,0.0,0.0,0.0,0.0,0.0,0.0,0.0,0.0,0.0,0.0,0.0,0.0,0.0,0.0,0.0,0.0,0.0,0.0,0.0,0.0,0.0,0.0,0.0,0.0,0.0,0.0,0.9608,1.0484,1.0861,1.1446,1.2226,1.2407,1.2276,1.1839,1.154,1.0902,0.0,0.0,0.0,0.0,0.0,0.0,0.0,0.0,0.0,0.0,0.0,0.0,0.0,0.0,0.0,0.0,0.0,0.0,0.0,0.0,0.0,0.0,0.0,0.0,0.0,0.0,0.0,0.0,0.0,0.0,0.0,0.0,0.0,0.0,0.0,0.0,0.0,0.0,0.0,0.0,0.0,0.0,0.9101,0.9771,0.0,0.0,0.0,0.7768,0.8448,0.0,0.0,0.0,0.0,0.0,0.0,0.0,0.0,0.0,0.0,0.0,0.0,0.0,0.0,0.0,0.0,0.0,0.0,0.0,0.0,0.0,0.0,0.0,0.0,0.0,0.0,0.0,0.0,0.0,0.0,0.0,0.0,0.0,0.0,0.0,0.0,0.0,0.0,0.0,0.0,0.0,0.0,0.0,0.0,0.0,0.0,0.0,0.0,0.0,0.0,0.0,0.0,0.0,0.0,0.0,0.0,0.0,1.0114,1.03,1.066,1.1177,1.1467,1.1343,1.0795,1.0955,0.0,0.0,0.0,0.0,0.0,0.0,0.0,0.0,0.0,0.0,0.0,0.0,0.0,0.0,0.0,0.0,0.0,0.0,0.0,0.0,0.0,0.0,0.0,0.0,0.0,0.0,0.0,0.3696,0.0,0.0,0.0,0.0,0.0,0.0,0.0,0.0,0.0,0.0,0.0,0.0,0.0,0.0,0.7901,0.8483,0.961,0.9988,0.0,0.0,0.6775,0.7296,0.7261,0.7042,0.0,0.0,0.0,0.0,0.0,0.0,0.0,0.0,0.0,0.0,0.0,0.0,0.0,0.0,0.0,0.0,0.0,0.0,0.0,0.0,0.0,0.0,0.0,0.0,0.0,0.0,0.0,0.0,0.0,0.0,0.0,0.0,0.0,0.0,0.0,0.0,0.0,0.0,0.0,0.0,0.0,0.0,0.0,0.0,0.0,0.0,0.0,0.0,0.0,0.0,0.0,0.0,0.0,0.0,0.0,1.0107,1.03,1.0654,1.1171,1.1206,1.1083,1.0783,1.0955,1.0454,0.0,0.0,0.0,0.0,0.0,0.0,0.0,0.0,0.0,0.0,0.0,0.0,0.0,0.0,0.0,0.0,0.0,0.0,0.0,0.0,0.0,0.0,0.0,0.0,0.0,0.0,0.0,0.0,0.0,0.0,0.0,0.0,0.0,0.0,0.0,0.0,0.0,0.0,0.0,0.0,0.0,0.7456,0.6879,0.8453,0.9173,0.0,0.0,0.6764,0.7231,0.7114,0.6934,0.7047,0.0,0.0,0.0,0.0,0.0,0.0,0.0,0.0,0.0,0.0,0.0,0.0,0.0,0.0,0.0,0.0,0.0,0.0,0.0,0.0,0.0,0.0,0.0,0.0,0.0,0.0,0.0,0.0,0.0,0.0,0.0,0.0,0.0,0.0,0.0,0.0,0.0,0.0,0.0,0.0,0.0,0.0,0.0,0.0,0.0,0.0,0.0,0.0,0.0,0.0,0.0,0.0,0.0,0.9321,0.984,0.9376,0.9472,1.0019,1.0035,0.9846,0.931,1.0269,1.0254,0.0,0.0,0.0,0.0,0.0,0.0,0.0,0.0,0.0,0.0,0.0,0.0,0.0,0.0,0.0,0.0,0.0,0.0,0.0,0.0,0.0,0.0,0.0,0.0,0.0,0.0,0.0,0.0,0.5281,0.5822,0.616,0.0,0.0,0.0,0.0,0.0,0.0,0.0,0.0,0.0,0.0,0.7076,0.7818,0.7138,0.0,0.0,0.5927,0.5661,0.669,0.6164,0.5571,0.5517,0.61,0.0,0.0,0.0,0.0,0.0,0.0,0.0,0.0,0.0,0.0,0.0,0.0,0.0,0.0,0.0,0.0,0.0,0.0,0.0,0.0,0.0,0.0,0.0,0.0,0.0,0.0,0.0,0.0,0.0,0.0,0.0,0.0,0.0,0.0,0.0,0.0,0.0,0.0,0.0,0.0,0.0,0.0,0.0,0.0,0.0,0.0,0.0,0.0,0.0,0.0,0.0,0.0,0.9241,0.9539,0.9057,0.9092,0.9638,0.9638,0.9374,0.8899,0.9717,0.9706,0.0,0.0,0.0,0.0,0.0,0.0,0.0,0.0,0.0,0.0,0.0,0.0,0.0,0.0,0.0,0.0,0.0,0.0,0.0,0.0,0.0,0.0,0.0,0.0,0.0,0.0,0.0,0.0,0.595,0.6562,0.6734,0.0,0.0,0.0,0.0,0.0,0.0,0.0,0.0,0.0,0.0,0.6799,0.7639,0.5542,0.4152,0.5148,0.3704,0.3,0.4452,0.3993,0.3413,0.3428,0.0,0.0,0.0,0.0,0.0,0.0,0.0,0.0,0.0,0.0,0.0,0.0,0.0,0.0,0.0,0.0,0.0,0.0,0.0,0.0,0.0,0.0,0.0,0.0,0.0,0.0,0.0,0.0,0.0,0.0,0.7782,0.0,0.0,0.0,0.0,0.0,0.0,0.0,0.0,0.0,0.0,0.0,0.0,0.0,0.0,0.0,0.0,0.0,0.0,0.0,0.0,0.0,0.0,0.9138,0.9196,0.9627,1.0002,1.0324,1.0341,1.0213,0.9863,0.9344,0.8693,0.7889,0.0,0.0,0.0,0.0,0.0,0.0,0.0,0.0,0.0,0.0,0.0,0.0,0.0,0.0,0.0,0.0,0.0,0.0,0.0,0.0,0.0,0.0,0.0,0.0,0.0,0.0,0.5773,0.6244,0.6364,0.0,0.0,0.0,0.0,0.0,0.0,0.0,0.0,0.0,0.0,0.7517,0.6819,0.5779,0.371,0.2329,0.2268,-0.0221,-0.1569,0.0,0.0231,0.0458,0.0,0.0,0.0,0.0,0.0,0.0,0.0,0.0,0.0,0.0,0.0,0.0,0.0,0.0,0.0,0.0,0.0,0.0,0.0,0.0,0.0,0.0,0.0,0.0,0.0,0.0,0.0,1.0851,1.0273,0.0,0.0,0.0,0.0,0.0,0.0,0.0,0.0,0.0,0.0,0.0,1.3579,1.3589,0.0,0.0,0.0,0.0,0.0,0.0,0.0,0.0,0.0,0.0,0.0,0.0,0.9224,0.9534,0.9621,0.9753,1.0067,1.0073,0.9956,0.9632,0.9186,0.8149,0.6352,0.0,0.0,0.0,0.0,0.0,0.0,0.0,0.0,0.0,0.0,0.0,0.0,0.0,0.0,0.0,0.0,0.0,0.0,0.0,0.0,0.0,0.0,0.0,0.0,0.0,0.4969,0.0,0.0,0.0,0.0,0.0,0.0,0.0,0.0,0.0,0.0,0.0,1.0798,1.0711,0.9267,0.7593,0.5998,0.4576,0.2375,0.0,0.0,0.0,0.0,0.0,0.0,0.0,0.0,0.0,0.0,0.0,0.0,0.0,0.0,0.6443,0.6005,0.6553,0.6753,0.5566,0.0,0.0,0.0,0.0,0.0,0.0,0.0,0.0,0.0,0.0,0.0,0.0,0.0,0.0,1.1855,0.0,1.1143,0.0,0.0,0.0,0.0,0.0,0.0,0.0,0.0,1.2874,1.4001,1.4792,1.4792,1.5416,0.0,1.5843,1.4856,0.0,0.0,0.0,0.0,0.0,0.0,0.0,0.0,0.9948,1.0309,1.0421,1.0505,1.0676,1.043,1.0214,0.9965,0.8962,0.737,0.5238,0.5114,0.5141,0.0,0.0,0.0,0.0,0.0,0.0,0.0,0.0,0.0,0.0,0.0,0.0,0.0,0.0,0.0,0.0,0.0,0.0,0.0,0.0,0.0,0.0,0.0,0.5546,0.0,0.0,0.0,0.0,0.0,0.0,0.0,0.0,0.0,1.1978,1.2318,1.268,1.2892,1.1248,0.9329,0.7437,0.0,0.0,0.0,0.0,0.0,0.0,0.0,-0.9227,-0.9369,-0.8174,-0.7457,-0.8253,-0.7304,-0.6452,-0.6532,0.0,0.0,0.1885,0.2749,0.293,0.2333,0.2361,0.2732,0.355,0.3767,0.3688,0.0,0.0,0.0,0.0,0.0,0.0,0.0,0.0,1.3057,1.2988,0.0,1.251,0.0,0.0,0.0,0.0,0.0,0.0,0.0,0.0,1.3987,1.5002,1.531,1.533,1.6355,1.8235,1.8738,1.8703,1.8064,1.367,0.0,0.0,0.0,0.0,0.0,0.0,1.1221,1.1562,1.1966,1.2228,1.2171,1.1414,1.0962,1.0778,0.8568,0.6437,0.4628,0.465,0.4595,0.4439,0.4734,0.0,0.0,0.0,0.0,0.0,0.0,0.0,0.0,0.0,0.0,0.0,0.0,0.0,0.0,0.0,0.0,0.0,0.0,0.0,0.0,0.5001,0.0,0.0,0.0,0.0,0.0,0.0,0.0,0.0,0.0,0.0,1.3852,1.4312,1.4722,1.4629,0.0,0.0,0.0,0.0,0.3465,0.0057,-0.8342,-1.3394,-1.0483,-1.1885,-1.3342,-1.3379,0.0,0.0,-1.5052,-1.2858,-1.0939,-1.1199,-1.3691,-1.3489,-0.4228,-0.4039,-0.4458,-0.2855,-0.2211,-0.2174,-0.274,-0.2844,-0.2524,1.5928,0.0,0.0,0.0,0.0,1.4502,1.4756,1.5156,1.5213,1.4861,1.4228,1.4111,0.0,0.0,0.0,0.0,0.0,0.0,1.3763,1.4765,1.5355,1.6318,1.7686,1.7728,1.8549,2.0025,1.9839,1.9646,1.943,1.7295,1.5047,1.2804,0.0,0.0,0.0,0.0,1.228,1.2476,1.3161,1.3308,1.2797,1.2007,1.0781,0.926,0.7905,0.6327,0.4583,0.4422,0.4409,0.4591,0.4909,0.0,0.0,0.0,0.0,0.0,0.0,0.0,0.0,0.0,0.0,0.0,0.0,0.0,0.0,0.0,0.0,0.0,0.0,0.0,0.3962,0.5392,0.6592,0.0,0.0,0.0,0.0,0.0,0.0,0.0,0.0,0.0,1.7058,1.701,1.6889,0.0,0.0,1.4372,1.2821,0.9723,0.5748,0.0682,0.0,0.0,0.0,-1.6098,-1.8204,-1.8918,-1.8867,-1.9106,-2.0036,-1.8377,-1.7115,-1.7681,-1.7081,-1.5957,-1.5201,-1.4381,-1.2498,-0.8145,-0.671,-0.7701,-1.0433,-1.1094,-1.0947,1.8057,1.6875,1.6025,1.5674,1.5664,1.5674,1.5928,1.6328,1.6328,1.6133,1.587,1.5968,1.5517,1.4578,1.4407,0.0,0.0,0.0,1.5427,1.6374,1.6493,1.7326,1.865,1.8727,1.9581,2.1099,2.0846,2.0826,2.106,1.9867,1.8091,1.5737,0.0,0.0,1.2922,1.3515,1.4041,1.443,1.4541,1.4364,1.3907,1.2393,1.0509,0.8364,0.7526,0.6309,0.4563,0.4275,0.4203,0.44,0.487,0.5329,0.0,0.0,0.0,0.0,0.0,0.0,0.0,0.0,0.0,0.0,0.0,0.4925,0.4326,0.0,0.0,0.0,0.2924,0.3259,0.4699,0.5941,0.0,0.0,0.0,0.0,0.0,0.0,0.0,1.5497,1.6747,1.7887,1.9177,1.9372,1.9381,1.9396,1.8627,1.7671,1.6554,0.0,0.857,0.1968,-0.988,-1.7836,-1.701,-1.976,-2.2307,-2.2852,-2.3057,-2.3,-2.2918,-2.1715,-2.1022,-2.1487,-2.0597,-1.9865,-2.0883,-2.0337,-1.8297,-1.3362,-1.2047,-1.2752,-1.4957,-1.5337,-1.5324,1.9856,1.9305,1.7457,1.6574,1.6382,1.6331,1.6547,1.688,1.689,1.7105,1.753,1.7926,1.7846,1.7328,1.6826,0.0,0.0,1.6991,1.7148,1.724,1.7537,1.8071,1.8756,1.8821,1.9813,2.1697,2.1697,2.2039,2.262,2.1566,2.0411,1.9229,1.6674,1.5314,1.52,1.5598,1.6218,1.7104,1.6084,1.5458,1.5148,1.2689,1.0247,0.7932,0.7367,0.6225,0.4556,0.4185,0.3999,0.3959,0.4694,0.5313,0.5695,0.0,0.0,0.0,0.0,0.0,0.0,0.0,0.0,0.0,0.0,0.0,0.0,0.0,0.0,0.0,0.3635,0.0,0.5338,0.6532,0.0,0.0,0.0,1.0949,1.1942,1.2938,1.4456,1.6896,0.0,0.0,2.0177,0.0,2.196,2.2164,2.1871,2.1359,2.0609,1.7289,1.191,0.3441,-1.0423,-1.9779,-1.9807,-2.2867,-2.5405,-2.5523,-2.5688,-2.5399,-2.4671,-2.3535,-2.3191,-2.3896,-2.4182,-2.393,-2.3124,-2.2573,-2.1558,-1.8607,-1.752,-1.697,-1.6648,-1.6532,-1.6515,2.1246,2.0938,2.1161,2.0379,1.8931,1.8279,1.8295,1.8668,1.8658,1.8524,1.835,1.9109,1.9221,1.8814,1.8643,1.86,1.8578,1.8265,1.8445,1.8932,1.8618,1.8821,1.9515,1.9527,2.0307,2.1649,2.1697,2.2039,2.2649,2.2415,2.164,2.0493,1.9798,1.8789,1.756,1.7949,1.825,1.8458,1.8078,1.6645,1.4138,1.2663,1.055,0.7767,0.7062,0.5919,0.4204,0.4138,0.4143,0.4117,0.4075,0.4521,0.5631,0.5571,0.0,0.0,0.0,0.0,0.0,0.0,0.0,0.0,0.0,0.5346,0.3924,0.0,0.5132,0.0,0.3735,0.3896,0.5081,0.6473,0.0,0.0,1.0945,1.2257,1.3245,1.3678,1.4425,1.5793,1.7075,1.828,1.9406,2.137,2.3209,2.4503,2.4108,2.3363,2.245,2.1706,1.6311,0.3182,-1.2059,-2.2306,-2.3179,-2.539,-2.7323,-2.7762,-2.7147,-2.6754,-2.7153,-2.5873,-2.4996,-2.5553,-2.5337,-2.4747,-2.3896,-2.3733,-2.3218,-2.1748,-2.0352,-1.9161,-1.8379,-1.8201,-1.8099,2.255,2.2396,2.2895,2.2481,2.134,2.026,1.9853,1.989,1.9879,1.9727,1.9532,2.0115,2.0484,2.0641,2.0415,2.0308,2.0248,1.9713,1.9715,2.0049,1.947,1.9379,1.9798,1.9798,2.0471,2.1697,2.1697,2.2179,2.3039,2.283,2.2341,2.1682,2.1712,2.1057,1.9842,1.9562,1.9541,1.9709,1.8551,1.6337,1.3126,1.224,1.0314,0.7333,0.6815,0.5833,0.4298,0.4187,0.4164,0.4104,0.3902,0.404,0.473,0.5099,0.5202,0.0,0.0,0.0,0.0,0.0,0.0,0.0,0.0,0.0,0.0,0.0,0.5933,0.0,0.3963,0.414,0.5448,0.672,0.8049,0.9439,1.0822,1.2018,1.2886,1.332,1.3958,1.5028,1.5262,1.5834,1.7244,1.9752,2.1915,2.3289,2.3901,2.4474,2.5132,2.5522,2.0146,0.4213,-1.3928,-2.6059,-2.6363,-2.7317,-2.8139,-2.8203,-2.7793,-2.7561,-2.8026,-2.7918,-2.748,-2.6681,-2.5867,-2.5124,-2.4615,-2.4309,-2.3951,-2.332,-2.2332,-2.1215,-2.0244,-2.0131,-2.0116,2.3672,2.3672,2.3806,2.3734,2.3375,2.2278,2.1433,2.0782,2.0899,2.1014,2.1232,2.1463,2.1996,2.2661,2.2134,2.1863,2.1837,2.1112,2.0824,2.0794,2.01,1.9798,1.9798,1.9798,2.0471,2.1697,2.1697,2.2317,2.345,2.2979,2.2663,2.2558,2.2591,2.2283,2.1669,2.0643,2.0254,2.0475,1.8202,1.5447,1.23,1.1772,0.9976,0.6934,0.6627,0.5923,0.4535,0.4345,0.4195,0.4038,0.3801,0.3697,0.3757,0.4631,0.4939,0.0,0.3858,0.0,0.0,0.0,0.0,0.0,0.0,0.0,0.0,0.7273,0.6499,0.5019,0.4258,0.4466,0.5901,0.6877,0.7841,0.8856,1.006,1.1024,1.1599,1.2433,1.2956,1.3027,1.1375,1.0835,1.2786,1.5724,1.769,1.8448,1.9884,2.149,2.4662,2.6843,2.2307,0.4802,-1.5839,-2.8795,-2.857,-2.8438,-2.8276,-2.8048,-2.7954,-2.8051,-2.822,-2.9141,-2.9367,-2.7526,-2.6164,-2.5322,-2.5148,-2.4693,-2.4321,-2.4081,-2.366,-2.3,-2.1938,-2.1769,-2.194,2.4707,2.4779,2.5581,2.5395,2.4471,2.4295,2.322,2.1678,2.2299,2.3297,2.4486,2.4576,2.4649,2.4761,2.4059,2.3791,2.3668,2.2076,2.1355,2.1305,2.0275,1.9798,1.9798,1.9798,2.0471,2.1649,2.1697,2.21,2.2875,2.274,2.2452,2.1885,2.1894,2.1849,2.1669,0.0,0.0,0.0,1.7748,1.5711,1.3059,1.2006,1.0151,0.7424,0.6866,0.0,0.4379,0.4382,0.4429,0.4368,0.3194,0.0,0.0,0.0,0.0,0.0,0.0,0.0,0.0,0.0,0.0,0.0,0.7157,0.7485,0.7048,0.6227,0.5445,0.4779,0.4375,0.4375,0.5063,0.5971,0.681,0.7552,0.917,1.0312,1.0466,1.1829,1.0806,0.4626,-0.0818,-0.2113,0.3138,0.5285,0.6996,0.9057,1.0037,1.0865,1.173,2.108,2.0406,0.1346,-1.7779,-2.8516,-2.8754,-2.8107,-2.7715,-2.8282,-2.81,-2.8196,-2.8952,-2.8785,-2.878,-2.8277,-2.6933,-2.5542,-2.531,-2.5158,-2.4959,-2.4712,-2.4672,-2.4262,-2.2746,-2.2441,-2.2556,2.5734,0.0,2.5934,2.58,0.0,2.5062,2.4433,2.3644,2.3644,2.4284,2.5398,2.5398,2.5398,2.5356,2.4624,2.4134,2.3804,2.224,2.1343,2.1041,2.02,1.9798,1.9798,1.9798,2.0283,2.1245,2.1259,2.1582,2.2193,2.2207,2.2053,2.1697,2.1703,2.1579,2.1245,2.0246,1.9221,1.8144,1.6503,1.4666,1.2705,1.1366,0.968,0.7692,0.0,0.0,0.0,0.0,0.0,0.0,0.0,0.0,0.0,0.0,0.0,0.381,0.3681,0.3515,0.3279,0.3981,0.502,0.6446,0.7297,0.7621,0.7287,0.6287,0.5383,0.4878,0.4419,0.4476,0.506,0.5713,0.6015,0.5863,0.5427,0.5627,0.7035,0.7464,0.2822,-0.8228,-1.3718,-1.3466,-0.6407,-0.4428,-0.2346,0.0589,0.1902,0.2347,0.3112,1.0169,0.8865,-0.9651,-1.9634,-2.6154,-2.5955,-2.5441,-2.5464,-2.6249,-2.6677,-2.7318,-2.8549,-2.8403,-2.812,-2.7995,-2.6652,-2.5469,-2.5425,-2.5368,-2.524,-2.4991,-2.4929,-2.469,-2.3726,-2.3495,-2.3492,2.6521,2.6402,2.5837,2.5703,2.5867,2.5327,2.5275,2.5563,0.0,0.0,0.0,2.5783,2.5783,2.5742,2.4894,2.423,2.3668,2.2219,2.1242,2.0832,2.0112,1.9798,1.9798,1.9798,2.0156,2.0809,2.0809,2.1077,2.152,2.152,2.1411,2.1205,2.1183,2.0851,2.0178,1.898,1.7961,1.7236,1.5245,1.3451,1.2041,1.0431,0.902,0.7723,0.6775,0.5944,0.5375,0.4609,0.3664,0.2675,0.2856,0.3275,0.3931,0.3774,0.3667,0.3585,0.3401,0.3366,0.3574,0.405,0.4969,0.6441,0.7097,0.7513,0.7624,0.6541,0.5543,0.4857,0.4458,0.4389,0.4733,0.4793,0.4402,0.3194,0.0526,-0.0103,0.2203,0.0335,-0.6687,-1.9546,-2.279,-2.1654,-1.4955,-1.3171,-1.1487,-0.8322,-0.7236,-0.6309,-0.6219,-0.4007,-0.6337,-1.9369,-2.3583,-2.3986,-2.3105,-2.2848,-2.2867,-2.413,-2.5083,-2.6148,-2.7305,-2.7768,-2.7632,-2.7423,-2.6155,-2.5357,-2.5256,-2.5224,-2.5139,-2.4994,-2.4836,-2.4772,-2.4767,-2.4616,-2.4516,2.6521,2.6414,2.5837,2.5703,2.5853,2.5327,2.5564,2.6297,2.6229,2.6616,2.7306,2.7306,2.7306,2.7188,2.5892,2.5176,2.497,2.2609,2.1443,0.0,2.0288,1.9798,1.9798,1.9798,2.0156,2.0759,2.0809,2.0858,2.0944,2.093,2.0307,1.9282,1.9146,1.8758,1.8045,1.7245,1.6556,1.6127,1.4831,1.3327,1.1601,0.9813,0.8488,0.7717,0.6328,0.5558,0.5446,0.4555,0.4059,0.4085,0.1809,0.1555,0.3812,0.392,0.3825,0.3567,0.2637,0.2497,0.3491,0.3808,0.4625,0.6097,0.6665,0.7191,0.7766,0.6228,0.498,0.4376,0.4294,0.3932,0.2804,0.1532,0.0054,-0.1837,-0.4619,-0.5428,-0.3441,-0.9088,-1.5464,-2.1664,-2.338,-2.3301,-2.0556,-2.0128,-1.9886,-1.937,-1.8173,-1.9257,-1.8932,-2.0407,-2.1151,-2.3025,-2.3785,-2.3481,-2.2263,-2.2378,-2.2443,-2.2953,-2.4335,-2.5674,-2.6853,-2.6968,-2.701,-2.7344,-2.5935,-2.4915,-2.4525,-2.4672,-2.4837,-2.4828,-2.4697,-2.4794,-2.5455,-2.5412,-2.522,2.6345,2.5925,2.5398,2.551,2.6053,2.6315,2.6701,2.7137,2.7464,2.758,2.7625,2.7959,2.7894,2.7458,2.604,2.5218,2.4777,2.2548,2.133,2.0991,2.0188,1.9798,1.9798,1.9798,1.9952,2.0245,2.0245,2.0029,1.9709,1.9645,1.9125,1.8167,1.8104,1.772,1.6983,1.6106,1.522,1.4389,1.3485,1.2529,1.1525,0.9316,0.8025,0.7723,0.6202,0.5394,0.5394,0.4462,0.3688,0.3055,0.1739,0.1261,0.1756,0.1847,0.1783,0.1652,0.1558,0.1542,0.1657,0.3099,0.4184,0.4748,0.4711,0.4009,0.2519,0.4616,0.5008,0.299,0.2815,0.2044,0.0054,-0.219,-0.4275,-0.5962,-1.0547,-1.233,-1.0322,-1.3613,-1.8801,-2.2948,-2.4336,-2.4387,-2.3614,-2.3881,-2.4505,-2.5005,-2.5492,-2.5597,-2.5249,-2.5478,-2.5067,-2.3332,-2.2774,-2.1888,-2.048,-1.9931,-2.0287,-2.1059,-2.265,-2.4261,-2.5611,-2.594,-2.5928,-2.5981,-2.5133,-2.4521,-2.4225,-2.4473,-2.4685,-2.4775,-2.4746,-2.5023,-2.5581,-2.5708,-2.5431,2.6126,2.5548,2.5034,2.5244,2.6131,2.7187,2.756,2.766,2.8238,2.814,2.771,2.8238,2.8238,2.7695,2.6308,2.5324,2.4524,2.2679,2.1441,2.0841,2.0114,1.9798,1.9798,1.9798,1.9798,1.9798,1.9798,1.9423,1.878,1.8727,1.8221,1.7401,1.7025,1.6528,1.5946,1.4932,1.3848,1.2848,1.2083,1.1515,1.1084,0.8711,0.745,0.7331,0.5942,0.5129,0.5068,0.4411,0.3385,0.1976,0.1546,0.066,-0.0877,-0.1014,-0.0966,-0.0871,-0.032,-0.0046,-0.0194,0.1542,0.2883,0.3118,0.2394,0.0659,-0.1818,0.0822,0.2583,0.0935,0.0329,-0.0868,-0.339,-0.6513,-0.8963,-1.0597,-1.5514,-1.7561,-1.5669,-1.7361,-2.0416,-2.428,-2.5139,-2.5302,-2.5732,-2.6007,-2.6734,-2.8149,-2.875,-2.86,-2.8121,-2.7548,-2.6111,-2.4123,-2.2542,-2.1115,-1.9179,-1.8342,-1.849,-1.9357,-2.0952,-2.2647,-2.4083,-2.4648,-2.489,-2.4838,-2.4544,-2.4255,-2.4228,-2.4353,-2.4513,-2.461,-2.4778,-2.5213,-2.6135,-2.6635,-2.6213,2.6113,2.5548,2.5008,2.5023,2.5647,2.6997,2.756,2.766,2.8222,2.8189,2.776,2.8238,2.8463,2.8222,2.6953,2.5979,2.5232,2.3365,2.2168,2.1394,2.0309,1.9798,1.9798,1.9798,1.9798,1.9798,1.9798,1.9371,1.8661,1.8608,1.795,1.6574,1.5205,1.4513,1.432,1.3327,1.2572,1.2016,1.1102,1.0447,0.9874,0.7818,0.6696,0.6696,0.532,0.4608,0.4594,0.4481,0.3708,0.2242,0.0915,-0.1127,-0.3611,-0.4053,-0.3901,-0.3602,-0.3497,-0.2938,-0.1561,-0.1134,-0.022,0.1321,-0.011,-0.1968,-0.4037,-0.5972,-0.5503,-0.3233,-0.3118,-0.492,-0.7443,-1.1202,-1.3905,-1.5164,-1.7979,-1.9589,-1.9896,-2.1821,-2.3803,-2.5038,-2.5251,-2.5545,-2.6979,-2.7441,-2.8232,-2.9762,-2.9868,-2.9718,-2.9317,-2.8855,-2.8062,-2.6407,-2.4491,-2.2033,-2.0009,-1.8846,-1.8766,-1.847,-1.9982,-2.1844,-2.2995,-2.3833,-2.4303,-2.4559,-2.4325,-2.4169,-2.4206,-2.4228,-2.4321,-2.4617,-2.5079,-2.5832,-2.7232,-2.8199,-2.8091,2.5624,2.5096,2.4556,2.4758,2.5564,2.6967,2.756,2.766,2.8222,2.8559,2.8685,2.8919,2.8654,2.7894,2.6916,2.615,2.5386,2.3903,2.264,2.1588,2.077,2.0194,1.985,1.9798,1.9798,1.9747,1.9371,1.8768,1.8004,1.718,1.6167,1.5245,1.4501,1.3974,1.3468,1.2256,1.1478,1.1272,1.0102,0.9164,0.8468,0.7283,0.6588,0.648,0.5226,0.4463,0.446,0.4474,0.3778,0.2275,0.0784,-0.138,-0.4336,-0.4473,-0.4665,-0.4902,-0.4922,-0.4833,-0.4525,-0.4513,-0.3808,-0.2194,-0.4321,-0.6377,-0.7961,-0.9249,-0.9271,-0.8634,-0.8747,-0.9795,-1.1537,-1.409,-1.6494,-1.852,-2.0845,-2.232,-2.2428,-2.3614,-2.5062,-2.6576,-2.6339,-2.6521,-2.8011,-2.8777,-2.9402,-3.0237,-3.031,-3.0171,-3.0004,-2.9718,-2.9118,-2.8088,-2.6731,-2.5086,-2.2864,-2.1629,-2.0953,-2.0677,-2.1435,-2.2626,-2.3584,-2.3854,-2.4271,-2.4454,-2.4188,-2.4057,-2.4169,-2.4746,-2.506,-2.5245,-2.6046,-2.7074,-2.7695,-2.8547,-2.8707,2.5423,2.4822,2.4476,2.4896,2.5783,2.7019,2.756,2.7675,2.8091,2.8606,2.9134,2.9134,2.8779,2.8046,2.7184,2.6409,2.5663,2.4312,2.2894,2.1669,2.108,2.0446,1.985,1.9798,1.9695,1.9423,1.8992,1.8232,1.7257,1.6019,1.501,1.4259,1.3865,1.3288,1.2586,1.13,1.0573,1.0468,0.9369,0.8427,0.7723,0.6966,0.6529,0.6204,0.5117,0.4463,0.447,0.4487,0.3999,0.2862,0.027,-0.1978,-0.3718,-0.4488,-0.5153,-0.5752,-0.5897,-0.6082,-0.655,-0.6577,-0.619,-0.5421,-0.7362,-0.9633,-1.1291,-1.153,-1.1992,-1.3258,-1.3687,-1.4194,-1.5205,-1.6636,-1.8629,-2.1138,-2.3358,-2.4529,-2.4762,-2.5262,-2.6197,-2.767,-2.7408,-2.7473,-2.8627,-2.9288,-2.976,-3.0275,-3.0222,-3.024,-3.0308,-3.0138,-2.9779,-2.9247,-2.8706,-2.7656,-2.5936,-2.4304,-2.3529,-2.2998,-2.3193,-2.3608,-2.4539,-2.4245,-2.3994,-2.3934,-2.3837,-2.437,-2.5225,-2.5811,-2.6126,-2.6433,-2.7153,-2.8079,-2.8437,-2.8818,-2.9157,2.5799,2.4887,2.5204,2.5715,2.6496,2.7255,2.756,2.7625,2.7675,2.7993,2.8559,2.8606,2.8873,2.9207,2.8014,2.7087,2.6243,2.4557,2.3041,2.1739,2.1104,2.0446,1.985,1.9798,1.9475,1.8939,1.8715,1.7907,1.6606,1.5791,1.4999,1.4172,1.3007,1.2179,1.1684,1.0526,0.9778,0.9658,0.9086,0.8368,0.767,0.6912,0.6204,0.5546,0.4897,0.4473,0.449,0.4438,0.4383,0.4343,-0.1061,-0.3699,-0.2775,-0.459,-0.6013,-0.6489,-0.6607,-0.6617,-0.6725,-0.6843,-0.6709,-0.6749,-0.8103,-1.0368,-1.3661,-1.3359,-1.3829,-1.5929,-1.6805,-1.7616,-1.8407,-1.9455,-2.1157,-2.3506,-2.4914,-2.6022,-2.693,-2.6934,-2.7303,-2.794,-2.8126,-2.8364,-2.8802,-2.8893,-2.9541,-3.0105,-2.9904,-2.9718,-3.0354,-3.029,-3.0138,-3.0083,-2.9715,-2.9077,-2.8072,-2.6639,-2.5287,-2.4723,-2.4558,-2.4331,-2.3998,-2.3805,-2.3768,-2.3798,-2.4357,-2.5221,-2.6422,-2.7044,-2.7198,-2.7514,-2.8045,-2.8704,-2.9045,-2.9063,-2.9289,2.5065,2.4541,2.5141,2.5851,2.6563,2.7306,2.756,2.756,2.756,2.8174,2.895,2.9088,2.9629,3.0452,2.8739,2.7434,2.6417,2.5285,2.3701,2.1833,2.1472,2.0805,1.985,1.9798,1.9695,1.9319,1.8436,1.7235,1.5941,1.5517,1.4731,1.3527,1.2611,1.1798,1.1008,1.0132,0.9472,0.8959,0.841,0.7503,0.6411,0.6032,0.5546,0.4897,0.4625,0.447,0.4484,0.358,0.3474,0.4462,-0.1234,-0.4235,-0.3922,-0.5395,-0.6647,-0.7289,-0.8131,-0.8646,-0.8698,-0.9051,-0.8871,-0.8287,-1.0089,-1.2126,-1.4222,-1.4958,-1.5719,-1.7183,-1.879,-2.0079,-2.1391,-2.2174,-2.3345,-2.5298,-2.6709,-2.7431,-2.7569,-2.8037,-2.8728,-2.9241,-2.9179,-2.9002,-2.9344,-2.9301,-2.9494,-3.0333,-3.0309,-3.0286,-3.0498,-3.0494,-3.0429,-3.0369,-3.0219,-2.9975,-2.9712,-2.8652,-2.7564,-2.6899,-2.6508,-2.6464,-2.6247,-2.6054,-2.6036,-2.5226,-2.5478,-2.6283,-2.7538,-2.803,-2.8212,-2.8869,-2.9379,-2.932,-2.9657,-2.9566,-2.9584,2.4854,2.4945,2.4989,2.5769,2.6811,2.7152,2.7408,2.756,2.761,2.8255,2.9225,2.9406,2.9966,3.0494,2.918,2.7814,2.6661,2.5581,2.4085,2.2349,2.1871,2.1135,2.0232,1.9901,1.9695,1.9267,1.7961,1.6585,1.5556,1.5407,1.4565,1.3039,1.2188,1.1363,1.058,0.9813,0.9051,0.8521,0.7766,0.674,0.5651,0.5483,0.5167,0.4629,0.4467,0.447,0.4484,0.3469,0.2573,0.1847,-0.1625,-0.4212,-0.5128,-0.61,-0.702,-0.8043,-0.9138,-0.9821,-0.9865,-1.0415,-1.0404,-0.9642,-1.147,-1.3519,-1.5487,-1.6166,-1.7001,-1.8318,-1.9718,-2.1526,-2.3457,-2.4385,-2.5326,-2.6809,-2.8035,-2.8677,-2.8587,-2.9207,-2.9833,-3.0114,-2.9575,-2.9486,-2.987,-2.9282,-2.9477,-3.0406,-3.0443,-3.0364,-3.0605,-3.0685,-3.0636,-3.0483,-3.0459,-3.0395,-3.0243,-2.9586,-2.8666,-2.7999,-2.7705,-2.7925,-2.786,-2.7848,-2.7674,-2.6885,-2.6959,-2.7737,-2.8364,-2.8886,-2.9471,-3.0133,-3.012,-2.9932,-3.0037,-3.0028,-3.0008,2.5344,2.5928,2.4865,2.5605,2.7203,2.6826,2.693,2.7458,2.7575,2.8255,2.9225,2.9316,2.955,2.9805,2.9143,2.8256,2.6918,2.5338,2.4147,2.3274,2.2289,2.1438,2.0709,2.0144,1.9423,1.8661,1.7246,1.6208,1.543,1.5365,1.4581,1.2989,1.1469,1.0674,1.0555,0.9296,0.8593,0.816,0.72,0.6263,0.5592,0.5437,0.512,0.4588,0.448,0.4487,0.4494,0.4392,0.241,-0.1401,-0.213,-0.3666,-0.5959,-0.6573,-0.7235,-0.8527,-0.9413,-0.9821,-0.9917,-1.0568,-1.0997,-1.0997,-1.2109,-1.4337,-1.6704,-1.6991,-1.7437,-1.906,-2.0379,-2.2003,-2.4668,-2.5983,-2.6972,-2.801,-2.8827,-2.9543,-3.0259,-3.0613,-3.0614,-3.0364,-2.964,-2.9506,-2.9783,-2.9252,-2.909,-3.012,-3.0235,-3.0098,-3.0625,-3.0781,-3.0781,-3.0673,-3.0612,-3.0609,-3.0575,-3.0432,-2.957,-2.8831,-2.8655,-2.8636,-2.8218,-2.8097,-2.8365,-2.7842,-2.8138,-2.8858,-2.9295,-2.9784,-3.0005,-3.0474,-3.0442,-3.0362,-3.0312,-3.0273,-3.0299,2.5544,2.6256,2.5439,2.5728,2.6774,2.6616,2.6669,2.6878,2.7357,2.8027,2.8685,2.8779,2.8844,2.8828,2.8504,2.7717,2.6516,2.5401,2.4455,2.3563,2.2741,2.1833,2.0944,2.061,1.9606,1.8112,1.7523,1.6585,1.5585,1.5413,1.4599,1.2997,1.1358,1.0321,0.974,0.8963,0.8166,0.7003,0.6431,0.5681,0.4908,0.4805,0.4705,0.4546,0.4497,0.4507,0.4507,0.4511,0.179,-0.3431,-0.2753,-0.3566,-0.5973,-0.6578,-0.7289,-0.8692,-0.9865,-1.0466,-1.0618,-1.1534,-1.2211,-1.2426,-1.3377,-1.4903,-1.6782,-1.7693,-1.8399,-1.9634,-2.101,-2.3032,-2.5091,-2.6483,-2.7742,-2.9252,-2.9843,-3.0201,-3.0598,-3.07,-3.0358,-2.9811,-2.9463,-2.9456,-2.9567,-2.9077,-2.9466,-3.0385,-3.0527,-3.0605,-3.0781,-3.0859,-3.0879,-3.0801,-3.0784,-3.0731,-3.0665,-3.054,-3.0005,-2.9503,-2.9393,-2.906,-2.8643,-2.8702,-2.8925,-2.9063,-2.9369,-2.9699,-3.0183,-3.0469,-3.0605,-3.0625,-3.0533,-3.0501,-3.0475,-3.0448,-3.0448,2.5894,2.6418,2.5742,2.6,2.6826,2.6616,2.6669,2.693,2.7423,2.7944,2.8431,2.8527,2.848,2.8302,2.8005,2.7163,2.6086,2.5259,2.4418,2.3586,2.2965,2.2221,2.1465,2.0993,1.9697,1.795,1.7578,1.6856,1.542,1.499,1.4162,1.2891,1.1373,1.0193,0.9268,0.8549,0.7544,0.647,0.5766,0.4802,0.3855,0.3638,0.3928,0.4389,0.4507,0.337,0.1566,0.1174,-0.0559,-0.3652,-0.354,-0.4294,-0.6372,-0.6642,-0.7289,-0.8685,-0.9969,-1.0813,-1.0914,-1.2049,-1.3044,-1.3471,-1.4347,-1.5612,-1.6977,-1.8379,-1.9334,-2.0319,-2.1943,-2.3771,-2.55,-2.687,-2.828,-2.9813,-3.0301,-3.06,-3.0672,-3.0675,-3.05,-2.9985,-2.9597,-2.9553,-2.9736,-2.9564,-2.9862,-3.0509,-3.082,-3.0918,-3.0918,-3.0918,-3.0898,-3.0898,-3.0884,-3.0813,-3.0724,-3.0547,-3.0348,-3.0163,-3.0042,-2.9569,-2.9082,-2.9562,-2.9894,-2.9767,-2.9947,-2.9987,-3.0391,-3.0605,-3.0762,-3.0703,-3.0625,-3.0581,-3.0548,-3.0521,-3.0506,2.6357,2.6472,2.5783,2.6269,2.7306,2.6759,2.6826,2.7423,2.7575,2.7845,2.8222,2.8207,2.8093,2.7876,2.7123,2.6325,2.5538,2.4729,2.4128,2.3564,2.3083,2.2649,2.2207,2.1272,1.9684,1.7895,1.7578,1.68,1.542,1.4657,1.3578,1.2923,1.1575,1.0117,0.9116,0.8045,0.7229,0.6378,0.5087,0.3633,0.2399,0.2119,0.2629,0.3828,0.3373,0.1063,-0.2805,-0.3538,-0.3937,-0.4507,-0.4376,-0.4959,-0.6258,-0.6588,-0.7289,-0.8699,-1.0072,-1.0661,-1.1074,-1.2236,-1.3283,-1.3971,-1.4867,-1.63,-1.7946,-1.9068,-2.0184,-2.1381,-2.2907,-2.4398,-2.585,-2.7202,-2.8556,-2.9734,-3.0299,-3.0535,-3.0667,-3.0642,-3.0508,-3.0391,-2.9939,-2.9697,-3.0306,-2.9873,-3.0122,-3.0507,-3.084,-3.0898,-3.0918,-3.0918,-3.0918,-3.0918,-3.0918,-3.0879,-3.0781,-3.0677,-3.049,-3.0433,-3.0367,-3.0025,-2.9655,-3.0121,-3.0448,-3.0356,-3.0307,-3.0378,-3.0508,-3.0742,-3.082,-3.0762,-3.0703,-3.0664,-3.062,-3.0593,-3.0568,2.6761,2.7203,2.6496,2.6443,2.6774,2.6549,2.663,2.6878,2.7408,2.7393,2.7174,2.7004,2.6506,2.5488,2.5276,2.4693,2.4298,2.3934,2.3719,2.3588,2.3448,2.2756,2.2007,2.1161,1.9684,1.7852,1.7578,1.6856,1.5468,1.4956,1.4203,1.2993,1.2088,1.0491,0.8628,0.7812,0.6703,0.5352,0.3694,0.2734,0.212,0.1118,0.0728,0.0896,-0.084,-0.2583,-0.4399,-0.4497,-0.4494,-0.4497,-0.4477,-0.5164,-0.6455,-0.6681,-0.7396,-0.8738,-1.0064,-1.0813,-1.1157,-1.2502,-1.3679,-1.4109,-1.4952,-1.6517,-1.9046,-1.9823,-2.1006,-2.2425,-2.371,-2.4775,-2.6,-2.7327,-2.8596,-2.9593,-3.0185,-3.0505,-3.0599,-3.0644,-3.0488,-2.998,-3.0215,-3.0208,-3.0081,-3.0273,-3.0527,-3.0762,-3.0859,-3.0918,-3.0918,-3.0918,-3.0918,-3.0918,-3.0918,-3.0898,-3.084,-3.0742,-3.0667,-3.0627,-3.0577,-3.0498,-3.0259,-3.0383,-3.0525,-3.0513,-3.0488,-3.0521,-3.0684,-3.0879,-3.0859,-3.082,-3.0762,-3.0703,-3.0684,-3.0637,-3.0626,2.7188,2.7575,2.7152,2.693,2.6982,2.6982,2.6982,2.6982,2.7049,2.693,2.651,2.6176,2.5572,2.4858,2.483,2.4601,2.4279,2.4267,2.4192,2.3846,2.3436,2.2649,2.1771,2.1064,1.9697,1.7797,1.7578,1.6743,1.5459,1.479,1.39,1.2952,1.2011,1.0288,0.8215,0.7609,0.6593,0.5044,0.3647,0.2683,0.1283,0.0448,-0.0785,-0.1684,-0.3722,-0.4458,-0.4501,-0.4754,-0.4912,-0.4912,-0.4959,-0.5542,-0.6886,-0.7368,-0.8019,-0.9211,-1.0466,-1.1316,-1.1846,-1.3024,-1.4136,-1.4946,-1.5581,-1.6811,-1.8753,-2.0193,-2.1927,-2.3971,-2.4749,-2.5584,-2.6548,-2.7843,-2.8837,-2.9494,-2.9996,-3.0324,-3.0424,-3.0168,-3.0098,-3.0027,-3.0116,-3.0322,-3.0019,-3.0547,-3.0762,-3.0879,-3.0898,-3.0918,-3.0918,-3.0918,-3.0918,-3.0918,-3.0918,-3.0898,-3.0898,-3.082,-3.0781,-3.0761,-3.0726,-3.0685,-3.0626,-3.0598,-3.0598,-3.0621,-3.0646,-3.0684,-3.082,-3.0918,-3.0898,-3.0859,-3.0801,-3.0781,-3.0762,-3.0703,-3.0671,2.756,2.756,2.756,2.756,2.756,2.756,2.7458,2.7306,2.6826,2.6322,2.5863,2.537,2.4883,2.5065,2.451,2.4969,2.505,2.4922,2.4771,2.4151,2.3334,2.2399,2.171,2.1064,1.9633,1.7895,1.7578,1.6743,1.5507,1.4043,1.3321,1.2834,1.167,0.9894,0.8329,0.7649,0.6556,0.5175,0.4467,0.3254,0.1229,-0.0112,-0.2023,-0.3666,-0.411,-0.4612,-0.4812,-0.5175,-0.5597,-0.586,-0.5701,-0.6352,-0.7605,-0.8376,-0.9148,-1.0049,-1.1208,-1.2141,-1.2908,-1.3679,-1.4755,-1.5972,-1.6421,-1.7083,-1.8604,-2.0607,-2.2761,-2.4629,-2.5725,-2.6393,-2.7458,-2.8655,-2.9161,-2.9434,-2.9712,-2.999,-3.0005,-2.9656,-2.967,-3.0392,-2.9933,-3.0039,-3.0389,-3.0703,-3.0742,-3.082,-3.0859,-3.0918,-3.0918,-3.0918,-3.0918,-3.0918,-3.0918,-3.0918,-3.0918,-3.0898,-3.0898,-3.0871,-3.0857,-3.0813,-3.0721,-3.0678,-3.0656,-3.0664,-3.0675,-3.0742,-3.0859,-3.0918,-3.0898,-3.0898,-3.0859,-3.0859,-3.0871,-3.0781,-3.0732,2.756,2.756,2.756,2.756,2.756,2.756,2.7255,2.6721,2.6549,2.5384,2.4045,2.3592,2.3323,2.2807,2.3188,2.3255,2.4619,2.4691,2.4405,2.4313,2.3201,2.2385,2.1738,2.1113,1.9633,1.8112,1.7633,1.68,1.5565,1.4932,1.4204,1.3009,1.2328,1.0933,0.8324,0.7649,0.6717,0.5242,0.4643,0.3937,0.2294,-0.1175,-0.3548,-0.4573,-0.4556,-0.4927,-0.5411,-0.555,-0.6288,-0.7304,-0.7202,-0.7362,-0.8416,-0.8783,-0.9695,-1.1106,-1.2122,-1.2908,-1.3648,-1.488,-1.599,-1.6481,-1.7263,-1.8175,-1.9174,-2.1022,-2.2668,-2.3981,-2.4995,-2.6531,-2.8231,-2.8833,-2.9093,-2.9206,-2.9495,-2.9796,-2.9858,-3.0016,-3.0186,-3.0365,-3.0366,-3.0414,-3.0576,-3.0668,-3.0703,-3.0742,-3.082,-3.0898,-3.0918,-3.0918,-3.0918,-3.0918,-3.0918,-3.0918,-3.0918,-3.0918,-3.0918,-3.0898,-3.0877,-3.0859,-3.078,-3.0721,-3.0682,-3.0687,-3.0702,-3.0781,-3.0898,-3.0879,-3.0859,-3.0879,-3.0898,-3.084,-3.0789,-3.0776,-3.0766,2.756,2.756,2.756,2.7408,2.71,2.7086,2.6654,2.5877,2.5162,2.416,2.3238,2.3,2.2915,2.2942,2.3781,2.4868,2.5419,2.5386,2.5077,2.4578,2.3593,2.2725,2.2104,2.1363,2.0168,1.8359,1.7743,1.6912,1.6083,1.5157,1.4145,1.3061,1.2634,1.0705,0.8274,0.7593,0.657,0.4799,0.3161,0.2399,0.1563,-0.1173,-0.4268,-0.4938,-0.5203,-0.5521,-0.6109,-0.6832,-0.7564,-0.8403,-0.886,-0.9261,-1.0038,-1.0444,-1.1297,-1.2425,-1.357,-1.4323,-1.5194,-1.6028,-1.6998,-1.7491,-1.7946,-1.8768,-1.9906,-2.1456,-2.289,-2.4093,-2.5356,-2.6712,-2.8672,-2.8998,-2.8975,-2.9071,-2.9398,-2.966,-2.9725,-2.9808,-3.0044,-3.0202,-3.0048,-3.0171,-3.0327,-3.0568,-3.0684,-3.0723,-3.084,-3.0918,-3.0918,-3.0918,-3.0918,-3.0918,-3.0918,-3.0918,-3.0918,-3.0918,-3.0918,-3.0879,-3.0829,-3.0808,-3.0743,-3.0696,-3.0682,-3.071,-3.075,-3.0803,-3.0879,-3.084,-3.0789,-3.0781,-3.0762,-3.0723,-3.069,-3.0668,-3.0674,2.756,2.756,2.7458,2.7086,2.651,2.6201,2.5645,2.484,2.3462,2.2795,2.2735,2.2795,2.3224,2.4175,2.5678,2.6851,2.7158,2.6673,2.5903,2.5234,2.4335,2.3522,2.2849,2.2186,2.1129,1.9193,1.8466,1.7611,1.6348,1.5196,1.4314,1.3114,1.2189,1.0456,0.8348,0.739,0.6538,0.4773,0.2004,-0.0721,-0.1444,-0.2952,-0.4346,-0.5546,-0.6159,-0.6465,-0.7143,-0.8029,-0.8978,-0.9393,-1.0948,-1.184,-1.2387,-1.2599,-1.3375,-1.4011,-1.5004,-1.5724,-1.6498,-1.7247,-1.8023,-1.8864,-1.8636,-1.9105,-2.0477,-2.1624,-2.2926,-2.4329,-2.5584,-2.6913,-2.8695,-2.8975,-2.8975,-2.9071,-2.9398,-2.9642,-2.9649,-2.9426,-2.9848,-3.014,-3.0121,-3.014,-3.0333,-3.055,-3.0613,-3.0703,-3.082,-3.0918,-3.0918,-3.0918,-3.0918,-3.0918,-3.0918,-3.0859,-3.084,-3.0898,-3.0898,-3.0801,-3.075,-3.074,-3.0711,-3.0699,-3.0691,-3.076,-3.082,-3.0856,-3.0829,-3.0739,-3.069,-3.0665,-3.0644,-3.0635,-3.0616,-3.0588,-3.0576,2.756,2.756,2.693,2.6616,2.6322,2.5052,2.4147,2.3331,2.236,2.1572,2.1335,2.2236,2.3516,2.4679,2.5713,2.689,2.771,2.721,2.6521,2.6083,2.5294,2.4521,2.3928,2.3301,2.2355,2.1185,1.9915,1.8431,1.6912,1.613,1.4718,1.3218,1.2097,1.0332,0.8348,0.7255,0.6136,0.4122,0.138,-0.1779,-0.5187,-0.5808,-0.5819,-0.6699,-0.7127,-0.7753,-0.8391,-0.9188,-1.0285,-1.1908,-1.2406,-1.346,-1.4242,-1.4057,-1.4506,-1.5504,-1.617,-1.686,-1.7733,-1.8617,-1.8948,-1.9075,-1.9196,-1.9783,-2.0863,-2.1767,-2.2847,-2.3957,-2.5561,-2.7189,-2.8773,-2.9021,-2.9017,-2.9115,-2.9416,-2.9695,-2.9742,-2.9928,-3.011,-3.0314,-3.0206,-3.0129,-3.0352,-3.0521,-3.0602,-3.0696,-3.0801,-3.0898,-3.0918,-3.0918,-3.0918,-3.0918,-3.0918,-3.082,-3.0762,-3.082,-3.0859,-3.0723,-3.0673,-3.0675,-3.0656,-3.0675,-3.0694,-3.0704,-3.0755,-3.0813,-3.0755,-3.0656,-3.0604,-3.0593,-3.0593,-3.0576,-3.0546,-3.0497,-3.0452,2.791,2.7494,2.6814,2.6256,2.5686,2.4191,2.3094,2.2372,2.1534,2.1339,2.2091,2.353,2.5293,2.6885,2.8501,2.9237,2.8873,2.8148,2.7513,2.7018,2.6232,2.5624,2.5016,2.4353,2.3503,2.246,2.1281,1.9416,1.718,1.6156,1.4866,1.3158,1.1789,0.9957,0.8201,0.7159,0.5093,0.2856,0.0512,-0.2435,-0.703,-0.7058,-0.7469,-0.8168,-0.8573,-0.9179,-1.0218,-1.0939,-1.1895,-1.3084,-1.3899,-1.488,-1.554,-1.5922,-1.5941,-1.6789,-1.7382,-1.7997,-1.8797,-1.957,-1.9904,-2.0062,-2.0156,-2.0528,-2.1195,-2.1983,-2.2909,-2.4353,-2.5461,-2.7273,-2.8815,-2.9097,-2.9181,-2.9289,-2.9588,-2.9813,-2.9943,-3.0215,-3.0343,-3.0398,-3.034,-3.0302,-3.034,-3.0486,-3.0588,-3.0678,-3.0799,-3.0859,-3.0918,-3.0918,-3.0918,-3.0879,-3.0859,-3.0801,-3.0714,-3.075,-3.0763,-3.0639,-3.0585,-3.0593,-3.0564,-3.0564,-3.054,-3.053,-3.0606,-3.0746,-3.0674,-3.0559,-3.0546,-3.0532,-3.0513,-3.0483,-3.046,-3.0417,-3.0362,2.8682,2.7919,2.7189,2.6491,2.5576,2.3948,2.2927,2.2237,2.1673,2.2163,2.3487,2.5589,2.7692,2.9608,3.0992,3.1539,3.0468,2.9407,2.8567,2.7713,2.6951,2.6455,2.5878,2.5089,2.4039,2.2863,2.203,2.0317,1.7989,1.6388,1.4604,1.2692,1.1037,0.9316,0.7714,0.6746,0.3803,0.1213,-0.1222,-0.3249,-0.6012,-0.784,-0.8968,-1.0195,-1.0404,-1.1174,-1.2395,-1.2967,-1.3585,-1.4433,-1.5287,-1.6151,-1.676,-1.7382,-1.772,-1.788,-1.8584,-1.9185,-1.9728,-2.0283,-2.0716,-2.0895,-2.0971,-2.1294,-2.1736,-2.2485,-2.3456,-2.5298,-2.6304,-2.7361,-2.8805,-2.9312,-2.9415,-2.9514,-2.9746,-2.9999,-3.0028,-3.0177,-3.0355,-3.0398,-3.0417,-3.0448,-3.0467,-3.0506,-3.0606,-3.0692,-3.0801,-3.0879,-3.0918,-3.0918,-3.0898,-3.084,-3.0801,-3.0742,-3.0683,-3.0656,-3.0643,-3.0543,-3.053,-3.0529,-3.0487,-3.0467,-3.0444,-3.0447,-3.0543,-3.0634,-3.0556,-3.0506,-3.0479,-3.0441,-3.041,-3.0398,-3.0398,-3.0318,-3.0196,3.0493,2.8976,2.8331,2.7899,2.649,2.4472,2.3844,2.3738,2.3448,2.4232,2.5841,2.774,2.968,3.1487,3.2514,3.2165,3.1046,3.002,2.9112,2.8094,2.7355,2.6736,2.6285,2.555,2.4215,2.3112,2.2215,2.0552,1.877,1.7148,1.4655,1.2226,1.0302,0.8531,0.7108,0.5578,0.3732,0.0121,-0.3739,-0.6892,-0.9001,-1.0548,-1.1637,-1.2397,-1.2987,-1.369,-1.4691,-1.5119,-1.5513,-1.6095,-1.6654,-1.7315,-1.7946,-1.8821,-1.9244,-1.9353,-1.9513,-1.9728,-2.0302,-2.099,-2.1456,-2.1657,-2.1804,-2.2165,-2.2746,-2.3294,-2.4306,-2.5811,-2.6583,-2.7622,-2.9003,-2.9533,-2.9625,-2.9729,-2.9893,-2.9975,-3.0018,-3.0222,-3.0367,-3.0467,-3.0487,-3.0506,-3.0525,-3.0564,-3.0617,-3.0709,-3.0781,-3.0859,-3.0879,-3.0859,-3.0789,-3.071,-3.0704,-3.0676,-3.0635,-3.0617,-3.056,-3.0462,-3.0458,-3.0487,-3.0448,-3.0417,-3.0398,-3.0441,-3.0525,-3.0544,-3.0487,-3.0417,-3.0398,-3.0398,-3.0398,-3.0398,-3.0398,-3.0267,-3.0136,2.1347,1.6335,1.6846,1.7872,1.9235,2.06,2.2395,2.4,2.541,2.6803,2.8207,2.9487,3.1287,3.2577,3.2986,3.2343,3.1545,3.0338,2.9021,2.7951,2.7183,2.6488,2.5737,2.5096,2.4107,2.3631,2.2952,2.2281,2.027,1.7664,1.482,1.211,1.0138,0.8468,0.6863,0.3899,0.1247,-0.2273,-0.6484,-1.033,-1.2086,-1.3583,-1.4803,-1.5423,-1.5743,-1.6313,-1.6866,-1.7165,-1.7511,-1.8007,-1.837,-1.8705,-1.925,-1.9886,-2.0311,-2.0686,-2.1126,-2.1324,-2.139,-2.1893,-2.2184,-2.241,-2.2685,-2.3087,-2.3956,-2.4563,-2.539,-2.7034,-2.7531,-2.8369,-2.9269,-2.9727,-2.9848,-2.9943,-3.0061,-3.0117,-3.0171,-3.026,-3.0398,-3.0487,-3.0564,-3.0583,-3.0601,-3.0616,-3.0649,-3.0685,-3.0737,-3.0762,-3.0762,-3.0723,-3.0625,-3.0527,-3.0549,-3.0588,-3.0576,-3.0544,-3.0506,-3.0436,-3.0417,-3.0417,-3.0417,-3.0398,-3.0398,-3.0398,-3.0436,-3.0436,-3.0398,-3.0398,-3.0398,-3.0398,-3.0398,-3.0398,-3.0398,-3.0367,-3.0216,0.9862,0.3175,0.6437,0.9116,1.1248,1.4928,1.7832,2.0595,2.2906,2.4898,2.6468,2.739,2.9291,3.1284,3.0963,3.105,3.1409,3.0188,2.8862,2.7754,2.6813,2.6031,2.5341,2.4689,2.4302,2.422,2.3799,2.314,2.1874,1.9894,1.7217,1.3522,1.3101,1.0997,0.7607,0.2054,-0.326,-0.821,-1.1477,-1.3941,-1.5316,-1.6664,-1.7632,-1.8193,-1.8467,-1.8643,-1.9023,-1.9291,-1.9589,-1.9734,-2.013,-2.0416,-2.0748,-2.1184,-2.1575,-2.2007,-2.2495,-2.2877,-2.2735,-2.286,-2.31,-2.3303,-2.3668,-2.4225,-2.5838,-2.6054,-2.6367,-2.794,-2.8338,-2.895,-2.9642,-3.0011,-3.008,-3.0169,-3.0254,-3.0355,-3.039,-3.0414,-3.046,-3.0544,-3.0621,-3.0679,-3.0703,-3.0691,-3.0706,-3.07,-3.0704,-3.0703,-3.0664,-3.0623,-3.054,-3.0448,-3.0471,-3.0524,-3.0491,-3.0467,-3.0417,-3.0417,-3.0398,-3.0398,-3.0398,-3.0398,-3.0398,-3.0398,-3.0398,-3.0398,-3.0398,-3.0398,-3.0398,-3.0398,-3.0398,-3.0398,-3.0398,-3.0367,-3.0253,-0.1762,-0.5905,0.3062,0.6223,0.6149,0.7824,0.9824,1.2818,1.5018,1.6694,1.7942,1.9919,2.207,2.362,2.5641,2.7172,2.8558,2.9894,2.8407,2.7276,2.7005,2.6149,2.5402,2.4875,2.4405,2.4135,2.4477,2.4245,2.3574,2.3704,2.1049,1.8488,1.6802,1.5672,1.0358,0.1468,-0.8469,-1.3598,-1.6695,-1.7349,-1.8469,-1.9466,-2.0119,-2.0522,-2.0655,-2.0705,-2.0794,-2.1167,-2.1345,-2.1394,-2.1771,-2.2005,-2.2108,-2.2562,-2.2899,-2.3124,-2.3631,-2.3952,-2.3971,-2.3721,-2.3722,-2.4118,-2.4638,-2.5452,-2.7224,-2.67,-2.7176,-2.854,-2.9044,-2.9408,-2.9966,-3.027,-3.0324,-3.0349,-3.0393,-3.0405,-3.0433,-3.0439,-3.0497,-3.0606,-3.0679,-3.0756,-3.0736,-3.0735,-3.0708,-3.0696,-3.0642,-3.0641,-3.0583,-3.0537,-3.0497,-3.0429,-3.041,-3.041,-3.041,-3.0398,-3.0398,-3.0398,-3.0398,-3.0398,-3.0398,-3.0398,-3.0398,-3.0398,-3.0398,-3.0398,-3.0398,-3.0398,-3.0398,-3.0398,-3.0398,-3.0398,-3.0367,-3.0311,-3.0145,0.1458,-0.4358,-0.4549,-0.4165,-0.2834,0.246,0.6589,0.9858,1.3009,1.3521,1.2173,1.3128,1.354,1.4237,1.4575,1.6716,1.8843,2.1866,2.2538,2.4565,2.5256,2.6371,2.6116,2.5564,2.5797,2.5739,2.6179,2.6481,2.6302,2.6475,2.618,2.3994,2.0635,1.7768,1.167,0.167,-0.9763,-1.6619,-1.939,-2.027,-2.1493,-2.2124,-2.2558,-2.2692,-2.2787,-2.2797,-2.2825,-2.3006,-2.3046,-2.3048,-2.3279,-2.3297,-2.3334,-2.3762,-2.3952,-2.4007,-2.4454,-2.4667,-2.4777,-2.452,-2.4484,-2.4685,-2.5378,-2.6538,-2.821,-2.8075,-2.8675,-2.9525,-2.9853,-3.0086,-3.0323,-3.0489,-3.0513,-3.0525,-3.0491,-3.0466,-3.0477,-3.0472,-3.0577,-3.0704,-3.0777,-3.0864,-3.0803,-3.0753,-3.073,-3.0689,-3.0625,-3.0564,-3.0494,-3.0444,-3.0405,-3.0374,-3.0355,-3.0379,-3.0379,-3.0379,-3.0398,-3.0398,-3.0398,-3.0398,-3.0398,-3.0398,-3.0398,-3.0398,-3.0398,-3.0398,-3.0398,-3.0398,-3.0398,-3.0398,-3.0398,-3.0398,-3.0355,-3.0279,-3.0164,0.6194,-0.0641,-0.7651,-1.0588,-0.9389,-0.3434,0.1226,0.4521,0.7074,0.7332,0.4976,0.4243,0.3833,0.3652,0.4701,0.587,0.8923,1.1691,1.3721,1.6217,1.9247,2.2645,2.3825,2.498,2.6011,2.7025,2.7849,2.8048,2.8218,2.8926,2.856,2.6755,2.3715,2.1042,1.5446,0.317,-0.9498,-1.6702,-2.0698,-2.2501,-2.3812,-2.4335,-2.4261,-2.4225,-2.4167,-2.4212,-2.4174,-2.4217,-2.4282,-2.4261,-2.4323,-2.436,-2.4454,-2.4591,-2.4737,-2.4801,-2.4891,-2.5031,-2.5044,-2.5063,-2.5005,-2.5125,-2.5902,-2.7235,-2.8589,-2.9288,-2.948,-3.0296,-3.0523,-3.0583,-3.0571,-3.0536,-3.0484,-3.0471,-3.0484,-3.0464,-3.0502,-3.0529,-3.069,-3.0827,-3.084,-3.0788,-3.0761,-3.0698,-3.0629,-3.059,-3.0544,-3.0475,-3.0424,-3.0374,-3.0299,-3.0299,-3.0299,-3.0323,-3.0367,-3.0379,-3.0398,-3.0398,-3.0398,-3.0398,-3.0398,-3.0398,-3.0398,-3.0398,-3.0398,-3.0398,-3.0398,-3.0398,-3.0398,-3.0398,-3.0398,-3.0398,-3.0379,-3.0355,-3.0367,1.0661,0.5011,-0.355,-0.939,-1.1846,-1.0052,-0.7139,-0.4443,-0.3605,-0.4118,-0.5627,-0.6184,-0.6694,-0.6316,-0.4321,-0.2739,-0.0981,0.1702,0.3826,0.6068,1.1717,1.4066,1.767,2.0994,2.4829,2.7101,2.8125,2.8798,2.9357,2.9667,2.9777,2.9207,2.6702,2.3731,2.1004,0.6269,-0.7315,-1.7563,-2.1676,-2.4155,-2.5197,-2.5716,-2.539,-2.5127,-2.4941,-2.4938,-2.4934,-2.4988,-2.4989,-2.4952,-2.5085,-2.5085,-2.5091,-2.518,-2.5278,-2.5309,-2.5311,-2.5256,-2.5109,-2.5205,-2.5332,-2.5566,-2.6345,-2.7878,-2.9576,-2.9964,-2.9688,-3.0438,-3.0513,-3.0505,-3.0489,-3.0463,-3.0449,-3.0469,-3.0488,-3.0507,-3.0554,-3.063,-3.0774,-3.0786,-3.0701,-3.0614,-3.0625,-3.0598,-3.0513,-3.0482,-3.0436,-3.0417,-3.0355,-3.0267,-3.0196,-3.0177,-3.0196,-3.0209,-3.0235,-3.0367,-3.0398,-3.0398,-3.0398,-3.0398,-3.0398,-3.0398,-3.0398,-3.0398,-3.0398,-3.0398,-3.0398,-3.0398,-3.0398,-3.0398,-3.0398,-3.0398,-3.0398,-3.0398,-3.0398,1.3003,0.8575,0.1519,-0.3462,-0.6446,-0.7057,-0.7124,-0.7435,-0.8298,-0.9701,-1.1651,-1.3277,-1.4875,-1.4972,-1.4716,-1.3058,-1.1262,-0.6573,-0.4416,-0.1221,0.4835,1.0254,1.4091,1.7854,2.2315,2.5371,2.7315,2.8679,2.9272,2.9696,2.9813,2.9307,2.7528,2.2618,1.4891,0.3781,-0.6278,-1.4722,-2.0842,-2.5384,-2.6133,-2.6239,-2.6087,-2.576,-2.5492,-2.5332,-2.5316,-2.5408,-2.5362,-2.5322,-2.5455,-2.5457,-2.5427,-2.55,-2.5504,-2.5486,-2.546,-2.5275,-2.5284,-2.5434,-2.5738,-2.6114,-2.7046,-2.8437,-2.9748,-2.9849,-3.0023,-3.0229,-3.0327,-3.0384,-3.0527,-3.0543,-3.0537,-3.0548,-3.0576,-3.0576,-3.062,-3.0732,-3.083,-3.0726,-3.0603,-3.0548,-3.0529,-3.0407,-3.033,-3.0272,-3.0234,-3.0318,-3.0318,-3.0169,-3.0061,-3.0042,-3.0056,-3.0075,-3.0117,-3.0279,-3.0379,-3.0398,-3.0398,-3.0398,-3.0398,-3.0398,-3.0398,-3.0398,-3.0398,-3.0398,-3.0355,-3.0311,-3.0367,-3.0398,-3.0311,-3.0311,-3.0323,-3.0367,-3.0398,1.5189,1.1215,0.5919,0.1847,-0.1152,-0.3914,-0.6169,-0.8438,-1.0724,-1.2818,-1.4795,-1.7523,-1.9479,-2.0665,-2.1558,-2.189,-1.9833,-1.6143,-1.3189,-0.9346,-0.2264,0.2544,0.7581,1.378,1.8532,2.2347,2.5507,2.7392,2.7879,2.8962,2.9423,2.911,2.7639,2.3644,1.5388,0.6241,-0.3871,-1.1979,-1.8905,-2.6061,-2.6659,-2.6858,-2.6767,-2.6356,-2.5961,-2.5634,-2.5612,-2.5568,-2.5466,-2.5509,-2.5531,-2.5556,-2.5543,-2.5531,-2.5524,-2.5486,-2.5348,-2.5357,-2.5699,-2.6039,-2.6294,-2.6335,-2.7755,-2.8736,-2.9394,-2.9628,-2.9836,-3.0009,-3.0065,-3.0136,-3.0245,-3.0303,-3.0284,-3.0284,-3.0265,-3.0272,-3.0508,-3.0626,-3.0618,-3.0505,-3.049,-3.0439,-3.0355,-3.024,-3.0113,-3.0075,-3.0037,-3.0114,-3.0174,-3.0007,-2.9877,-2.9908,-2.9939,-2.9954,-3.0061,-3.0267,-3.0355,-3.0398,-3.0379,-3.0367,-3.0398,-3.0398,-3.0398,-3.0398,-3.0367,-3.0343,-3.0241,-3.0228,-3.0155,-3.0128,-3.0085,-3.0128,-3.0241,-3.0279,-3.0291,1.7232,1.3287,0.9414,0.5927,0.2692,-0.1543,-0.549,-0.9276,-1.2257,-1.4466,-1.6381,-1.8996,-2.0785,-2.2517,-2.3605,-2.4068,-2.4169,-2.2662,-2.139,-1.878,-1.1375,-0.6488,-0.0202,0.669,1.2115,1.7536,2.1553,2.3984,2.5617,2.8358,2.9407,2.9025,2.7714,2.4858,1.8539,0.887,-0.0755,-0.8279,-1.9344,-2.5261,-2.6786,-2.7696,-2.7541,-2.7142,-2.6642,-2.6384,-2.6193,-2.5876,-2.5648,-2.5524,-2.5466,-2.5456,-2.5452,-2.5429,-2.5398,-2.534,-2.5198,-2.5757,-2.624,-2.6631,-2.6825,-2.69,-2.7867,-2.8532,-2.8986,-2.9401,-2.9532,-2.9586,-2.9584,-2.9638,-2.9712,-2.9676,-2.9676,-2.9676,-2.9658,-2.9876,-3.0235,-3.0314,-3.0284,-3.0259,-3.0275,-3.0208,-3.0071,-2.9946,-2.9855,-2.9769,-2.9696,-2.9643,-2.9678,-2.968,-2.9607,-2.9732,-2.9748,-2.9832,-2.9992,-3.0174,-3.033,-3.0367,-3.0311,-3.0279,-3.0336,-3.0374,-3.0337,-3.0324,-3.033,-3.0273,-3.008,-2.9927,-2.9815,-2.9799,-2.9869,-3.0146,-3.0316,-3.0092,-3.0118,1.5894,1.3403,1.0953,0.809,0.4706,-0.0693,-0.4701,-0.7454,-1.1608,-1.4356,-1.5756,-1.8449,-2.0267,-2.1202,-2.2675,-2.3696,-2.4063,-2.4112,-2.3393,-2.0795,-1.7497,-1.3212,-0.7908,-0.1613,0.4049,0.9768,1.4829,1.9738,2.329,2.6801,2.9357,2.9129,2.7069,2.5773,2.0378,1.1035,0.3763,-0.5918,-1.8818,-2.4775,-2.6945,-2.78,-2.7966,-2.8075,-2.7494,-2.7304,-2.7139,-2.6466,-2.6196,-2.6158,-2.5649,-2.5436,-2.5407,-2.5399,-2.539,-2.5428,-2.5723,-2.6296,-2.6555,-2.7377,-2.773,-2.7437,-2.8107,-2.8702,-2.9037,-2.9091,-2.9135,-2.9098,-2.9061,-2.9082,-2.9087,-2.9087,-2.9087,-2.9126,-2.9105,-2.924,-2.9567,-2.9701,-2.9681,-2.9687,-2.9712,-2.9967,-2.9815,-2.9678,-2.957,-2.9474,-2.9375,-2.9314,-2.9272,-2.9312,-2.9353,-2.9474,-2.9681,-2.9765,-2.9886,-3.0064,-3.0221,-3.0343,-3.0299,-3.0241,-3.0241,-3.0279,-3.0265,-3.0204,-3.0052,-2.9943,-2.9813,-2.966,-2.957,-2.9626,-2.9737,-3.0074,-3.0319,-3.0283,-3.0395,1.6629,1.5023,1.2846,0.9723,0.5457,-0.046,-0.4308,-0.6897,-1.1443,-1.4022,-1.4942,-1.792,-1.9378,-1.9684,-2.1174,-2.2457,-2.3179,-2.3144,-2.3025,-2.2643,-2.0949,-1.7168,-1.2873,-0.8698,-0.3506,0.2191,0.8114,1.3971,1.9187,2.5251,2.8655,2.6989,2.5462,2.4833,2.1666,1.5874,0.8251,-0.3312,-1.5101,-2.3879,-2.6966,-2.7795,-2.8816,-2.9036,-2.8464,-2.8275,-2.8088,-2.7255,-2.6611,-2.637,-2.5661,-2.5176,-2.5249,-2.5397,-2.5633,-2.5774,-2.632,-2.689,-2.7304,-2.7775,-2.7942,-2.8087,-2.8467,-2.8599,-2.8659,-2.8631,-2.8579,-2.8499,-2.8481,-2.8463,-2.8476,-2.8488,-2.8536,-2.8602,-2.8567,-2.8537,-2.8718,-2.8923,-2.899,-2.9022,-2.9233,-2.9569,-2.9589,-2.9435,-2.933,-2.9246,-2.9181,-2.9138,-2.9115,-2.9138,-2.9178,-2.9225,-2.9513,-2.975,-2.9855,-2.9991,-3.0118,-3.0241,-3.0299,-3.0254,-3.0202,-3.0114,-3.0094,-2.9899,-2.9693,-2.9605,-2.9533,-2.9455,-2.9392,-2.9507,-2.9861,-3.0456,-3.0825,-3.0987,-3.1225,1.8512,1.7445,1.4757,1.0765,0.5796,0.0153,-0.3757,-0.6522,-1.1077,-1.3526,-1.4355,-1.7357,-1.8372,-1.8332,-1.9662,-2.0928,-2.1756,-2.2175,-2.2859,-2.3148,-2.2051,-1.9529,-1.6932,-1.3267,-0.9791,-0.4826,0.085,0.7043,1.4637,2.0388,2.369,2.3968,2.3385,2.2808,2.1616,1.6198,0.8397,-0.0937,-1.4807,-2.5889,-2.6554,-2.7956,-2.9785,-2.9709,-2.9339,-2.8992,-2.8567,-2.7675,-2.6518,-2.6206,-2.5741,-2.5256,-2.5366,-2.5646,-2.5966,-2.634,-2.6865,-2.7344,-2.7768,-2.8128,-2.876,-2.8968,-2.9204,-2.8615,-2.8345,-2.8413,-2.8366,-2.8012,-2.7949,-2.7949,-2.794,-2.7812,-2.7812,-2.7868,-2.7885,-2.7804,-2.7851,-2.8049,-2.8218,-2.837,-2.8864,-2.9159,-2.9196,-2.906,-2.9203,-2.9085,-2.904,-2.8998,-2.8998,-2.904,-2.9062,-2.9067,-2.926,-2.9588,-2.9937,-3.0037,-3.0041,-3.0136,-3.0202,-3.0114,-2.9927,-2.9896,-2.9896,-2.9642,-2.9379,-2.9339,-2.9256,-2.9228,-2.9307,-2.9599,-3.0074,-3.0864,-3.128,-3.1483,-3.1986,1.7736,1.6738,1.449,1.1516,0.7979,0.3473,-0.106,-0.5272,-0.9527,-1.2211,-1.3795,-1.5359,-1.654,-1.7151,-1.8073,-1.9412,-2.076,-2.1717,-2.2713,-2.3469,-2.314,-2.2219,-2.0907,-1.8308,-1.5781,-1.2681,-0.7296,0.0437,0.8772,1.4378,1.9695,2.4529,2.1639,1.7745,1.8348,1.2247,0.3516,-0.3322,-1.5222,-2.4663,-2.5371,-2.772,-2.9708,-3.0048,-3.0062,-2.9918,-2.9502,-2.8834,-2.8292,-2.8036,-2.7161,-2.6597,-2.6226,-2.6358,-2.6265,-2.6318,-2.7233,-2.7735,-2.7892,-2.8187,-2.8813,-2.897,-2.8882,-2.8317,-2.8066,-2.8272,-2.8166,-2.7689,-2.7409,-2.7409,-2.7348,-2.7161,-2.7066,-2.7129,-2.7175,-2.7099,-2.7022,-2.7239,-2.7462,-2.7942,-2.8463,-2.864,-2.8724,-2.885,-2.8998,-2.904,-2.9017,-2.8975,-2.8975,-2.8998,-2.8998,-2.903,-2.9003,-2.9325,-2.9757,-2.9993,-2.9921,-2.9864,-2.9883,-2.9782,-2.9696,-2.9644,-2.9589,-2.9314,-2.9075,-2.9101,-2.9123,-2.9071,-2.9223,-2.9622,-3.0063,-3.0779,-3.1451,-3.1776,-3.2467,1.8247,1.7503,1.5275,1.2769,0.9895,0.5569,0.0981,-0.3495,-0.7568,-1.0502,-1.2618,-1.4291,-1.5508,-1.607,-1.6936,-1.8502,-2.0169,-2.1335,-2.2809,-2.3858,-2.4544,-2.3933,-2.3082,-2.2175,-2.0054,-1.712,-1.0812,-0.3318,0.2832,1.0834,1.6849,1.4909,1.0039,0.7183,0.8728,0.2351,-0.4436,-1.0472,-2.0106,-2.36,-2.4964,-2.7639,-2.9708,-3.0257,-3.0414,-3.0337,-2.9845,-2.9197,-2.8644,-2.81,-2.7177,-2.6571,-2.6301,-2.6463,-2.6493,-2.6705,-2.73,-2.8009,-2.7858,-2.8055,-2.8572,-2.8518,-2.8488,-2.7918,-2.7388,-2.7518,-2.7566,-2.7129,-2.6723,-2.6657,-2.6505,-2.6351,-2.6351,-2.6403,-2.6522,-2.6556,-2.6683,-2.6943,-2.7178,-2.7555,-2.7966,-2.8228,-2.8324,-2.8522,-2.8658,-2.8773,-2.8773,-2.8952,-2.8952,-2.8975,-2.8975,-2.8984,-2.9,-2.9054,-2.9344,-2.9589,-2.9698,-2.9644,-2.9589,-2.957,-2.9533,-2.9409,-2.9252,-2.9104,-2.8998,-2.9021,-2.8998,-2.8975,-2.9365,-2.9824,-3.0191,-3.0613,-3.1304,-3.2056,-3.2735,1.8736,1.8392,1.6139,1.3945,1.1531,0.7005,0.2494,-0.167,-0.5591,-0.8552,-1.0846,-1.3339,-1.4577,-1.5438,-1.6062,-1.7927,-1.9609,-2.1151,-2.2845,-2.4754,-2.6026,-2.5517,-2.4776,-2.39,-2.2436,-1.9454,-1.4143,-1.0576,-0.6568,0.0474,0.1626,-0.3785,-0.8257,-1.2474,-0.6985,-0.5562,-0.9872,-1.6957,-2.3222,-2.4746,-2.6435,-2.8058,-2.9371,-3.0058,-3.0261,-3.0107,-2.9554,-2.8986,-2.8275,-2.773,-2.7146,-2.6687,-2.6504,-2.6695,-2.6664,-2.6911,-2.7415,-2.7771,-2.7688,-2.7699,-2.7814,-2.7771,-2.7763,-2.7502,-2.6976,-2.6805,-2.6852,-2.659,-2.6156,-2.5997,-2.5835,-2.5672,-2.5709,-2.5905,-2.6013,-2.6227,-2.6505,-2.6715,-2.6946,-2.7241,-2.75,-2.7765,-2.7918,-2.8139,-2.8316,-2.842,-2.859,-2.8773,-2.891,-2.8975,-2.8975,-2.9003,-2.9005,-2.9042,-2.9187,-2.9245,-2.9436,-2.9494,-2.9455,-2.9435,-2.9394,-2.924,-2.9144,-2.9062,-2.8998,-2.909,-2.9012,-2.8975,-2.9457,-2.9934,-3.0173,-3.054,-3.1458,-3.2192,-3.2889,1.6564,1.5922,1.5359,1.403,1.1786,0.8388,0.4215,-0.0379,-0.3827,-0.6779,-0.9487,-1.1001,-1.2757,-1.5163,-1.5305,-1.7154,-2.0222,-2.1487,-2.3599,-2.583,-2.6857,-2.6829,-2.6245,-2.5152,-2.4567,-2.1988,-1.9544,-1.9001,-1.4603,-1.2308,-1.2788,-1.5057,-1.8011,-2.1574,-2.3084,-2.0695,-1.8012,-2.2664,-2.2846,-2.3843,-2.562,-2.7257,-2.9075,-2.9704,-2.9969,-2.9542,-2.9087,-2.8809,-2.8503,-2.8044,-2.7468,-2.7074,-2.693,-2.6946,-2.6887,-2.6891,-2.74,-2.7357,-2.7317,-2.7348,-2.7343,-2.7145,-2.7109,-2.708,-2.665,-2.6387,-2.628,-2.599,-2.5749,-2.5815,-2.5652,-2.5297,-2.5259,-2.5659,-2.5893,-2.631,-2.6657,-2.669,-2.6807,-2.7004,-2.7178,-2.7317,-2.7439,-2.766,-2.7964,-2.8102,-2.829,-2.8489,-2.8658,-2.8815,-2.8989,-2.8984,-2.8993,-2.9203,-2.937,-2.9104,-2.9203,-2.9267,-2.9289,-2.9228,-2.9181,-2.9071,-2.8994,-2.9237,-2.9237,-2.9274,-2.92,-2.9512,-2.9439,-2.9861,-3.0044,-3.0503,-3.1476,-3.2265,-3.2908]}]]